[[{"header":{"parameterUnit":"m.s-1","parameterCategory":1,"la1":30.6,"la2":28.766,"lo1":-90.7593,"lo2":-88.6598,"dy":0.0162,"dx":0.0183,"nx":116,"ny":114,"refTime":"2023-05-12T06:00:00:Z","depth":0,"parameterNumber":2,"parameterNumberName":"U-component_of_WINDS"},"data":[0.0,0.0,0.0,0.0,0.0,0.0,0.0,0.0,0.0,0.0,0.0,0.0,0.0,0.0,0.0,0.0,0.0,0.0,0.0,0.0,0.0,0.0,0.0,0.0,0.0,0.0,0.0,0.0,0.0,0.0,0.0,0.0,0.0,0.0,0.0,0.0,0.0,0.0,0.0,0.0,0.0,0.0,0.0,0.0,0.0,0.0,0.0,0.0,0.0,0.0,0.0,0.0,0.0,0.0,0.0,0.0,0.0,0.0,0.0,0.0,0.0,0.0,0.0,0.0,0.0,0.0,0.0,0.0,0.0,0.0,0.0,0.0,0.0,0.0,0.0,0.0,0.0,0.0,0.0,0.0,0.0,0.0,0.0,0.0,0.0,0.0,0.0,0.0,0.0,0.0,0.0,0.0,0.0,0.0,0.0,0.0,0.0,0.0,0.0,0.0,0.0,0.0,0.0,0.0,0.0,0.0,0.0,0.0,0.0,0.0,0.0,0.0,0.0,0.0,0.0,0.0,0.0,0.0,0.0,0.0,0.0,0.0,0.0,0.0,0.0,0.0,0.0,0.0,0.0,0.0,0.0,0.0,0.0,0.0,0.0,0.0,0.0,0.0,0.0,0.0,0.0,0.0,0.0,0.0,0.0,0.0,0.0,0.0,0.0,0.0,0.0,0.0,0.0,0.0,0.0,0.0,0.0,0.0,0.0,0.0,0.0,0.0,0.0,0.0,0.0,0.0,0.0,0.0,0.0,0.0,0.0,0.0,0.0,0.0,0.0,0.0,0.0,0.0,0.0,0.0,0.0,0.0,0.0,0.0,0.0,0.0,0.0,0.0,0.0,0.0,0.0,0.0,0.0,0.0,0.0,0.0,0.0,0.0,0.0,0.0,0.0,0.0,0.0,0.0,0.0,0.0,0.0,0.0,0.0,0.0,0.0,0.0,0.0,0.0,0.0,0.0,0.0,0.0,0.0,0.0,0.0,0.0,0.0,0.0,0.0,0.0,0.0,0.0,0.0,0.0,0.0,0.0,0.0,0.0,0.0,0.0,0.0,0.0,0.0,0.0,0.0,0.0,0.0,0.0,0.0,0.0,0.0,0.0,0.0,0.0,0.0,0.0,0.0,0.0,0.0,0.0,0.0,0.0,0.0,0.0,0.0,0.0,0.0,0.0,0.0,0.0,0.0,0.0,0.0,0.0,0.0,0.0,0.0,0.0,0.0,0.0,0.0,0.0,0.0,0.0,0.0,0.0,0.0,0.0,0.0,0.0,0.0,0.0,0.0,0.0,0.0,0.0,0.0,0.0,0.0,0.0,0.0,0.0,0.0,0.0,0.0,0.0,0.0,0.0,0.0,0.0,0.0,0.0,0.0,0.0,0.0,0.0,0.0,0.0,0.0,0.0,0.0,0.0,0.0,0.0,0.0,0.0,0.0,0.0,0.0,0.0,0.0,0.0,0.0,0.0,0.0,0.0,0.0,0.0,0.0,0.0,0.0,0.0,0.0,0.0,0.0,0.0,0.0,0.0,0.0,0.0,0.0,0.0,0.0,0.0,0.0,0.0,0.0,0.0,0.0,0.0,0.0,0.0,0.0,0.0,0.0,0.0,0.0,0.0,0.0,0.0,0.0,0.0,0.0,0.0,0.0,0.0,0.0,0.0,0.0,0.0,0.0,0.0,0.0,0.0,0.0,0.0,0.0,0.0,0.0,0.0,0.0,0.0,0.0,0.0,0.0,0.0,0.0,0.0,0.0,0.0,0.0,0.0,0.0,0.0,0.0,0.0,0.0,0.0,0.0,0.0,0.0,0.0,0.0,0.0,0.0,0.0,0.0,0.0,0.0,0.0,0.0,0.0,0.0,0.0,0.0,0.0,0.0,0.0,0.0,0.0,0.0,0.0,0.0,0.0,0.0,0.0,0.0,0.0,0.0,0.0,0.0,0.0,0.0,0.0,0.0,0.0,0.0,0.0,0.0,0.0,0.0,0.0,0.0,0.0,0.0,0.0,0.0,0.0,0.0,0.0,0.0,0.0,0.0,0.0,0.0,0.0,0.0,0.0,0.0,0.0,0.0,0.0,0.0,0.0,0.0,0.0,0.0,0.0,0.0,0.0,0.0,0.0,0.0,0.0,0.0,0.0,0.0,0.0,0.0,0.0,0.0,0.0,0.0,0.0,0.0,0.0,0.0,0.0,0.0,0.0,0.0,0.0,0.0,0.0,0.0,0.0,0.0,0.0,0.0,0.0,0.0,0.0,0.0,0.0,0.0,0.0,0.0,0.0,0.0,0.0,0.0,0.0,0.0,0.0,0.0,0.0,0.0,0.0,0.0,0.0,0.0,0.0,0.0,0.0,0.0,0.0,0.0,0.0,0.0,0.0,0.0,0.0,0.0,0.0,0.0,0.0,0.0,0.0,0.0,0.0,0.0,0.0,0.0,0.0,0.0,0.0,0.0,0.0,0.0,0.0,0.0,0.0,0.0,0.0,0.0,0.0,0.0,0.0,0.0,0.0,0.0,0.0,0.0,0.0,0.0,0.0,0.0,0.0,0.0,0.0,0.0,0.0,0.0,0.0,0.0,0.0,0.0,0.0,0.0,0.0,0.0,0.0,0.0,0.0,0.0,0.0,0.0,0.0,0.0,0.0,0.0,0.0,0.0,0.0,0.0,0.0,0.0,0.0,0.0,0.0,0.0,0.0,0.0,0.0,0.0,0.0,0.0,0.0,0.0,0.0,0.0,0.0,0.0,0.0,0.0,0.0,0.0,0.0,0.0,0.0,0.0,0.0,0.0,0.0,0.0,0.0,0.0,0.0,0.0,0.0,0.0,0.0,0.0,0.0,0.0,0.0,0.0,0.0,0.0,0.0,0.0,0.0,0.0,0.0,0.0,0.0,0.0,0.0,0.0,0.0,0.0,0.0,0.0,0.0,0.0,0.0,0.0,0.0,0.0,0.0,0.0,0.0,0.0,0.0,0.0,0.0,0.0,0.0,0.0,0.0,0.0,0.0,0.0,0.0,0.0,0.0,0.0,0.0,0.0,0.0,0.0,0.0,0.0,0.0,0.0,0.0,0.0,0.0,0.0,0.0,0.0,0.0,0.0,0.0,0.0,0.0,0.0,0.0,0.0,0.0,0.0,0.0,0.0,0.0,0.0,0.0,0.0,0.0,0.0,0.0,0.0,0.0,0.0,0.0,0.0,0.0,0.0,0.0,0.0,0.0,0.0,0.0,0.0,0.0,0.0,0.0,0.0,0.0,0.0,0.0,0.0,0.0,0.0,0.0,0.0,0.0,0.0,0.0,0.0,0.0,0.0,0.0,0.0,0.0,0.0,0.0,0.0,0.0,0.0,0.0,0.0,0.0,0.0,0.0,0.0,0.0,0.0,0.0,0.0,0.0,0.0,0.0,0.0,0.0,0.0,0.0,0.0,0.0,0.0,0.0,0.0,0.0,0.0,0.0,0.0,0.0,0.0,0.0,0.0,0.0,0.0,0.0,0.0,0.0,0.0,0.0,0.0,0.0,0.0,0.0,0.0,0.0,0.0,0.0,0.0,0.0,0.0,0.0,0.0,0.0,0.0,0.0,0.0,0.0,0.0,0.0,0.0,0.0,0.0,0.0,0.0,0.0,0.0,0.0,0.0,0.0,0.0,0.0,0.0,0.0,0.0,0.0,0.0,0.0,0.0,0.0,0.0,0.0,0.0,0.0,0.0,0.0,0.0,0.0,0.0,0.0,0.0,0.0,0.0,0.0,0.0,0.0,0.0,0.0,0.0,0.0,0.0,0.0,0.0,0.0,0.0,0.0,0.0,0.0,0.0,0.0,0.0,0.0,0.0,0.0,0.0,0.0,0.0,0.0,0.0,0.0,0.0,0.0,0.0,0.0,0.0,0.0,0.0,0.0,0.0,0.0,0.0,0.0,0.0,0.0,0.0,0.0,0.0,0.0,0.0,0.0,0.0,0.0,0.0,0.0,0.0,0.0,0.0,0.0,0.0,0.0,0.0,0.0,0.0,0.0,0.0,0.0,0.0,0.0,0.0,0.0,0.0,0.0,0.0,0.0,0.0,0.0,0.0,0.0,0.0,0.0,0.0,0.0,0.0,0.0,0.0,0.0,0.0,0.0,0.0,0.0,0.0,0.0,0.0,0.0,0.0,0.0,0.0,0.0,0.0,0.0,0.0,0.0,0.0,0.0,0.0,0.0,0.0,0.0,0.0,0.0,0.0,0.0,0.0,0.0,0.0,0.0,0.0,0.0,0.0,0.0,0.0,0.0,0.0,0.0,0.0,0.0,0.0,0.0,0.0,0.0,0.0,0.0,0.0,0.0,0.0,0.0,0.0,0.0,0.0,0.0,0.0,0.0,0.0,0.0,0.0,0.0,0.0,0.0,0.0,0.0,0.0,0.0,0.0,0.0,0.0,0.0,0.0,0.0,0.0,0.0,0.0,0.0,0.0,0.0,0.0,0.0,0.0,0.0,0.0,0.0,0.0,0.0,0.0,0.0,0.0,0.0,0.0,0.0,0.0,0.0,0.0,0.0,0.0,0.0,0.0,0.0,0.0,0.0,0.0,0.0,0.0,0.0,0.0,0.0,0.0,0.0,0.0,0.0,0.0,0.0,0.0,0.0,0.0,0.0,0.0,0.0,0.0,0.0,0.0,0.0,0.0,0.0,0.0,0.0,0.0,0.0,0.0,0.0,0.0,0.0,0.0,0.0,0.0,0.0,0.0,0.0,0.0,0.0,0.0,0.0,0.0,0.0,0.0,0.0,0.0,0.0,0.0,0.0,0.0,0.0,0.0,0.0,0.0,0.0,0.0,0.0,0.0,0.0,0.0,0.0,0.0,0.0,0.0,0.0,0.0,0.0,0.0,0.0,0.0,0.0,0.0,0.0,0.0,0.0,0.0,0.0,0.0,0.0,0.0,0.0,0.0,0.0,0.0,0.0,0.0,0.0,0.0,0.0,0.0,0.0,0.0,0.0,0.0,0.0,0.0,0.0,0.0,0.0,0.0,0.0,0.0,0.0,0.0,0.0,0.0,0.0,0.0,0.0,0.0,0.0,0.0,0.0,0.0,0.0,0.0,0.0,0.0,0.0,0.0,0.0,0.0,0.0,0.0,0.0,0.0,0.0,0.0,0.0,0.0,0.0,0.0,0.0,0.0,0.0,0.0,0.0,0.0,0.0,0.0,0.0,0.0,0.0,0.0,0.0,0.0,0.0,0.0,0.0,0.0,0.0,0.0,0.0,0.0,0.0,0.0,0.0,0.0,0.0,0.0,0.0,0.0,0.0,0.0,0.0,0.0,0.0,0.0,0.0,0.0,0.0,0.0,0.0,0.0,0.0,0.0,0.0,0.0,0.0,0.0,0.0,0.0,0.0,0.0,0.0,0.0,0.0,0.0,0.0,0.0,0.0,0.0,0.0,0.0,0.0,0.0,0.0,0.0,0.0,0.0,0.0,0.0,0.0,0.0,0.0,0.0,0.0,0.0,0.0,0.0,0.0,0.0,0.0,0.0,0.0,0.0,0.0,0.0,0.0,0.0,0.0,0.0,0.0,0.0,0.0,0.0,0.0,0.0,0.0,0.0,0.0,0.0,0.0,0.0,0.0,0.0,0.0,0.0,0.0,0.0,0.0,0.0,0.0,0.0,0.0,0.0,0.0,0.0,0.0,0.0,0.0,0.0,0.0,0.0,0.0,0.0,0.0,0.0,0.0,0.0,0.0,0.0,0.0,0.0,0.0,0.0,0.0,0.0,0.0,0.0,0.0,0.0,0.0,0.0,0.0,0.0,0.0,0.0,0.0,0.0,0.0,0.0,0.0,0.0,0.0,0.0,0.0,0.0,0.0,0.0,0.0,0.0,0.0,0.0,0.0,0.0,0.0,0.0,0.0,0.0,0.0,0.0,0.0,0.0,0.0,0.0,0.0,0.0,0.0,0.0,0.0,0.0,0.0,0.0,0.0,0.0,0.0,0.0,0.0,0.0,0.0,0.0,0.0,0.0,0.0,0.0,0.0,0.0,0.0,0.0,0.0,0.0,0.0,0.0,0.0,0.0,0.0,0.0,0.0,0.0,0.0,0.0,0.0,0.0,0.0,0.0,0.0,0.0,0.0,-3.4743,-3.4807,0.0,0.0,0.0,0.0,0.0,0.0,0.0,0.0,0.0,0.0,0.0,0.0,0.0,0.0,0.0,0.0,0.0,0.0,0.0,0.0,0.0,0.0,0.0,0.0,0.0,0.0,0.0,0.0,0.0,0.0,0.0,0.0,0.0,0.0,0.0,0.0,0.0,-2.7484,-2.8359,-2.961,-3.1156,-3.1852,-3.2572,-3.3295,0.0,0.0,0.0,0.0,0.0,0.0,0.0,0.0,0.0,0.0,0.0,0.0,0.0,0.0,0.0,0.0,0.0,0.0,0.0,0.0,0.0,0.0,0.0,0.0,0.0,0.0,0.0,0.0,0.0,0.0,0.0,0.0,0.0,0.0,0.0,0.0,0.0,0.0,0.0,0.0,0.0,0.0,0.0,0.0,0.0,0.0,0.0,0.0,0.0,0.0,0.0,0.0,0.0,0.0,0.0,0.0,0.0,0.0,0.0,0.0,0.0,0.0,0.0,0.0,0.0,0.0,0.0,0.0,0.0,0.0,-3.4116,-3.4544,0.0,0.0,0.0,0.0,0.0,0.0,0.0,0.0,0.0,0.0,0.0,0.0,0.0,0.0,0.0,0.0,0.0,0.0,0.0,0.0,0.0,0.0,0.0,-2.5481,-2.5756,-2.6081,-2.6283,-2.659,0.0,0.0,0.0,0.0,0.0,0.0,-2.5112,-2.5357,-2.5937,-2.6817,-2.7648,-2.9044,-3.0877,-3.1429,-3.231,-3.3468,-3.3646,0.0,0.0,0.0,0.0,0.0,0.0,0.0,0.0,0.0,0.0,0.0,0.0,0.0,0.0,0.0,0.0,0.0,0.0,0.0,0.0,0.0,0.0,0.0,0.0,0.0,0.0,0.0,0.0,0.0,0.0,0.0,0.0,0.0,0.0,0.0,0.0,0.0,0.0,0.0,0.0,0.0,0.0,0.0,0.0,0.0,0.0,0.0,0.0,0.0,0.0,0.0,0.0,0.0,0.0,0.0,0.0,0.0,0.0,0.0,0.0,0.0,0.0,0.0,-3.0504,-3.0464,-3.0498,-3.0498,-3.0895,-3.1702,-3.2993,-3.3758,-3.4059,-3.3715,0.0,0.0,0.0,0.0,0.0,0.0,0.0,0.0,0.0,0.0,0.0,0.0,0.0,0.0,0.0,0.0,0.0,0.0,0.0,0.0,0.0,-2.425,-2.4525,-2.4486,-2.4896,-2.5287,-2.5646,0.0,0.0,0.0,0.0,0.0,-2.4675,-2.4952,-2.5413,-2.6118,-2.7891,-2.9479,-3.0838,-3.1293,-3.2032,-3.2928,-3.3294,-3.3353,-3.3168,0.0,0.0,0.0,0.0,0.0,0.0,0.0,0.0,0.0,0.0,0.0,0.0,0.0,0.0,0.0,0.0,0.0,0.0,0.0,0.0,0.0,0.0,0.0,0.0,0.0,0.0,0.0,0.0,0.0,0.0,0.0,0.0,0.0,0.0,0.0,0.0,0.0,0.0,0.0,0.0,0.0,-3.2422,-3.2988,0.0,0.0,0.0,0.0,0.0,0.0,0.0,0.0,0.0,0.0,0.0,0.0,0.0,-3.0485,-3.0485,-3.0624,-3.0714,-3.0663,-3.0101,-2.9922,-3.0098,-3.0098,-3.025,-3.0514,-3.0866,0.0,-3.2832,-3.2952,0.0,0.0,0.0,0.0,0.0,0.0,0.0,0.0,0.0,0.0,0.0,0.0,0.0,0.0,0.0,0.0,0.0,0.0,0.0,0.0,0.0,-2.2856,-2.3139,-2.325,-2.3789,-2.4251,-2.4435,-2.4541,0.0,0.0,0.0,-2.3773,-2.3916,-2.4258,-2.5132,-2.656,-2.7755,-2.8929,-3.0019,-3.0747,-3.1437,-3.2039,-3.2593,-3.2919,-3.3073,-3.3425,0.0,0.0,0.0,0.0,0.0,0.0,0.0,0.0,0.0,0.0,0.0,0.0,0.0,0.0,0.0,0.0,0.0,0.0,0.0,0.0,0.0,0.0,0.0,0.0,0.0,0.0,0.0,0.0,0.0,0.0,0.0,0.0,0.0,0.0,0.0,0.0,0.0,0.0,0.0,-3.1616,-3.2399,-3.2423,-3.2612,-3.2323,0.0,0.0,0.0,0.0,0.0,0.0,0.0,0.0,0.0,-2.895,-2.9574,-2.9926,-2.9954,-2.9759,-2.9602,-2.948,-2.8799,-2.8585,-2.8782,-2.8652,-2.8679,-2.8876,-2.9071,-2.9504,-3.0138,-3.1029,-3.1062,-3.0474,0.0,0.0,0.0,0.0,-2.9942,-3.0097,0.0,0.0,0.0,0.0,0.0,0.0,0.0,0.0,0.0,0.0,0.0,0.0,-2.0992,-2.1223,-2.145,-2.1652,-2.2283,-2.2729,-2.2907,-2.3183,-2.3215,-2.2917,-2.288,-2.3004,-2.3271,-2.3998,-2.518,-2.6885,-2.7436,-2.8255,-2.9273,-3.0056,-3.0683,-3.1099,-3.1845,-3.2469,-3.3019,-3.3395,-3.3054,-3.2276,0.0,0.0,0.0,0.0,0.0,0.0,0.0,0.0,0.0,0.0,0.0,0.0,0.0,0.0,0.0,0.0,0.0,0.0,0.0,0.0,0.0,0.0,0.0,0.0,0.0,0.0,0.0,0.0,0.0,0.0,0.0,0.0,0.0,0.0,0.0,0.0,0.0,-3.1304,-3.2005,-3.2002,-3.2213,-3.2007,0.0,0.0,0.0,0.0,0.0,0.0,-2.8375,-2.8594,-2.8751,-2.8766,-2.9117,-2.9331,-2.9347,-2.8738,-2.8344,-2.8188,-2.7378,-2.711,-2.7296,-2.7069,-2.711,-2.7325,-2.7458,-2.7539,-2.7666,-2.9151,-2.956,-2.9258,-2.886,-2.8497,-2.8261,-2.8413,-2.8549,-2.8756,0.0,0.0,0.0,0.0,0.0,0.0,0.0,0.0,0.0,0.0,0.0,-1.9559,-1.9346,-1.9191,-1.9164,-1.9354,-1.9885,-2.0326,-2.0723,-2.1305,-2.1695,-2.1866,-2.2105,-2.2491,-2.3025,-2.455,-2.5729,-2.6539,-2.7072,-2.7853,-2.8817,-2.9288,-2.9744,-3.0227,-3.1139,-3.2064,-3.2868,-3.2318,-3.232,-3.266,-3.2771,0.0,0.0,0.0,0.0,0.0,0.0,0.0,0.0,0.0,0.0,0.0,0.0,0.0,0.0,0.0,0.0,0.0,0.0,0.0,0.0,0.0,0.0,0.0,0.0,0.0,0.0,0.0,0.0,0.0,0.0,0.0,0.0,0.0,0.0,0.0,0.0,0.0,0.0,-3.2414,-3.1968,0.0,0.0,0.0,0.0,-2.8775,-2.8422,-2.857,-2.9266,-2.8804,-2.8756,-2.9272,-2.8895,-2.8735,-2.8757,-2.7822,-2.736,-2.7349,-2.6151,-2.5748,-2.5979,-2.5706,-2.5748,-2.6021,-2.6021,-2.6021,-2.6135,-2.7804,-2.8195,-2.7698,-2.7403,-2.6966,-2.6598,-2.7097,-2.7275,-2.7424,0.0,0.0,0.0,0.0,0.0,0.0,0.0,0.0,-1.9851,-1.8955,-1.8519,-1.8011,-1.7269,-1.7329,-1.7459,-1.7579,-1.8222,-1.8756,-1.9051,-1.9728,-2.0111,-1.9992,-2.0596,-2.1557,-2.2963,-2.415,-2.5418,-2.6768,-2.7118,-2.7627,-2.8301,-2.924,-2.9548,-2.944,-3.0198,-3.0834,-3.1308,-3.1785,-3.1988,-3.1926,-3.1819,-3.1626,0.0,0.0,0.0,0.0,0.0,0.0,0.0,0.0,0.0,0.0,0.0,0.0,0.0,0.0,0.0,0.0,0.0,0.0,0.0,0.0,0.0,0.0,0.0,0.0,0.0,0.0,0.0,0.0,0.0,0.0,0.0,0.0,0.0,0.0,0.0,0.0,0.0,-3.1586,-3.1469,0.0,-3.1012,-3.0583,-3.0084,-2.9573,-2.9138,-2.8905,-2.8935,-2.8564,-2.8418,-2.8477,-2.8298,-2.8178,-2.7986,-2.7088,-2.656,-2.6404,-2.5225,-2.4786,-2.4978,-2.4786,-2.4786,-2.502,-2.502,-2.502,-2.5062,-2.5652,-2.6135,-2.6504,-2.6533,-2.635,-2.6105,-2.6285,-2.6463,-2.6626,0.0,0.0,0.0,0.0,0.0,0.0,0.0,0.0,-1.9254,-1.8217,-1.7248,-1.6435,-1.5759,-1.5615,-1.5617,-1.578,-1.6435,-1.6952,-1.7248,-1.797,-1.8398,-1.8411,-1.9425,-2.0751,-2.2376,-2.346,-2.4794,-2.6443,-2.6757,-2.7254,-2.7878,-2.8672,-2.8919,-2.8778,-2.9185,-2.9557,-2.9988,-3.0547,-3.0972,-3.1289,-3.1314,-3.1279,-3.1246,0.0,0.0,0.0,0.0,0.0,0.0,0.0,0.0,0.0,0.0,0.0,0.0,0.0,0.0,0.0,0.0,0.0,0.0,0.0,0.0,0.0,0.0,0.0,0.0,0.0,0.0,0.0,0.0,0.0,0.0,0.0,0.0,0.0,0.0,-2.9415,-2.999,-3.0662,-3.0565,-3.0516,-3.0645,-3.0344,-3.008,-2.9846,-2.9527,-2.9219,-2.8965,-2.8644,-2.8354,-2.8139,-2.7863,-2.7643,-2.7394,-2.6397,-2.5805,-2.5513,-2.4351,-2.397,-2.4166,-2.3927,-2.4013,-2.4251,-2.4209,-2.4209,-2.4251,-2.4079,-2.4466,-2.5211,-2.5454,-2.5454,-2.5348,-2.5348,-2.5422,-2.5527,0.0,0.0,0.0,0.0,0.0,0.0,-2.2032,-2.043,-1.8944,-1.7915,-1.6113,-1.485,-1.4743,-1.3967,-1.3563,-1.3889,-1.4371,-1.4824,-1.5316,-1.5944,-1.6601,-1.7212,-1.8718,-2.0052,-2.1161,-2.2483,-2.3909,-2.5509,-2.596,-2.6672,-2.7594,-2.7572,-2.7778,-2.8127,-2.8123,-2.8448,-2.9029,-2.8483,-2.9249,-3.0859,-3.1324,-3.1412,-3.1248,0.0,0.0,0.0,0.0,0.0,0.0,0.0,0.0,0.0,0.0,0.0,0.0,0.0,0.0,0.0,0.0,0.0,0.0,0.0,0.0,0.0,0.0,0.0,0.0,0.0,0.0,0.0,0.0,0.0,0.0,0.0,0.0,0.0,-2.7696,-2.8428,-2.9178,-2.9688,-2.9306,-2.9288,-3.0015,-2.9597,-2.9311,-2.9402,-2.9404,-2.9431,-2.9463,-2.9024,-2.8664,-2.8348,-2.7641,-2.7156,-2.686,-2.5714,-2.5051,-2.4736,-2.3609,-2.3242,-2.346,-2.3188,-2.3319,-2.3754,-2.3537,-2.359,-2.3711,-2.3276,-2.3363,-2.3797,-2.4067,-2.4163,-2.4206,-2.4206,-2.4206,-2.4249,0.0,0.0,0.0,0.0,0.0,0.0,-2.1865,-2.0419,-1.8946,-1.7597,-1.5906,-1.4467,-1.3533,-1.2804,-1.2445,-1.2559,-1.2863,-1.3281,-1.3909,-1.4413,-1.5108,-1.6085,-1.7186,-1.8578,-2.0232,-2.1497,-2.3169,-2.5274,-2.5577,-2.6146,-2.7109,-2.7406,-2.7398,-2.7222,-2.7562,-2.7748,-2.7717,-2.7902,-2.8413,-2.9044,-2.9556,-3.0319,-3.1101,0.0,0.0,0.0,0.0,0.0,0.0,0.0,0.0,0.0,0.0,0.0,0.0,0.0,0.0,0.0,0.0,0.0,0.0,0.0,0.0,0.0,0.0,0.0,0.0,0.0,0.0,0.0,0.0,0.0,0.0,0.0,-2.6794,-2.75,-2.7872,-2.8272,-2.8679,-2.8977,-2.9024,-2.9138,-2.9352,-2.9432,-2.9455,-2.9455,-2.9284,-2.9122,-2.9024,-2.8513,-2.7951,-2.7336,-2.6918,-2.639,-2.5761,-2.5118,-2.4539,-2.3998,-2.336,-2.2904,-2.2706,-2.2618,-2.2652,-2.2784,-2.275,-2.274,-2.2784,-2.2662,-2.2662,-2.2838,-2.345,-2.3764,-2.3894,-2.3894,-2.4024,-2.4206,0.0,0.0,0.0,0.0,0.0,0.0,-2.1721,-2.0322,-1.8923,-1.7483,-1.5922,-1.4484,-1.3295,-1.2578,-1.2106,-1.1897,-1.1892,-1.2143,-1.2644,-1.3047,-1.3611,-1.4352,-1.5369,-1.6756,-1.8537,-1.9739,-2.1462,-2.3774,-2.4329,-2.5105,-2.6071,-2.6523,-2.6714,-2.6645,-2.7029,-2.7107,-2.7036,-2.7403,-2.753,-2.7624,-2.8195,-2.9303,-3.0625,-3.0377,-3.0782,-3.1431,-3.131,-3.1385,-3.15,-3.1326,0.0,0.0,0.0,0.0,0.0,0.0,0.0,0.0,0.0,0.0,0.0,0.0,0.0,0.0,0.0,0.0,0.0,0.0,0.0,0.0,0.0,0.0,0.0,0.0,-2.6552,-2.7114,-2.7488,-2.7924,-2.8291,-2.8366,-2.8549,-2.8699,-2.8803,-2.8943,-2.8978,-2.8874,-2.8746,-2.8466,-2.8139,-2.7668,-2.7051,-2.6418,-2.6042,-2.5567,-2.4981,-2.4457,-2.3993,-2.3607,-2.3057,-2.2695,-2.2463,-2.2287,-2.224,-2.2329,-2.2073,-2.2043,-2.2087,-2.19,-2.1945,-2.2176,0.0,0.0,0.0,0.0,-2.3363,-2.3634,0.0,0.0,0.0,0.0,0.0,0.0,-2.1596,-2.0247,-1.8876,-1.7572,-1.615,-1.4801,-1.375,-1.2983,-1.2359,-1.1863,-1.1574,-1.1467,-1.1543,-1.186,-1.212,-1.2326,-1.3401,-1.4721,-1.634,-1.7574,-1.9285,-2.1505,-2.2501,-2.3586,-2.4688,-2.5246,-2.5771,-2.6229,-2.6393,-2.6611,-2.6778,-2.6917,-2.678,-2.6654,-2.7098,-2.8354,-2.987,-2.9861,-3.0501,-3.1356,-3.1092,-3.143,-3.1943,-3.168,0.0,0.0,0.0,0.0,0.0,0.0,0.0,0.0,0.0,0.0,0.0,0.0,0.0,0.0,0.0,0.0,0.0,0.0,0.0,0.0,0.0,0.0,0.0,0.0,-2.6305,-2.6612,-2.6737,-2.7373,-2.7799,-2.7857,-2.7857,-2.7904,-2.816,-2.8207,-2.8102,-2.7846,-2.7846,-2.761,-2.704,-2.663,0.0,0.0,0.0,-2.4637,-2.4332,-2.3785,-2.3438,-2.3393,-2.2799,-2.2515,-2.2422,-2.2057,-2.2006,-2.2172,-2.1599,-2.1428,-2.1553,-2.1177,-2.1266,-2.1687,-2.2132,-2.2309,-2.2309,-2.2309,-2.2485,-2.275,0.0,0.0,0.0,0.0,0.0,0.0,-2.171,-2.0505,-1.9333,-1.8315,-1.6864,-1.557,-1.4669,-1.3877,-1.3209,-1.2651,-1.227,-1.1711,-1.081,-1.0448,-1.0455,-1.081,-1.1657,-1.281,-1.4337,-1.5638,-1.7421,-1.961,-2.0674,-2.1933,-2.3285,-2.4066,-2.4674,-2.5231,-2.5581,-2.606,-2.6643,-2.6539,-2.653,-2.66,-2.6708,-2.7624,-2.8983,-2.8993,-2.9835,-3.0947,-3.0875,-3.1331,-3.1946,-3.1439,-3.1436,-3.1508,-3.0651,-3.0299,0.0,0.0,0.0,0.0,0.0,0.0,0.0,0.0,0.0,0.0,0.0,0.0,0.0,0.0,0.0,0.0,0.0,0.0,0.0,-2.5093,-2.5715,-2.6141,-2.6046,-2.63,-2.663,-2.7081,-2.6928,-2.6832,-2.688,-2.686,-2.6839,-2.6791,-2.6791,-2.6552,-2.6032,-2.5693,-2.5099,-2.4125,-2.3976,-2.3678,-2.3229,-2.3367,-2.322,-2.2859,-2.273,0.0,-2.2176,-2.1833,-2.1692,-2.1712,-2.1265,-2.1006,-2.088,-2.0952,-2.1042,-2.1177,-2.1642,-2.182,-2.182,-2.182,-2.1989,-2.2246,0.0,0.0,0.0,0.0,0.0,0.0,-2.1659,-2.0709,-1.9746,-1.8825,-1.7833,-1.6909,-1.5943,-1.5327,-1.4695,-1.4121,-1.2973,-1.176,-1.0463,-0.9899,-0.9628,-0.9678,-1.0284,-1.1197,-1.248,-1.363,-1.5218,-1.735,-1.879,-2.0237,-2.1735,-2.3061,-2.3985,-2.4548,-2.5367,-2.5922,-2.6263,-2.6636,-2.6602,-2.6261,-2.6625,-2.7142,-2.7707,-2.8114,-2.9072,-3.0144,-3.017,-3.0789,-3.1539,-3.1179,-3.1136,-3.1152,-3.0625,-3.0097,-2.9628,0.0,0.0,0.0,0.0,0.0,0.0,0.0,0.0,0.0,0.0,0.0,0.0,0.0,0.0,-2.4546,-2.4546,0.0,-2.4987,-2.5072,-2.5577,-2.5997,-2.6134,-2.601,-2.6052,-2.6448,-2.6149,-2.5897,-2.5897,-2.5684,-2.5421,-2.5294,-2.5044,-2.4678,-2.4251,-2.4008,-2.3568,-2.2888,-2.3024,-2.2979,-2.2677,-2.2887,-2.295,-2.2857,-2.2708,-2.2612,-2.2509,-2.1969,-2.179,-2.1857,-2.1254,-2.0871,-2.0699,-2.0645,-2.0736,-2.0871,-2.0961,-2.106,-2.1195,-2.132,-2.1365,-2.1445,0.0,0.0,0.0,0.0,0.0,0.0,0.0,-2.0944,-2.0193,-1.9375,-1.8903,-1.8273,-1.74,-1.6978,-1.6442,-1.5652,-1.3821,-1.21,-1.0686,-0.9824,-0.9276,-0.9063,-0.9245,-0.9854,-1.093,-1.1865,-1.329,-1.5273,-1.7116,-1.8832,-2.0377,-2.224,-2.35,-2.4331,-2.5528,-2.6083,-2.6222,-2.6908,-2.6717,-2.606,-2.6593,-2.6652,-2.6544,-2.7213,-2.8198,-2.9272,-2.9363,-3.0109,-3.1002,-3.0776,-3.0754,-3.0819,-3.0661,-3.008,-2.9418,-2.9271,-2.8908,0.0,0.0,0.0,0.0,0.0,0.0,0.0,0.0,-2.5745,-2.5376,-2.5067,-2.469,-2.4404,-2.4506,-2.4519,-2.4695,-2.5198,-2.5516,-2.5847,-2.6254,-2.5907,-2.5606,-2.5752,-2.5304,-2.4952,-2.4903,-2.4452,-2.4007,-2.3827,-2.326,-2.2841,-2.2598,-2.2284,-2.2031,-2.1765,-2.2112,-2.2357,-2.2426,-2.2594,-2.2795,-2.3097,-2.2846,-2.2846,-2.307,-2.2329,-2.2148,-2.2342,-2.1495,-2.1022,-2.0849,-2.0508,-2.0518,-2.0736,-2.051,-2.0518,-2.0654,-2.0826,-2.0781,-2.0699,0.0,0.0,0.0,0.0,0.0,0.0,0.0,0.0,-2.07,-2.0302,-1.9801,-1.9304,-1.8805,-1.8725,-1.8124,-1.6735,-1.5053,-1.3476,-1.2066,-1.0297,-0.9273,-0.9193,-0.8772,-0.9027,-1.0113,-1.0888,-1.2203,-1.4174,-1.6041,-1.7973,-1.9947,-2.1618,-2.3248,-2.4844,-2.5769,-2.6557,-2.7228,-2.7082,-2.6814,-2.6422,-2.6157,-2.6004,-2.5997,-2.62,-2.7206,-2.8495,-2.8691,-2.9514,-3.0428,-2.9977,-3.0182,-3.05,-2.9844,-2.9588,-2.9409,-2.8925,-2.8623,-2.8243,-2.747,-2.6754,-2.612,-2.5595,-2.5569,-2.5478,0.0,-2.4481,-2.4382,-2.3832,-2.3542,-2.3448,-2.3691,-2.3852,-2.4164,-2.4708,-2.5121,-2.5479,-2.5732,-2.5333,-2.4932,-2.4677,-2.4233,-2.3777,-2.3529,-2.302,-2.2728,-2.2677,-2.2324,-2.201,-2.1765,-2.1419,-2.1151,-2.0916,-2.1437,-2.1861,-2.2123,-2.2686,-2.3097,-2.3347,-2.3297,-2.3347,-2.3329,-2.2912,-2.2806,-2.3012,-2.1997,-2.1511,-2.1465,-2.0884,-2.0781,-2.0952,-2.0952,-2.069,-2.0337,-2.0382,-2.0374,-2.0428,0.0,0.0,0.0,0.0,0.0,0.0,0.0,0.0,0.0,-2.1282,-2.0996,-2.0645,-2.0247,-2.0133,-1.9493,-1.8014,-1.6746,-1.5174,-1.3308,-1.1551,-1.0304,-0.9692,-0.9322,-0.9424,-1.0171,-1.0917,-1.2208,-1.3926,-1.5654,-1.7538,-1.9523,-2.1279,-2.2905,-2.4456,-2.5448,-2.6378,-2.7155,-2.7063,-2.691,-2.6756,-2.6413,-2.6177,-2.6039,-2.6058,-2.6597,-2.736,-2.7707,-2.8416,0.0,-2.9126,-2.927,-2.9466,-2.915,-2.8824,-2.8563,-2.8367,-2.8117,-2.7651,-2.6474,-2.5685,-2.5132,-2.4669,-2.4754,-2.4841,-2.443,-2.4104,-2.3832,-2.3768,-2.3354,-2.3192,-2.3639,-2.3874,-2.418,-2.4734,-2.5071,-2.5382,-2.5635,-2.5088,-2.4538,-2.4084,-2.3279,-2.2778,-2.2828,-2.2232,-2.1827,-2.1827,-2.1189,-2.0712,-2.0614,-2.0296,-2.0126,-2.0168,-2.1113,-2.18,-2.2292,-2.3024,-2.3538,-2.3786,-2.3786,-2.3895,-2.4026,-2.3633,-2.3467,-2.3456,-2.2916,-2.2536,-2.2378,-2.1704,-2.1489,-2.1553,-2.1131,-2.0961,-2.0888,-2.0609,-2.0428,-2.0337,0.0,0.0,0.0,0.0,0.0,0.0,0.0,0.0,0.0,0.0,-2.2082,-2.1894,-2.1701,-2.1587,-2.1047,-1.9845,-1.8751,-1.7204,-1.5141,-1.332,-1.193,-1.1076,-1.0479,-1.048,-1.1075,-1.175,-1.2825,-1.4388,-1.5915,-1.7641,-1.9621,-2.1261,-2.2879,-2.4455,-2.5569,-2.6451,-2.7114,-2.7165,-2.7128,-2.6921,-2.6625,-2.6369,-2.6132,-2.6092,-2.6243,-2.6528,-2.6877,-2.7555,-2.8268,-2.8347,-2.846,-2.8593,-2.8503,-2.8264,-2.7998,-2.7904,-2.7573,-2.6884,-2.5503,-2.4746,-2.4225,-2.3687,-2.3886,-2.4152,-2.387,-2.3531,-2.3332,-2.3547,-2.3106,-2.2887,-2.3546,-2.3795,-2.4084,-2.4677,-2.4932,-2.5186,-2.544,-2.4833,-2.4196,-2.3633,-2.2622,-2.2021,-2.213,-2.1566,-2.1173,-2.1173,-2.0406,-1.9917,-1.9917,-1.9455,-1.9406,-1.9675,-2.0855,-2.181,-2.25,-2.3381,-2.3985,-2.4332,-2.4332,-2.443,-2.4627,-2.4377,-2.4172,-2.4023,-2.3852,-2.357,-2.3212,-2.262,-2.2253,-2.2034,-2.1545,-2.1383,-2.1347,-2.1024,-2.0699,-2.051,0.0,0.0,0.0,0.0,0.0,0.0,0.0,0.0,0.0,0.0,0.0,0.0,0.0,-2.3069,-2.288,-2.2413,-2.109,-1.9569,-1.7896,-1.5638,-1.4165,-1.3618,-1.2391,-1.2193,-1.3099,-1.3353,-1.4122,-1.5545,-1.6871,-1.8492,-2.0285,-2.179,-2.3447,-2.5241,-2.64,-2.7098,-2.7307,-2.7662,-2.743,-2.6886,-2.6468,-2.6277,-2.6276,-2.6132,-2.6088,-2.6139,-2.6509,-2.7123,-2.7764,-2.7579,-2.7858,-2.8298,-2.8063,-2.8008,-2.7951,-2.7678,-2.6918,-2.5897,-2.4805,-2.4165,-2.356,-2.2719,-2.2928,-2.307,-2.2482,-2.2612,-2.2797,-2.2778,-2.24,-2.2384,-2.3247,-2.3397,-2.3646,-2.4381,-2.4529,-2.4637,-2.4883,-2.448,-2.3898,-2.328,-2.2282,-2.1494,-2.1271,-2.103,-2.0917,-2.0917,-2.0265,-1.9917,-1.9917,-1.9217,-1.9095,-1.9667,-2.0614,-2.1659,-2.2784,-2.3628,-2.4332,-2.4883,-2.4883,-2.4883,-2.4883,-2.5118,-2.5109,-2.4875,-2.4746,-2.4383,-2.3838,-2.341,-2.2862,-2.2272,-2.2263,-2.1898,-2.1392,-2.1392,-2.1195,-2.0997,0.0,0.0,0.0,0.0,0.0,0.0,0.0,0.0,0.0,0.0,0.0,0.0,0.0,0.0,0.0,0.0,-2.2975,-2.1748,-2.0079,-1.8464,-1.7135,-1.6239,-1.5631,-1.5411,-1.5601,-1.6,-1.6653,-1.759,-1.8422,-1.9602,-2.1024,-2.2118,-2.337,-2.4783,-2.5897,-2.673,-2.7379,-2.7342,-2.7447,-2.7503,-2.6729,-2.6513,-2.6669,-2.6232,-2.6093,-2.6064,0.0,-2.6055,-2.6575,-2.6426,-2.675,-2.7196,-2.7447,-2.7394,-2.7167,-2.6524,-2.5849,-2.5128,-2.4233,-2.3429,-2.2839,-2.2442,-2.233,-2.2282,-2.2131,-2.1961,-2.2006,-2.2363,-2.2092,-2.2182,-2.3197,-2.3397,-2.3646,-2.439,-2.4332,-2.4332,-2.4587,-2.4035,-2.3345,-2.2726,-2.2036,-2.1402,-2.0858,-2.0668,-2.0567,-2.0567,-2.013,-1.9821,-1.9598,-1.9268,-1.9252,-1.9614,-2.0916,-2.2057,-2.2935,-2.4047,-2.4833,-2.5137,-2.499,-2.4981,-2.5186,-2.5235,-2.5342,-2.543,-2.5373,-2.517,-2.4792,-2.4183,-2.3738,-2.3268,-2.2584,-2.2154,-2.1962,-2.1707,-2.1553,-2.1463,0.0,0.0,0.0,0.0,0.0,0.0,0.0,0.0,0.0,0.0,0.0,0.0,0.0,0.0,0.0,0.0,0.0,-2.3861,-2.2476,-2.129,-2.0231,-1.9452,-1.8885,-1.8659,-1.8734,-1.8985,-1.9368,-1.9897,-2.0379,-2.1081,-2.2084,-2.2832,-2.3729,-2.4732,-2.579,-2.6615,-2.7158,-2.7224,-2.7382,-2.7584,-2.6832,-2.6568,-2.6557,-2.5956,-2.5682,0.0,-2.4859,-2.5033,-2.5577,-2.5684,-2.5973,-2.6418,-2.688,-2.6784,-2.6352,-2.5761,-2.5118,-2.448,-2.3786,-2.3079,-2.2435,-2.2185,-2.1988,-2.1881,-2.178,-2.1661,-2.1719,-2.219,-2.1941,-2.1946,-2.2845,-2.3044,-2.3242,-2.3785,-2.3845,-2.3886,-2.4093,-2.3587,-2.2997,-2.2481,-2.1827,-2.1258,-2.0765,-2.0451,-2.0361,-2.0441,-2.0168,-1.9878,-1.966,-1.9445,-1.9479,-1.9853,-2.1048,-2.2099,-2.298,-2.4037,-2.4741,-2.5137,-2.4981,-2.4981,-2.5137,-2.5235,-2.5382,-2.5538,-2.5635,-2.5538,-2.5265,-2.4851,-2.441,-2.3972,-2.3157,-2.2723,-2.2391,-2.2043,-2.1815,-2.1696,0.0,0.0,0.0,0.0,0.0,0.0,0.0,0.0,0.0,0.0,0.0,0.0,0.0,0.0,0.0,0.0,0.0,0.0,-2.5085,-2.4068,-2.3382,-2.314,-2.2146,-2.1869,-2.2415,-2.2155,-2.2186,-2.2449,-2.2624,-2.2916,-2.3286,-2.3846,-2.447,-2.5082,-2.6094,-2.664,-2.6721,-2.7235,-2.7374,-2.7162,-2.6708,-2.6417,-2.6159,-2.5412,-2.5041,-2.4772,-2.4065,-2.4238,-2.4845,-2.5288,-2.5597,-2.5886,-2.6318,-2.61,-2.5606,-2.5323,-2.4686,-2.3985,-2.3546,-2.2937,-2.2375,-2.1869,-2.1792,-2.18,-2.1478,-2.1635,-2.1949,-2.2185,-2.1895,-2.1749,-2.229,-2.2388,-2.2495,-2.2806,-2.3157,-2.3397,-2.3397,-2.3147,-2.2807,-2.2383,-2.163,-2.1063,-2.1029,-2.0456,-2.0248,-2.0594,-2.0297,-2.0091,-2.0121,-1.9807,-1.9853,-2.0337,-2.0991,-2.1897,-2.298,-2.3603,-2.4253,-2.4883,-2.4883,-2.4883,-2.4883,-2.5137,-2.5284,-2.5333,-2.5586,-2.5538,-2.5333,-2.5294,-2.4908,-2.4306,-2.4038,-2.3457,-2.2712,-2.2428,-2.2089,-2.1723,0.0,0.0,0.0,0.0,0.0,0.0,0.0,0.0,0.0,0.0,0.0,0.0,0.0,0.0,0.0,0.0,0.0,0.0,-2.7013,-2.67,-2.635,-2.5958,-2.5848,-2.5636,-2.5361,-2.5318,-2.5138,-2.4777,-2.4567,-2.4435,-2.4425,-2.4611,-2.4869,-2.524,-2.5947,-2.6335,-2.6578,-2.6908,-2.7063,-2.7026,-2.6917,-2.6758,-2.6596,-2.6099,-2.5864,-2.5637,-2.4588,-2.4458,-2.4704,-2.4705,-2.5151,-2.5701,-2.5635,-2.5528,-2.5323,-2.4833,-2.443,-2.3985,-2.3546,-2.2937,-2.2426,-2.2072,-2.185,-2.172,-2.1661,-2.1712,-2.1748,-2.1787,-2.1686,-2.1749,-2.229,-2.2388,-2.2623,-2.3408,-2.3285,-2.3147,-2.3347,-2.2787,-2.2197,-2.1849,-2.1427,-2.1104,-2.1006,-2.0615,-2.058,-2.0994,-2.061,-2.0293,-2.0263,-2.0343,-2.0518,-2.0817,-2.1616,-2.2427,-2.3205,-2.3968,-2.4436,-2.4587,-2.444,-2.4538,-2.4883,-2.4981,-2.5235,-2.5586,-2.5684,-2.5635,-2.5586,-2.5382,-2.5226,-2.4995,-2.4439,-2.3955,-2.3494,-2.2834,-2.24,-2.2089,0.0,0.0,0.0,0.0,0.0,0.0,0.0,0.0,0.0,0.0,0.0,0.0,0.0,0.0,0.0,0.0,0.0,0.0,0.0,-2.887,-2.8783,-2.8552,-2.8522,-2.835,-2.8014,-2.7958,-2.7695,-2.7201,-2.6786,-2.6356,-2.6029,-2.595,-2.5944,-2.6035,-2.6546,-2.6846,-2.7015,-2.7223,-2.7313,0.0,0.0,-2.6826,-2.664,-2.5851,-2.5464,-2.5288,-2.4424,-2.4122,-2.4172,-2.4097,-2.4573,-2.5167,-2.5128,-2.5039,-2.4883,-2.4587,-2.4242,-2.3895,-2.3646,-2.3247,-2.2837,-2.2526,-2.2325,-2.2131,-2.1871,-2.1887,-2.1886,-2.1571,-2.1465,-2.155,-2.1898,-2.1981,-2.22,-2.2888,-2.2891,-2.2846,-2.2846,-2.2434,-2.2005,-2.1662,-2.1404,-2.118,-2.1112,-2.0858,-2.081,-2.1014,-2.074,-2.0543,-2.0609,-2.0736,-2.0961,-2.132,-2.198,-2.2751,-2.3569,-2.4115,-2.439,-2.448,-2.439,-2.4538,-2.4883,-2.503,-2.5235,-2.5538,-2.5645,-2.5693,-2.5693,-2.5538,-2.5489,-2.5411,-2.4928,-2.4487,-2.402,-2.3458,-2.2825,-2.2245,0.0,0.0,0.0,0.0,0.0,0.0,0.0,0.0,0.0,0.0,-2.9991,0.0,0.0,0.0,0.0,0.0,0.0,0.0,0.0,0.0,-3.0734,-3.0734,-3.0572,-3.0469,-3.0469,-3.0247,-2.9967,-2.9615,-2.897,-2.8402,-2.786,-2.7503,-2.7286,-2.7103,-2.7469,-2.7652,-2.7652,-2.7808,-2.7748,-2.7506,-2.704,-2.6788,-2.6549,0.0,-2.4879,-2.4664,-2.4029,-2.3635,-2.3457,-2.3651,-2.4035,-2.443,-2.4686,-2.4637,-2.4489,-2.4489,-2.4192,-2.3895,-2.3895,-2.3696,-2.3497,-2.3129,-2.2994,-2.2763,-2.2195,-2.2181,-2.2091,-2.1557,-2.1315,-2.124,-2.1371,-2.1379,-2.1542,-2.1985,-2.2354,-2.2493,-2.2283,-2.2123,-2.1979,-2.1725,-2.1361,-2.118,-2.123,-2.1088,-2.1018,-2.0934,-2.0885,-2.0879,-2.1087,-2.1132,-2.1383,-2.1903,-2.239,-2.3066,-2.4019,-2.4196,-2.439,-2.4529,-2.4529,-2.4677,-2.4981,-2.5186,-2.5333,-2.5391,-2.5586,-2.5684,-2.5645,-2.5645,-2.5645,-2.5635,-2.5333,-2.4869,-2.4353,-2.4009,-2.3287,-2.2428,0.0,0.0,0.0,0.0,0.0,0.0,0.0,0.0,0.0,0.0,-3.0357,-3.0174,0.0,0.0,0.0,0.0,0.0,0.0,0.0,0.0,0.0,-3.2061,-3.2333,-3.2454,-3.2333,-3.2117,-3.1752,-3.1204,-3.0444,-2.9746,-2.9169,-2.8568,-2.8199,-2.806,-2.7986,-2.7865,-2.7764,-2.7798,-2.7595,-2.728,-2.7286,-2.7188,-2.6968,-2.6468,0.0,0.0,-2.4792,-2.3898,-2.3214,-2.366,-2.3845,-2.3954,-2.3994,-2.4102,-2.4291,-2.443,-2.443,-2.439,-2.439,-2.4341,-2.4233,-2.3985,-2.3493,-2.3037,-2.2925,-2.2513,-2.2034,-2.1637,-2.1375,-2.1209,-2.1223,-2.1341,-2.159,-2.223,-2.2453,-2.2644,-2.2846,-2.2232,-2.1776,-2.1725,-2.1269,-2.1041,-2.1237,-2.1221,-2.1328,-2.1693,-2.1526,-2.1489,-2.1571,-2.1776,-2.229,-2.3069,-2.3534,-2.3992,-2.4565,-2.4733,-2.4784,-2.4833,-2.4833,-2.4981,-2.5235,-2.5284,-2.544,-2.5635,-2.5684,-2.5586,-2.5391,-2.5391,-2.5391,-2.5333,-2.5079,-2.4894,-2.4741,-2.4111,-2.3647,-2.3187,0.0,0.0,0.0,0.0,0.0,0.0,0.0,-3.0387,-3.0387,-3.0568,-3.0568,-3.0507,-3.0371,-3.0492,-3.0657,0.0,0.0,0.0,0.0,0.0,0.0,0.0,-3.3324,-3.3491,-3.3569,-3.3361,-3.3077,-3.2721,0.0,-3.1275,-3.0719,-3.0013,-2.9518,-2.9188,-2.8931,-2.8753,-2.8578,-2.8495,-2.8268,-2.7934,-2.7764,-2.7586,-2.7357,0.0,0.0,0.0,-2.4685,-2.3963,-2.3473,-2.3205,-2.3238,-2.3408,-2.3718,-2.4044,-2.439,-2.4489,-2.4686,-2.4932,-2.4932,-2.503,-2.5069,-2.4784,-2.4221,-2.3618,-2.3128,-2.2537,-2.1862,-2.1241,-2.1024,-2.0994,-2.1148,-2.1152,-2.1402,-2.2119,-2.2259,-2.2311,-2.2402,-2.2114,-2.1878,-2.1725,-2.1471,-2.1377,-2.1522,-2.1627,-2.1753,-2.1955,-2.1896,-2.1826,-2.1789,-2.2323,-2.2917,-2.3553,-2.3926,-2.4355,-2.4793,-2.4739,-2.4833,-2.5088,-2.5088,-2.5235,-2.5489,-2.5489,-2.5586,-2.5693,-2.5693,-2.5538,-2.5284,-2.5284,-2.5235,-2.5088,-2.4932,-2.4833,-2.4658,-2.4315,-2.3916,-2.3435,0.0,0.0,0.0,0.0,0.0,0.0,0.0,-3.0538,-3.0447,-3.0612,-3.0732,-3.0791,-3.0702,-3.0821,-3.1029,0.0,0.0,0.0,0.0,0.0,0.0,0.0,0.0,0.0,-3.4423,0.0,0.0,-3.4052,-3.3266,0.0,0.0,0.0,0.0,0.0,-2.9976,-2.9651,-2.9404,-2.9275,-2.9004,0.0,0.0,-2.8052,0.0,0.0,0.0,0.0,0.0,-2.4361,-2.4019,-2.3215,-2.3027,-2.3193,-2.3645,-2.3984,-2.4296,-2.4478,-2.4791,-2.5131,-2.5363,-2.5624,-2.5759,-2.5528,-2.4909,-2.4165,-2.3336,-2.2519,-2.167,-2.0941,-2.0736,-2.0832,-2.1092,-2.1093,-2.1249,-2.1875,-2.2014,-2.1991,-2.197,-2.2028,-2.1988,-2.1818,-2.1776,-2.1776,-2.1776,-2.2072,-2.2231,-2.207,-2.2127,-2.2149,-2.207,-2.2693,-2.3294,-2.3795,-2.4193,-2.4573,-2.4981,-2.4833,-2.499,-2.5391,-2.5391,-2.5489,-2.5693,-2.5693,-2.5693,-2.5693,-2.5635,-2.544,-2.5186,-2.5137,-2.4981,-2.4784,-2.4784,-2.4637,-2.448,-2.443,-2.4088,-2.3511,0.0,0.0,0.0,0.0,0.0,0.0,0.0,-3.0836,-3.0762,-3.0791,-3.0791,-3.0866,-3.1043,-3.1176,-3.1365,0.0,0.0,0.0,0.0,0.0,0.0,0.0,0.0,0.0,0.0,0.0,0.0,-3.4787,-3.4177,0.0,0.0,0.0,0.0,0.0,0.0,-3.0235,-2.9747,-2.962,0.0,0.0,0.0,0.0,0.0,0.0,0.0,0.0,0.0,-2.5642,-2.4866,-2.4522,-2.4154,-2.3802,-2.3683,-2.3533,-2.357,-2.4422,-2.4581,-2.4666,-2.5538,-2.594,-2.6127,-2.607,-2.5252,-2.4361,-2.384,-2.2538,-2.1338,-2.1051,-2.0952,-2.0961,-2.0996,-2.1306,-2.1571,-2.1653,-2.1896,-2.2123,-2.2278,-2.2053,-2.1951,-2.2038,-2.2072,-2.2072,-2.2072,-2.2526,-2.2672,-2.2299,-2.2407,-2.2487,-2.262,-2.2875,-2.3371,-2.424,-2.4498,-2.4871,-2.5284,-2.5489,-2.5586,-2.5635,-2.5635,-2.5684,-2.5693,-2.5693,-2.5693,-2.5693,-2.544,-2.5186,-2.4932,-2.4677,-2.4578,-2.4529,-2.435,-2.4341,-2.448,-2.4301,-2.4026,-2.3696,0.0,0.0,0.0,0.0,0.0,0.0,-3.1495,-3.1248,-3.1058,-3.0984,-3.1058,-3.1146,-3.1205,-3.1322,-3.1452,-3.1581,0.0,0.0,0.0,0.0,0.0,0.0,0.0,0.0,0.0,0.0,-3.5251,-3.5327,-3.4794,0.0,0.0,0.0,0.0,0.0,0.0,-3.0881,-3.0387,-3.0036,0.0,0.0,0.0,0.0,0.0,0.0,0.0,0.0,0.0,0.0,-2.6134,-2.541,-2.4841,-2.4412,-2.4201,-2.391,-2.3709,-2.4343,-2.4792,-2.5153,-2.5712,-2.6038,-2.62,-2.6154,-2.5431,-2.4566,-2.3952,-2.2777,-2.1696,-2.1338,-2.1096,-2.1042,-2.1195,-2.1229,-2.1327,-2.1617,-2.1721,-2.1837,-2.2034,-2.2026,-2.2122,-2.2446,-2.244,-2.2585,-2.287,-2.3088,-2.2982,-2.246,-2.2616,-2.2737,-2.2815,-2.3261,-2.3682,-2.4067,-2.4417,-2.4722,-2.5088,-2.5186,-2.5382,-2.5693,-2.5693,-2.5693,-2.5693,-2.5693,-2.5693,-2.5693,-2.544,-2.5137,-2.4883,-2.4627,-2.444,-2.4301,-2.4251,-2.4251,-2.4301,-2.4053,-2.3895,-2.3692,0.0,0.0,0.0,0.0,0.0,-3.2563,-3.2035,-3.1739,-3.1496,-3.1292,-3.1322,-3.1365,-3.1438,-3.1467,-3.1496,-3.1495,-3.1938,0.0,0.0,0.0,0.0,0.0,0.0,0.0,0.0,0.0,-3.5452,-3.56,-3.5258,-3.5008,0.0,0.0,-3.3449,-3.2857,0.0,0.0,0.0,0.0,0.0,0.0,0.0,0.0,0.0,0.0,0.0,0.0,0.0,0.0,0.0,0.0,0.0,-2.5253,-2.5009,-2.4594,-2.4285,-2.4556,-2.4922,-2.531,-2.5757,-2.6091,-2.6337,-2.6303,-2.574,-2.5005,-2.4262,-2.3216,-2.2264,-2.1741,-2.1499,-2.1454,-2.1472,-2.1419,-2.141,-2.1651,-2.1654,-2.1696,-2.1896,-2.1971,-2.2159,-2.25,-2.2691,-2.2966,-2.33,-2.3269,-2.3125,-2.2828,-2.2882,-2.2959,-2.3068,-2.3655,-2.3964,-2.3964,-2.434,-2.4578,-2.4784,-2.4932,-2.5186,-2.5586,-2.5635,-2.5693,-2.5693,-2.5635,-2.5586,-2.5538,-2.5235,-2.4981,-2.4784,-2.4538,-2.4341,-2.4202,-2.4202,-2.4152,-2.4053,-2.3854,-2.3624,-2.3291,0.0,0.0,0.0,0.0,0.0,0.0,-3.2683,-3.237,-3.2079,-3.1739,-3.1581,-3.1552,-3.1756,-3.1626,-3.1511,-3.1511,-3.1925,0.0,0.0,0.0,0.0,0.0,0.0,0.0,0.0,0.0,-3.552,-3.56,-3.56,-3.5515,-3.5379,-3.4857,-3.4235,-3.3553,0.0,0.0,0.0,0.0,0.0,0.0,0.0,0.0,0.0,0.0,0.0,0.0,0.0,0.0,0.0,0.0,0.0,0.0,0.0,-2.5569,-2.5211,-2.5186,-2.4869,-2.4686,-2.5558,-2.6195,-2.6594,-2.6584,-2.6249,-2.5686,-2.4941,-2.3893,-2.2877,-2.2227,-2.2246,-2.2264,-2.1776,-2.1919,-2.2008,-2.1741,-2.1696,-2.1743,-2.1897,-2.1914,-2.1974,-2.2102,-2.2676,-2.3111,-2.3111,-2.2999,-2.3078,-2.3462,-2.3123,-2.3078,-2.3471,-2.3923,-2.4202,-2.4202,-2.439,-2.448,-2.448,-2.503,-2.5284,-2.5294,-2.5586,-2.5693,-2.5684,-2.544,-2.5284,-2.5284,-2.4735,-2.4538,-2.4489,-2.4301,-2.4202,-2.4202,-2.4202,-2.4053,-2.3805,-2.3805,-2.3215,-2.2397,0.0,0.0,0.0,0.0,0.0,0.0,0.0,-3.2807,-3.2465,-3.2107,-3.1994,-3.1938,-3.1813,-3.1727,-3.167,-3.1511,-3.1769,0.0,0.0,0.0,0.0,0.0,0.0,0.0,0.0,-3.5198,-3.5498,-3.5751,-3.6332,-3.6598,-3.6571,-3.6663,-3.6083,-3.4933,-3.4086,-3.2922,0.0,0.0,0.0,0.0,0.0,0.0,-3.0775,0.0,0.0,0.0,0.0,0.0,0.0,0.0,0.0,0.0,0.0,0.0,0.0,-2.5859,-2.5455,-2.5073,-2.5562,-2.5902,-2.6156,-2.6293,-2.6229,-2.5954,-2.5402,-2.4763,-2.4059,-2.3387,-2.3047,-2.275,-2.2264,-2.1998,-2.1741,-2.1517,-2.1482,-2.1518,-2.1554,-2.1699,-2.1889,-2.2197,-2.2888,-2.3502,-2.3834,-2.335,-2.3072,-2.3238,-2.3091,-2.3072,-2.3238,-2.3834,-2.4202,-2.4202,-2.4251,-2.4341,-2.448,-2.4686,-2.4932,-2.5284,-2.5391,-2.5538,-2.5684,-2.544,-2.5284,-2.5284,-2.4735,-2.448,-2.448,-2.4291,-2.4202,-2.4202,-2.4202,-2.4053,-2.3805,-2.3596,-2.3058,-2.2345,0.0,0.0,0.0,0.0,0.0,0.0,0.0,-3.3393,-3.306,-3.2594,-3.2441,-3.2274,-3.2038,-3.1898,-3.1846,-3.1927,-3.203,0.0,0.0,0.0,0.0,0.0,0.0,0.0,-3.4667,-3.5058,-3.5541,-3.6192,-3.6841,-3.7334,-3.7671,-3.7876,-3.7376,-3.6282,-3.5415,-3.4219,0.0,0.0,0.0,0.0,0.0,0.0,-3.095,0.0,0.0,0.0,0.0,0.0,0.0,0.0,0.0,0.0,0.0,0.0,0.0,0.0,-2.5926,-2.5506,-2.5686,-2.5864,-2.6021,-2.6157,-2.6177,-2.6082,-2.5717,-2.5274,-2.4765,-2.41,-2.358,-2.3057,-2.2397,-2.1954,-2.1597,-2.1293,-2.1347,-2.1392,-2.1392,-2.1562,-2.1897,-2.2446,-2.3096,-2.3703,-2.4165,-2.363,-2.3311,-2.3514,-2.3338,-2.332,-2.3514,-2.3965,-2.4202,-2.4202,-2.4202,-2.4251,-2.439,-2.444,-2.4686,-2.4981,-2.5186,-2.5391,-2.5538,-2.5284,-2.5137,-2.5137,-2.4587,-2.439,0.0,-2.4251,-2.4202,-2.4202,-2.4202,-2.3954,-2.3628,-2.3286,-2.2689,-2.1964,0.0,0.0,0.0,0.0,0.0,0.0,0.0,-3.4032,-3.3736,-3.3203,-3.2834,-3.2574,-3.2425,-3.2083,-3.213,-3.2644,0.0,0.0,0.0,0.0,0.0,0.0,0.0,0.0,-3.4397,-3.4903,-3.5703,-3.6857,-3.7262,-3.7885,-3.8681,-3.8608,-3.8246,-3.7591,-3.672,-3.5577,-3.4221,-3.2373,-3.1479,-3.13,-3.1092,-3.1103,0.0,0.0,0.0,0.0,0.0,0.0,0.0,0.0,0.0,0.0,0.0,0.0,0.0,0.0,0.0,0.0,0.0,-2.6054,-2.6199,-2.6199,-2.6199,-2.6104,-2.5937,-2.5506,0.0,-2.4325,-2.3807,-2.3188,-2.2274,-2.1874,-2.1508,-2.1042,-2.1195,-2.1347,-2.1347,-2.1544,-2.2025,-2.2812,-2.3281,-2.3666,-2.4119,-2.3767,-2.3712,-2.4125,-2.3755,-2.37,-2.4134,-2.4202,-2.4202,-2.4202,-2.4202,-2.4202,-2.4202,-2.439,-2.4489,-2.4538,-2.503,-2.5284,-2.5284,-2.5039,-2.4932,-2.4883,-2.4449,-2.4202,-2.4202,-2.4202,-2.4202,-2.4202,-2.4202,-2.3845,-2.3352,-2.297,-2.2232,-2.1362,0.0,0.0,0.0,0.0,0.0,0.0,0.0,0.0,0.0,0.0,-3.316,-3.2823,-3.2453,-3.2678,-3.283,0.0,0.0,0.0,0.0,0.0,0.0,0.0,0.0,0.0,-3.5588,-3.5509,-3.6075,-3.7263,-3.8417,-3.9135,-3.9457,-4.021,-3.9928,-3.8764,-3.7994,-3.6185,-3.3638,-3.2739,-3.1915,-3.1224,-3.1073,-3.0944,0.0,0.0,0.0,0.0,-3.0279,-2.9947,0.0,0.0,0.0,0.0,0.0,0.0,0.0,0.0,-2.657,-2.5983,-2.6354,0.0,-2.5979,-2.5979,-2.5979,-2.5895,0.0,-2.5411,-2.5031,-2.4348,-2.3637,-2.2984,-2.223,-2.1597,-2.1096,-2.0826,-2.0835,-2.0835,-2.0835,-2.1463,-2.2254,-2.3084,-2.3279,-2.3492,-2.3938,-2.3699,-2.3615,-2.3868,-2.3813,-2.3804,-2.3895,-2.4102,-2.4202,-2.4202,-2.4202,-2.4202,-2.4202,-2.4251,-2.4341,-2.448,-2.4833,-2.5088,-2.5284,-2.5235,-2.5079,-2.4883,-2.4587,-2.4341,-2.4202,-2.4202,-2.4202,-2.4202,-2.4202,-2.3845,-2.3352,-2.297,-2.2232,-2.1306,0.0,0.0,0.0,0.0,0.0,0.0,0.0,0.0,0.0,0.0,0.0,-3.3214,-3.2769,-3.3069,0.0,0.0,0.0,0.0,0.0,0.0,0.0,0.0,0.0,-3.4995,-3.5888,-3.6007,-3.6678,-3.7936,-3.8952,-3.9725,-4.0273,-4.0874,-4.0653,-3.9756,-3.8602,-3.6892,-3.4773,-3.3875,-3.2928,-3.2009,-3.1583,0.0,0.0,0.0,0.0,0.0,-2.9677,-2.9365,0.0,-2.8736,-2.8379,-2.8014,0.0,0.0,0.0,0.0,-2.7092,-2.6605,-2.6867,-2.6345,-2.5728,-2.5591,-2.5506,-2.538,-2.5105,-2.4807,-2.438,-2.38,-2.3115,-2.2422,-2.1722,-2.1186,-2.0736,-2.0382,-2.0518,-2.0806,-2.1081,-2.1824,-2.2481,-2.2904,-2.3116,-2.333,-2.3605,-2.3533,-2.359,-2.381,-2.3943,-2.4003,-2.4003,-2.4102,-2.4202,-2.4202,-2.4202,-2.4202,-2.4202,-2.4202,-2.4242,-2.439,-2.4735,-2.4981,-2.5137,-2.5235,-2.5235,-2.5088,-2.4686,-2.444,-2.4341,-2.4251,-2.4202,-2.4202,-2.4053,-2.3755,-2.3352,-2.2823,-2.2087,-2.1306,0.0,0.0,0.0,0.0,0.0,0.0,0.0,0.0,0.0,0.0,0.0,0.0,0.0,0.0,0.0,0.0,0.0,0.0,0.0,0.0,0.0,0.0,-3.5115,-3.5297,-3.5959,-3.6405,-3.7308,-3.8621,-3.9189,-3.9925,-4.0847,-4.1023,-4.0864,-4.0395,-3.892,-3.7634,-3.6492,-3.529,-3.4143,-3.308,-3.23,0.0,0.0,0.0,0.0,0.0,0.0,0.0,0.0,-2.8339,-2.7926,-2.751,-2.7944,0.0,0.0,0.0,0.0,0.0,-2.7269,-2.6476,-2.554,-2.5307,-2.5041,-2.469,-2.4423,-2.3993,-2.357,-2.3062,-2.2432,-2.1785,-2.1087,-2.0788,-2.0514,-2.0066,-2.0429,-2.0968,-2.1584,-2.2249,-2.2646,-2.2604,-2.285,-2.3126,-2.327,-2.3389,-2.3553,-2.3875,-2.4063,-2.4187,-2.4202,-2.4202,-2.4202,-2.4202,-2.4202,-2.4202,-2.4202,-2.4202,-2.4202,-2.4202,-2.4695,-2.4883,-2.4932,-2.5235,-2.5333,-2.5284,-2.4833,-2.4578,-2.4489,-2.4341,-2.4251,-2.4152,-2.3904,-2.3646,-2.3302,-2.2675,-2.2025,-2.1439,0.0,0.0,0.0,0.0,0.0,0.0,0.0,0.0,0.0,0.0,0.0,0.0,0.0,0.0,0.0,0.0,0.0,0.0,0.0,0.0,0.0,-3.5213,-3.5308,-3.5778,-3.6698,-3.6819,-3.7485,-3.8777,-3.9408,-4.001,-4.0583,-4.0912,-4.0799,-4.0212,-3.9295,-3.8306,-3.7338,-3.6136,-3.4919,-3.3754,-3.2712,0.0,0.0,0.0,0.0,0.0,0.0,0.0,0.0,-2.7592,-2.7348,-2.7196,-2.693,0.0,0.0,0.0,0.0,0.0,-2.7241,-2.6485,-2.5589,-2.5546,-2.4906,-2.4196,-2.3754,-2.3406,-2.3047,-2.2397,-2.1874,-2.1347,-2.0835,-2.0612,-2.0509,-2.0416,-2.0715,-2.1188,-2.1862,-2.2212,-2.2606,-2.2973,-2.2969,-2.3024,-2.3298,-2.3149,-2.3308,-2.3877,-2.394,-2.4038,-2.4183,-2.4202,-2.4202,-2.4202,-2.4202,-2.4202,-2.4202,-2.4202,-2.4202,-2.4202,-2.4695,-2.4883,-2.4932,-2.543,-2.5489,-2.5284,-2.5235,-2.4932,-2.448,-2.4489,-2.4341,-2.4152,-2.3904,-2.3646,-2.3302,-2.2675,-2.2207,-2.1758,0.0,0.0,0.0,0.0,0.0,0.0,0.0,0.0,0.0,0.0,0.0,0.0,0.0,0.0,0.0,0.0,0.0,0.0,0.0,0.0,-3.4968,-3.4783,-3.5096,-3.5901,-3.7204,-3.7596,-3.8392,-3.9666,-4.031,-4.0852,-4.1315,-4.1271,-4.0861,-4.0129,-3.9418,-3.8684,-3.7908,-3.6843,-3.571,-3.4499,0.0,0.0,0.0,0.0,0.0,0.0,0.0,0.0,0.0,0.0,-2.6981,-2.6697,-2.678,0.0,0.0,0.0,0.0,0.0,-2.6756,-2.6078,-2.5324,-2.5114,-2.4523,-2.3911,-2.3526,-2.3264,-2.2853,-2.2197,-2.1753,-2.1317,-2.0598,-2.0617,-2.0708,-2.076,-2.0847,-2.1048,-2.1477,-2.1819,-2.206,-2.2201,-2.2311,-2.2432,-2.2518,-2.2788,-2.3094,-2.3383,-2.3728,-2.392,-2.4008,-2.4131,-2.4202,-2.4202,-2.4202,-2.4202,-2.4202,-2.4202,-2.4202,-2.4202,-2.4695,-2.4883,-2.4932,-2.544,-2.5635,-2.5489,-2.5333,-2.5137,-2.4883,-2.4637,-2.444,-2.4291,-2.3795,-2.3506,-2.3302,-2.2478,-2.1956,-2.1505,0.0,0.0,0.0,0.0,0.0,0.0,0.0,0.0,0.0,0.0,0.0,0.0,0.0,0.0,0.0,0.0,0.0,0.0,0.0,-3.5016,-3.4817,-3.4346,-3.4716,-3.5675,-3.722,-3.7904,-3.8884,-4.0164,-4.0785,-4.1288,-4.1698,-4.1414,-4.0849,-4.0037,-3.954,-3.9001,-3.8407,-3.756,-3.6554,-3.5355,0.0,0.0,0.0,0.0,0.0,0.0,0.0,0.0,0.0,0.0,0.0,0.0,0.0,0.0,0.0,-2.6515,-2.653,-2.6446,-2.6132,-2.5554,-2.4927,-2.4539,-2.4111,-2.3677,-2.3387,-2.3133,-2.2787,-2.2197,-2.1826,-2.1412,-2.0701,-2.0781,-2.0974,-2.1085,-2.0982,-2.0963,-2.1179,-2.151,-2.1668,-2.1545,-2.1742,-2.1942,-2.206,-2.2497,-2.2852,-2.3126,-2.3477,-2.3727,-2.3875,-2.4036,-2.415,-2.4202,-2.4202,-2.4202,-2.4202,-2.4202,-2.4202,-2.4301,-2.4686,-2.4932,-2.499,-2.5489,-2.5693,-2.5693,-2.5489,-2.5333,-2.5284,-2.4883,-2.4627,-2.443,-2.3786,-2.3447,-2.3211,-2.2425,-2.1884,-2.1442,0.0,0.0,0.0,0.0,0.0,0.0,0.0,0.0,0.0,0.0,0.0,0.0,0.0,0.0,0.0,0.0,0.0,0.0,0.0,-3.4716,-3.4346,-3.4128,-3.4162,-3.4893,-3.645,-3.7203,-3.8199,-3.9487,-4.0118,-4.0574,-4.0799,-4.0959,-4.0634,-3.9901,-3.9729,-3.9398,-3.8914,-3.8407,-3.7528,-3.6384,-3.521,0.0,0.0,0.0,0.0,0.0,0.0,0.0,0.0,0.0,0.0,0.0,0.0,0.0,-2.5869,-2.5453,-2.5633,-2.584,-2.5407,-2.4947,-2.4415,-2.3969,-2.3795,-2.3596,-2.3128,-2.2991,-2.2764,-2.2274,-2.199,-2.1696,-2.1384,-2.1216,-2.1197,-2.129,-2.1269,-2.1285,-2.1285,-2.1514,-2.1717,-2.1692,-2.1786,-2.2109,-2.2585,-2.2467,-2.2704,-2.3597,-2.3295,-2.3298,-2.3895,-2.3912,-2.401,-2.4183,-2.4202,-2.4202,-2.4202,-2.4202,-2.4301,-2.448,-2.4784,-2.503,-2.5284,-2.5586,-2.5693,-2.5693,-2.5684,-2.5538,-2.5284,-2.5235,-2.4941,-2.4489,-2.4183,-2.3637,-2.2996,-2.2669,-2.2319,-2.1852,0.0,0.0,0.0,0.0,0.0,0.0,0.0,0.0,0.0,0.0,0.0,0.0,0.0,0.0,0.0,0.0,0.0,0.0,0.0,-3.4868,-3.4501,-3.402,-3.4074,-3.4741,-3.6184,-3.7045,-3.8333,-4.0078,-4.1214,-4.1692,-4.1486,-4.1338,-4.085,-4.0101,-3.9518,-3.9158,-3.8969,-3.8556,-3.7796,-3.6828,-3.5742,-3.4437,0.0,0.0,0.0,0.0,0.0,0.0,0.0,0.0,-2.603,-2.538,-2.4914,-2.4697,-2.4571,-2.4387,-2.4378,-2.4333,-2.3989,-2.3649,-2.3344,-2.3034,-2.2858,-2.285,-2.2927,-2.2935,-2.2788,-2.2408,-2.2259,-2.2065,-2.1822,-2.1459,-2.1279,-2.1523,-2.1275,-2.107,-2.107,-2.1121,-2.1224,-2.1224,-2.1407,-2.1637,-2.1946,-2.2083,-2.2387,-2.2981,-2.3005,-2.3294,-2.3928,-2.3927,-2.407,-2.4381,-2.4251,-2.4202,-2.4202,-2.4341,-2.4489,-2.4735,-2.4833,-2.5039,-2.5294,-2.5586,-2.5693,-2.5693,-2.5693,-2.5635,-2.5538,-2.5391,-2.5088,-2.4686,-2.3945,-2.3397,-2.2946,-2.2695,-2.2212,-2.1683,0.0,0.0,0.0,0.0,0.0,0.0,0.0,0.0,0.0,0.0,0.0,0.0,0.0,0.0,0.0,0.0,0.0,0.0,-3.5297,-3.5001,-3.4582,-3.3985,-3.4005,-3.4663,-3.605,-3.6761,-3.8152,-4.025,-4.1607,-4.2073,-4.1671,-4.1494,-4.1046,-4.0322,-3.9773,-3.9504,-3.942,-3.9227,-3.8675,-3.782,-3.6659,-3.5377,0.0,0.0,0.0,0.0,0.0,0.0,0.0,0.0,-2.5904,-2.5115,-2.4572,-2.4067,-2.3667,-2.3624,-2.345,-2.3242,-2.2969,-2.2794,-2.2574,-2.2264,-2.2113,-2.2089,-2.2353,-2.2521,-2.2583,-2.2484,-2.2315,-2.2109,-2.1919,-2.1528,-2.1302,-2.154,-2.1173,-2.0925,-2.0925,-2.0925,-2.0917,-2.1019,-2.1275,-2.1525,-2.1778,-2.2108,-2.244,-2.2778,-2.2941,-2.3273,-2.3969,-2.3947,-2.4123,-2.447,-2.439,-2.4301,-2.4301,-2.444,-2.4686,-2.5039,-2.5039,-2.5186,-2.543,-2.5635,-2.5693,-2.5693,-2.5693,-2.5693,-2.5693,-2.5489,-2.5235,-2.4833,-2.3945,-2.3397,-2.3097,-2.2846,-2.2389,-2.186,0.0,0.0,0.0,0.0,0.0,0.0,0.0,0.0,0.0,0.0,0.0,0.0,0.0,0.0,0.0,0.0,0.0,0.0,-3.5432,-3.4968,-3.4515,-3.4128,-3.3985,-3.4573,-3.5985,-3.6208,-3.7443,-3.9681,-4.0972,-4.1388,-4.1022,-4.1334,-4.1116,-4.0421,-4.0599,-4.0569,-4.0404,-4.0599,-4.0285,-3.9579,-3.8106,-3.6723,-3.5395,0.0,0.0,0.0,0.0,0.0,0.0,0.0,-2.5946,-2.5073,-2.4411,-2.3894,-2.346,-2.3188,-2.2925,-2.2715,-2.2485,-2.2397,-2.2264,-2.183,-2.1553,-2.1391,-2.1385,-2.1713,-2.209,-2.2399,-2.2072,-2.1674,-2.1725,-2.1471,-2.1326,-2.1326,-2.107,-2.0925,-2.0925,-2.0925,-2.1027,-2.1267,-2.1522,-2.1928,-2.2426,-2.2638,-2.2844,-2.327,-2.311,-2.3319,-2.3959,-2.3988,-2.4146,-2.451,-2.4538,-2.448,-2.448,-2.4538,-2.4784,-2.5284,-2.5284,-2.544,-2.5693,-2.5693,-2.5693,-2.5693,-2.5693,-2.5693,-2.5693,-2.5693,-2.5382,-2.4833,-2.4332,-2.3786,-2.3347,-2.3097,-2.2846,-2.2492,0.0,0.0,0.0,0.0,0.0,0.0,0.0,0.0,0.0,0.0,0.0,0.0,0.0,0.0,0.0,0.0,0.0,0.0,-3.5432,-3.5052,-3.4635,-3.4128,-3.4059,-3.4649,-3.5985,-3.7223,-3.8465,-3.9681,-4.0612,-4.1046,-4.1075,-4.0896,-4.0674,-4.0451,-4.0052,-3.9891,-3.989,-3.986,-3.9675,-3.9251,-3.8361,-3.7126,-3.5668,0.0,0.0,0.0,0.0,0.0,0.0,0.0,0.0,0.0,-2.454,-2.3764,-2.3203,-2.3051,-2.2535,-2.2019,-2.2025,-2.1962,-2.1743,-2.1423,-2.1395,-2.1341,-2.1209,-2.1258,-2.1374,-2.1601,-2.1369,-2.1173,-2.1369,-2.1224,-2.107,-2.1275,-2.1224,-2.1173,-2.1173,-2.1326,-2.1471,-2.1573,-2.1674,-2.1827,-2.2173,-2.2341,-2.2602,-2.2988,-2.3165,-2.3647,-2.4533,-2.4368,-2.4617,-2.5333,-2.4971,-2.4784,-2.4784,-2.499,-2.5137,-2.5284,-2.5489,-2.5635,-2.5693,-2.5693,-2.5693,-2.5693,-2.5693,-2.5693,-2.5693,-2.5489,-2.5235,-2.4833,-2.4332,-2.3945,-2.3655,-2.3147,-2.2787,-2.2467,0.0,0.0,0.0,0.0,0.0,0.0,0.0,0.0,0.0,0.0,-3.919,0.0,0.0,0.0,0.0,0.0,0.0,0.0,-3.5544,-3.5136,-3.4735,-3.4332,-3.4456,-3.5072,-3.6251,-3.7643,-3.8612,-3.909,-3.995,-4.0474,-4.0734,-4.0667,-4.0629,-4.0614,-4.0189,-4.005,-4.0132,-3.9986,-3.9774,-3.953,-3.8687,-3.768,-3.6521,0.0,0.0,0.0,0.0,0.0,0.0,0.0,0.0,0.0,-2.469,-2.3701,-2.293,-2.269,-2.2148,-2.1608,-2.1623,-2.1554,-2.1404,-2.1186,-2.1099,-2.1019,-2.0897,-2.084,-2.0808,-2.0821,-2.0704,-2.0652,-2.0806,-2.0763,-2.0771,-2.0968,-2.107,-2.1173,-2.1275,-2.142,-2.1623,-2.1818,-2.1878,-2.1979,-2.2283,-2.2579,-2.277,-2.2902,-2.3372,-2.3977,-2.4736,-2.4654,-2.4908,-2.5664,-2.5265,-2.5088,-2.5088,-2.5235,-2.5333,-2.544,-2.5635,-2.5693,-2.5693,-2.5693,-2.5693,-2.5693,-2.5693,-2.5693,-2.5693,-2.5538,-2.5284,-2.503,-2.4587,-2.4192,-2.3895,-2.3447,-2.3046,-2.2686,0.0,0.0,0.0,0.0,0.0,0.0,0.0,0.0,0.0,0.0,-4.0373,-3.9817,0.0,0.0,0.0,0.0,0.0,0.0,0.0,-3.5216,-3.4865,-3.4752,-3.5094,-3.5705,-3.6668,-3.7659,-3.8165,-3.8165,-3.9162,-3.9824,-4.0146,-4.0509,-4.0696,-4.073,-4.073,-4.073,-4.0696,-4.0493,-4.027,-4.0015,-3.9013,-3.8271,-3.7575,-3.5845,0.0,0.0,0.0,0.0,0.0,0.0,0.0,0.0,-2.4999,-2.3854,-2.2847,-2.2321,-2.184,-2.1392,-2.127,-2.1214,-2.1195,-2.1086,-2.0841,-2.0621,-2.057,-2.0511,-2.04,-2.0178,-2.0126,-2.0074,-2.0118,-2.0318,-2.0457,-2.0517,-2.0743,-2.1019,-2.1326,-2.1377,-2.1573,-2.2072,-2.2182,-2.2283,-2.2594,-2.3147,-2.3332,-2.3023,-2.3711,-2.4363,-2.4861,-2.4907,-2.5191,-2.5761,-2.5518,-2.5382,-2.5333,-2.5333,-2.544,-2.5693,-2.5693,-2.5693,-2.5693,-2.5693,-2.5693,-2.5693,-2.5684,-2.5635,-2.5635,-2.5635,-2.5489,-2.5235,-2.503,-2.4587,-2.4134,-2.3895,-2.3497,-2.3046,0.0,0.0,0.0,0.0,0.0,0.0,0.0,0.0,0.0,0.0,0.0,0.0,0.0,0.0,0.0,0.0,0.0,0.0,0.0,-3.5427,-3.5137,-3.5174,-3.5935,-3.6447,-3.6682,-3.7372,-3.7801,-3.7962,-3.8797,-3.9358,-3.9589,-3.9824,-4.0001,-4.0172,-4.0172,-4.0086,-3.993,-3.9722,-3.9508,-3.9292,-3.8744,-3.8157,-3.7418,-3.6266,-3.5318,0.0,0.0,0.0,0.0,0.0,0.0,0.0,-2.5944,-2.4787,-2.3761,-2.3044,-2.2335,-2.174,-2.1427,-2.142,-2.145,-2.1261,-2.1099,-2.097,-2.0956,-2.0465,-2.0033,-2.0396,-2.0133,-1.9979,-2.0396,-2.0134,-2.0129,-2.0761,-2.09,-2.107,-2.1522,-2.1827,-2.208,-2.2443,-2.2695,-2.2846,-2.2896,-2.3538,-2.3892,-2.3695,-2.4554,-2.5251,-2.5551,-2.5785,-2.6037,-2.6332,-2.6052,-2.582,-2.5635,-2.5586,-2.5635,-2.5693,-2.5693,-2.5693,-2.5693,-2.5693,-2.5693,-2.5693,-2.5489,-2.5391,-2.5391,-2.5391,-2.5235,-2.4981,-2.5137,-2.4883,-2.4381,-2.4134,-2.3845,-2.3546,0.0,0.0,0.0,0.0,0.0,0.0,0.0,0.0,0.0,0.0,0.0,0.0,0.0,0.0,0.0,0.0,0.0,0.0,0.0,0.0,-3.5717,-3.5942,-3.6214,-3.6486,-3.6682,-3.7031,-3.7211,-3.7313,-3.7924,-3.8516,-3.8973,-3.925,-3.9517,-3.9711,-3.9803,-3.9732,-3.9517,-3.9141,-3.8797,-3.8486,-3.8089,-3.7699,-3.7325,-3.647,-3.5731,-3.4974,-3.3822,0.0,0.0,0.0,0.0,0.0,0.0,0.0,-2.4325,-2.3467,-2.2556,-2.1789,-2.1574,-2.1366,-2.1122,-2.1095,-2.106,-2.1025,-2.091,-2.051,-2.025,-2.0416,-1.9962,-1.9628,-1.995,-1.9983,-2.0092,-2.0522,-2.0767,-2.1115,-2.1648,-2.1827,-2.208,-2.2544,-2.2846,-2.2996,-2.2996,-2.3687,-2.4116,-2.4095,-2.4916,-2.5578,-2.5953,-2.6113,-2.628,-2.6486,-2.6245,-2.5965,-2.5693,-2.5693,-2.5693,-2.5693,-2.5693,-2.5693,-2.5693,-2.5693,-2.5693,-2.5693,-2.544,-2.5284,-2.5284,-2.5137,-2.5088,-2.5079,-2.5088,-2.503,-2.4833,-2.443,-2.4134,-2.3895,0.0,0.0,0.0,0.0,0.0,0.0,0.0,0.0,0.0,0.0,0.0,0.0,0.0,0.0,0.0,0.0,0.0,0.0,0.0,0.0,0.0,-3.6625,-3.6292,-3.6241,-3.6575,-3.6561,-3.6587,-3.6587,-3.69,-3.75,-3.8339,-3.8745,-3.9031,-3.9265,-3.9466,-3.943,-3.9192,-3.8627,-3.8165,-3.781,-3.7404,-3.7264,-3.7193,-3.6505,-3.5897,-3.5325,-3.4494,-3.3431,-3.2295,-3.1429,0.0,0.0,0.0,0.0,-2.4956,-2.4016,-2.2891,-2.1942,-2.1781,-2.1256,-2.0786,-2.0926,-2.0974,-2.0962,-2.0734,-2.0572,-2.0431,-2.0272,-1.9766,-1.9389,-1.9445,-1.9852,-2.0168,-2.0221,-2.062,-2.1136,-2.1661,-2.1716,-2.1928,-2.2544,-2.2896,-2.3046,-2.3046,-2.3786,-2.4254,-2.4326,-2.5011,-2.5671,-2.6093,-2.6207,-2.6327,-2.6486,-2.6294,-2.6014,-2.5693,-2.5693,-2.5693,-2.5693,-2.5693,-2.5693,-2.5693,-2.5615,-2.5615,-2.5635,-2.5256,-2.5119,-2.5137,-2.4932,-2.4981,-2.5137,-2.499,-2.499,-2.5088,-2.4686,-2.4332,-2.4084,0.0,0.0,0.0,0.0,0.0,0.0,0.0,0.0,0.0,0.0,-4.2474,-4.1896,0.0,0.0,0.0,0.0,0.0,0.0,0.0,0.0,0.0,-3.6335,-3.6508,-3.6452,-3.6111,-3.6071,-3.6071,-3.6071,-3.6151,-3.6706,-3.7728,-3.8122,-3.8441,-3.8627,-3.8833,-3.8797,-3.859,-3.8165,-3.7863,-3.761,-3.7211,-3.7017,-3.6961,-3.6304,-3.5672,-3.5062,-3.4436,-3.3531,-3.2596,-3.2078,-3.1244,0.0,0.0,0.0,-2.6276,-2.4988,-2.3897,-2.2926,-2.2088,-2.1531,-2.1204,-2.1251,-2.1147,-2.1086,-2.1032,-2.0285,-1.9659,-1.9815,-1.9827,-1.9807,-2.0087,-1.9984,-2.0011,-2.054,-2.0655,-2.0891,-2.1691,-2.1718,-2.1928,-2.2544,-2.3046,-2.3347,-2.3347,-2.4242,-2.4664,-2.4306,-2.521,-2.5775,-2.5869,-2.629,-2.6552,-2.6486,-2.6448,-2.6217,-2.5693,-2.5693,-2.5693,-2.5693,-2.5693,-2.5693,-2.5674,-2.5332,-2.5217,-2.5323,-2.4707,-2.4513,-2.4587,-2.4587,-2.4578,-2.4637,-2.4833,-2.4784,-2.4587,-2.4538,-2.439,-2.4152,0.0,0.0,0.0,0.0,0.0,0.0,0.0,0.0,0.0,0.0,0.0,-4.2007,0.0,0.0,0.0,0.0,0.0,0.0,0.0,0.0,0.0,-3.6522,-3.6049,-3.567,-3.534,-3.5426,-3.5521,-3.5521,-3.5602,-3.5899,-3.6415,-3.7258,-3.8232,-3.9238,-3.9165,-3.9117,-3.9028,-3.8362,-3.7825,-3.7419,-3.7109,-3.6875,-3.6626,-3.6323,-3.5561,-3.4649,-3.4488,-3.3619,-3.2489,-3.225,-3.1616,-3.0758,-2.9768,0.0,0.0,0.0,-2.4784,-2.3428,-2.1934,-2.141,-2.1271,-2.0776,-2.082,-2.0841,-2.0573,-2.0121,-1.9726,-1.955,-1.9514,-1.9553,-1.973,-1.9821,-1.9961,-2.0357,-2.0693,-2.1079,-2.1707,-2.1939,-2.217,-2.2578,-2.3046,-2.3397,-2.3397,-2.4291,-2.4905,-2.488,-2.5526,-2.6004,-2.6205,-2.6442,-2.6533,-2.6496,-2.6342,-2.6149,-2.5917,-2.5781,-2.5693,-2.5693,-2.5693,-2.5693,-2.5664,-2.5019,-2.48,-2.4958,-2.4497,-2.4228,-2.4163,-2.4298,-2.439,-2.4529,-2.4637,-2.4686,-2.4686,-2.4578,-2.444,-2.4341,0.0,0.0,0.0,0.0,0.0,0.0,0.0,0.0,0.0,0.0,0.0,0.0,0.0,0.0,0.0,0.0,0.0,0.0,0.0,0.0,0.0,-3.6625,-3.5784,-3.5095,-3.4644,-3.4901,-3.5003,-3.5003,-3.5154,-3.5357,-3.5587,-3.6607,-3.7879,-3.9306,-3.9178,-3.916,-3.9193,-3.8402,-3.7663,-3.7062,-3.6908,-3.6476,-3.5935,-3.5935,-3.5118,-3.3943,-3.4122,-3.3385,-3.225,-3.2169,-3.174,-3.1158,-3.0419,-2.9367,0.0,0.0,0.0,-2.3547,-2.1953,-2.1491,-2.1268,-2.0512,-2.0459,-2.043,-2.0025,-1.9867,-1.9626,-1.935,-1.9152,-1.9142,-1.9351,-1.9594,-1.9913,-2.0203,-2.0708,-2.1226,-2.1655,-2.2083,-2.2353,-2.2485,-2.3046,-2.3397,-2.3397,-2.4291,-2.4943,-2.5033,-2.5595,-2.6028,-2.623,-2.6277,-2.6328,-2.639,-2.6098,-2.5932,-2.5836,-2.5653,-2.5577,-2.5693,-2.5693,-2.5625,-2.5537,-2.4766,-2.4392,-2.4352,-2.4089,-2.388,-2.3816,-2.3966,-2.4199,-2.444,-2.444,-2.4538,-2.4686,-2.4489,-2.444,-2.439,0.0,0.0,0.0,0.0,0.0,0.0,0.0,0.0,0.0,0.0,0.0,0.0,-4.1357,-4.1292,-4.1209,-4.1088,-4.0857,0.0,0.0,0.0,0.0,-3.6457,-3.6122,0.0,-3.426,-3.4629,-3.4797,-3.4797,-3.4839,-3.5199,-3.5982,-3.6494,-3.7166,-3.8006,-3.8187,-3.8382,-3.851,-3.7882,-3.7154,-3.6462,-3.6424,-3.5709,-3.4692,-3.4692,-3.394,-3.288,-3.304,-3.2573,-3.1927,-3.1927,-3.1767,-3.1482,-3.0874,-3.0062,-2.9034,0.0,0.0,0.0,-2.2538,-2.1934,-2.1386,-2.0883,-2.0317,-1.9859,-1.9818,-1.9292,-1.8862,-1.9169,-1.8823,-1.87,-1.9219,-1.956,-1.9924,-2.0249,-2.0741,-2.1199,-2.1488,-2.1973,-2.225,-2.2122,-2.2887,-2.3397,-2.3397,-2.4291,-2.4722,-2.4392,-2.5003,-2.5476,-2.5543,-2.5722,-2.5912,-2.6129,-2.5752,-2.5391,-2.5145,-2.5155,-2.5322,-2.5693,-2.5693,-2.5518,-2.5088,-2.4629,-2.4072,-2.3431,-2.3159,-2.3243,-2.3547,-2.3517,-2.3804,-2.4202,-2.4202,-2.4202,-2.4251,-2.4202,-2.4202,-2.4202,0.0,0.0,0.0,0.0,0.0,0.0,0.0,0.0,0.0,0.0,0.0,0.0,0.0,-4.0799,-4.0765,-4.0712,-4.0509,0.0,0.0,0.0,0.0,-3.6405,-3.5659,-3.49,-3.422,-3.4452,-3.4535,-3.4535,-3.4535,-3.4682,-3.5004,-3.5668,-3.631,-3.6931,-3.7682,-3.8159,-3.8342,-3.7819,-3.7139,-3.6382,-3.6269,-3.5474,-3.4379,-3.4265,-3.3479,-3.2437,-3.2613,-3.2075,-3.1323,-3.1471,-3.1323,-3.0884,-3.0157,-2.9555,-2.8683,-2.6717,-2.503,-2.3648,-2.2961,-2.2327,-2.1727,-2.1229,-2.091,-2.0629,-2.0241,-1.9797,-1.9418,-1.9393,-1.9161,-1.8989,-1.9034,-1.9137,-1.9482,-2.0185,-2.0801,-2.1347,-2.1735,-2.2266,-2.2606,-2.2491,-2.3044,-2.3397,-2.3397,-2.4291,-2.4826,-2.4684,-2.5247,-2.5594,-2.5652,-2.5462,-2.5468,-2.5732,-2.5117,-2.4879,-2.5106,-2.5116,-2.5293,-2.5684,-2.5449,-2.5225,-2.5096,-2.4336,-2.379,-2.3355,-2.2862,-2.2905,-2.3379,-2.3437,-2.3785,-2.4202,-2.4202,-2.4202,-2.4202,-2.4202,-2.4202,-2.4202,0.0,0.0,0.0,0.0,0.0,0.0,0.0,0.0,-4.0314,-4.0156,0.0,0.0,0.0,0.0,-4.0126,-4.0126,-4.0168,-4.0019,-3.9541,-3.8818,-3.7878,-3.667,-3.5831,-3.5049,-3.422,-3.4275,-3.4314,-3.4314,-3.4314,-3.4314,-3.4327,-3.5,-3.552,-3.5811,-3.666,-3.7404,-3.7946,-3.7494,-3.682,-3.6051,-3.5803,-3.5002,-3.3909,-3.3591,-3.2917,-3.2106,-3.2182,-3.1728,-3.1099,-3.1099,-3.0874,-3.0507,-2.9869,-2.9051,-2.7937,-2.6235,-2.5021,-2.4092,-2.3442,-2.2961,-2.2452,-2.1808,-2.1464,-2.1112,-2.0689,-2.0237,-1.9813,-1.9603,-1.9411,-1.925,-1.9045,-1.9001,-1.9312,-2.0174,-2.0894,-2.1469,-2.181,-2.2501,-2.2885,-2.2605,-2.315,-2.3497,-2.3415,-2.4291,-2.4883,-2.4883,-2.5391,-2.5625,-2.5518,-2.5234,-2.5036,-2.4937,-2.4447,-2.4346,-2.4639,-2.4639,-2.4863,-2.5245,-2.499,-2.4775,-2.4619,-2.4053,-2.3621,-2.3277,-2.2742,-2.2834,-2.3308,-2.3283,-2.3666,-2.4202,-2.4202,-2.4202,-2.4202,-2.4102,-2.4053,-2.4053,0.0,0.0,0.0,0.0,0.0,0.0,0.0,0.0,-4.0392,-3.952,0.0,0.0,0.0,0.0,0.0,-3.9394,-3.9941,-4.0129,-3.9732,-3.995,-3.9161,-3.713,0.0,0.0,-3.4286,-3.4136,-3.4118,-3.4076,-3.4076,-3.4089,-3.4102,-3.4575,-3.4824,-3.4824,-3.5249,-3.609,-3.722,-3.6879,-3.6228,-3.5386,-3.5072,-3.4284,-3.3252,-3.2627,-3.2205,-3.1853,-3.1683,-3.1485,-3.1235,-3.0862,-3.0584,-3.033,-3.0088,-2.8648,-2.6885,-2.618,-2.5383,-2.4563,0.0,0.0,0.0,-2.2687,-2.1882,-2.1293,-2.1078,-2.0503,-1.998,-1.9769,-1.9599,-1.9464,-1.9287,-1.9309,-1.9528,-2.0213,-2.1033,-2.1583,-2.161,-2.2592,-2.3041,-2.2394,-2.3272,-2.3781,-2.3441,-2.4291,-2.4883,-2.4883,-2.5391,-2.5537,-2.5135,-2.5096,-2.4695,-2.3799,-2.3769,-2.3779,-2.3789,-2.3789,-2.4004,-2.4414,-2.4404,-2.418,-2.3789,-2.3779,-2.3545,-2.3101,-2.2882,-2.2969,-2.3289,-2.3007,-2.3428,-2.4202,-2.4202,-2.4202,-2.4152,-2.3904,-2.3795,-2.3755,0.0,0.0,0.0,0.0,0.0,-4.0759,-4.0721,-4.0721,-4.0394,0.0,0.0,0.0,-3.8782,-3.887,-3.9173,-3.9661,-3.9666,-3.9748,-3.9984,-3.9607,-3.8908,-3.7826,-3.6906,-3.5959,-3.5039,-3.4428,-3.3992,-3.381,-3.381,-3.4028,-3.4482,-3.474,-3.4953,-3.5123,-3.5854,-3.6247,-3.6315,-3.6675,-3.6453,-3.5811,-3.5792,-3.4701,-3.3071,-3.2786,-3.2253,-3.1683,-3.1609,-3.1373,-3.1114,-3.1215,-3.0701,-2.9781,-2.8856,-2.7808,-2.681,-2.6103,-2.5449,0.0,-2.4596,0.0,0.0,0.0,0.0,0.0,-2.2078,-2.1347,-2.0735,-2.0695,-2.0248,-1.995,-2.0208,-2.02,-2.0271,-2.0712,-2.1101,-2.1466,-2.1899,-2.2751,-2.3132,-2.2687,-2.3384,-2.3781,-2.3441,-2.4291,-2.4883,-2.4883,-2.5391,-2.5537,-2.5135,-2.4482,-2.3887,-2.3286,-2.3276,-2.3467,-2.3789,-2.3789,-2.4004,-2.4414,-2.4111,-2.3906,-2.3779,-2.3467,-2.3208,-2.3101,-2.2882,-2.3114,-2.3579,-2.3289,-2.3572,-2.4202,-2.4202,-2.4102,-2.3904,-2.3854,-2.3696,-2.3447,0.0,0.0,0.0,0.0,0.0,-4.0787,-4.0723,-4.0683,-4.0411,0.0,0.0,0.0,-3.8958,-3.9015,-3.9252,-3.9644,-3.9774,-3.9841,-3.9934,-3.9727,-3.9173,-3.8264,-3.7273,-3.6379,-3.5652,-3.4637,-3.3999,-3.3784,-3.3771,-3.3949,-3.4336,-3.474,-3.5061,-3.5292,-3.5804,-3.6083,-3.624,-3.6714,-3.6705,-3.6292,-3.594,-3.5059,-3.3952,-3.3246,-3.2722,-3.2287,-3.2031,-3.1767,-3.1487,-3.1428,-3.0637,-2.9434,-2.8261,-2.7423,-2.6677,-2.5777,-2.5312,0.0,0.0,0.0,0.0,-2.3996,0.0,0.0,-2.2925,-2.2299,-2.1688,-2.1563,-2.1136,-2.0772,-2.0716,-2.0662,-2.0732,-2.1035,-2.1243,-2.1565,-2.2202,-2.3014,-2.3459,-2.3257,-2.3782,-2.4021,-2.3631,-2.4393,-2.4883,-2.4883,-2.5391,-2.5459,-2.4834,-2.416,-2.3584,-2.311,-2.3091,-2.3218,-2.3516,-2.3516,-2.3643,-2.3832,-2.3633,-2.3516,-2.3516,-2.3208,-2.3091,-2.3091,-2.2969,-2.3089,-2.3408,-2.3448,-2.3773,-2.4202,-2.4202,-2.4053,-2.3805,-2.3646,-2.3447,-2.3197,0.0,0.0,-3.9309,-4.0474,-4.0838,-4.092,-4.073,-4.0689,-4.0392,0.0,-3.9446,-3.9404,-3.9404,-3.9404,-3.9432,-3.9503,-3.9987,-4.015,-3.9747,-4.0009,-3.9646,-3.8445,-3.7665,-3.6857,-3.6033,-3.4881,-3.4149,-3.3909,-3.384,-3.3865,-3.4009,-3.471,-3.5161,-3.5398,-3.5507,-3.5955,-3.658,-3.6884,-3.6923,-3.6781,-3.5905,-3.5479,-3.5251,-3.3859,-3.3325,-3.3225,-3.2636,-3.2322,-3.2132,-3.1458,-3.0547,-2.9415,-2.8215,-2.7459,-2.6769,-2.5599,-2.5241,0.0,0.0,0.0,0.0,-2.4335,-2.398,0.0,-2.3547,-2.3154,-2.2662,-2.2246,-2.2042,-2.1713,-2.1029,-2.0955,-2.1035,-2.1276,-2.1474,-2.1832,-2.2392,-2.3292,-2.3872,-2.3729,-2.4164,-2.434,-2.3914,-2.4504,-2.4883,-2.4883,-2.5343,-2.5245,-2.4463,-2.4014,-2.3584,-2.311,-2.3091,-2.3091,-2.3091,-2.3091,-2.3091,-2.3091,-2.3091,-2.3091,-2.3091,-2.3091,-2.312,-2.3169,-2.312,-2.3098,-2.3106,-2.3549,-2.3888,-2.4137,-2.4134,-2.4003,-2.3705,-2.3447,-2.3197,-2.2896,0.0,-3.9971,-4.0022,-4.0605,-4.0718,-4.076,-4.0732,-4.0689,-4.0379,-3.9508,-3.9005,-3.8697,-3.8697,-3.882,-3.914,-3.9605,-3.9606,-3.9675,-3.9918,-3.9664,-3.9104,-3.8267,-3.7458,-3.6631,-3.5666,-3.4929,-3.4382,-3.3987,-3.3975,-3.4197,-3.4641,-3.4972,-3.5253,-3.5495,-3.6155,-3.6386,-3.6392,-3.69,-3.7075,-3.6994,-3.669,-3.6079,-3.5251,-3.4039,-3.3457,-3.3225,-3.2636,-3.2381,-3.22,-3.1283,-3.0984,-3.0735,-2.9108,-2.8482,-2.8122,-2.7088,-2.6386,-2.5887,-2.5398,-2.5094,-2.4786,-2.4335,-2.398,0.0,-2.3547,-2.3154,-2.275,-2.2662,-2.233,-2.2077,-2.2199,-2.1774,-2.152,-2.1848,-2.1884,-2.1979,-2.2293,-2.319,-2.3661,-2.326,-2.4001,-2.4337,-2.3835,-2.4486,-2.4883,-2.4883,-2.5102,-2.4971,-2.4443,-2.4014,-2.3584,-2.311,-2.3091,-2.3091,-2.3091,-2.3091,-2.3091,-2.3091,-2.3091,-2.3091,-2.3091,-2.3091,-2.333,-2.3643,-2.3247,-2.3262,-2.3559,-2.3672,-2.3672,-2.3645,-2.3826,-2.3696,-2.3456,-2.3197,-2.2896,-2.2644,-3.9001,-3.9045,-3.9117,-3.9658,-3.9889,-3.9996,-3.9996,-3.9996,-3.9842,-3.9422,-3.9076,-3.8884,-3.8884,-3.897,-3.9166,-3.9455,-3.931,-3.9185,-3.9278,-3.8832,-3.8336,-3.7861,-3.7116,-3.6455,-3.5956,-3.5046,-3.4357,-3.3985,-3.3891,-3.3931,-3.4184,-3.4748,-3.5108,-3.5357,-3.5901,-3.6207,-3.6387,-3.662,-3.6875,-3.7052,-3.6637,-3.6184,-3.5597,-3.4165,-3.3603,-3.3499,-3.2709,-3.2359,-3.2191,-3.1371,-3.0996,-3.0667,-2.9369,-2.8627,-2.8093,-2.7277,-2.6652,-2.6102,-2.5611,-2.5285,-2.4988,-2.4615,-2.4282,0.0,0.0,-2.3547,-2.3276,-2.3154,-2.2838,-2.2574,-2.2441,-2.1989,-2.168,-2.186,-2.1862,-2.1896,-2.2164,-2.2987,-2.3649,-2.3774,-2.4164,-2.4331,-2.4088,-2.456,-2.503,-2.5284,-2.5382,-2.5205,-2.4766,-2.4336,-2.3906,-2.3477,-2.3208,-2.3091,-2.3091,-2.3091,-2.3091,-2.3091,-2.3091,-2.3091,-2.3101,-2.3315,-2.3584,-2.3789,-2.3779,-2.3751,-2.3738,-2.3928,-2.3803,-2.3535,-2.3741,-2.3646,-2.3356,-2.3097,-2.2846,-2.2544,-3.7733,-3.7772,-3.7862,-3.8337,-3.8735,-3.8996,-3.8996,-3.9091,-3.9172,-3.9172,-3.9172,-3.9172,-3.9172,-3.9172,-3.9127,-3.9069,-3.8877,-3.8652,-3.8408,-3.7926,-3.7559,-3.732,-3.664,-3.6216,-3.6073,-3.4988,-3.4293,-3.4007,-3.3815,-3.3718,-3.3718,-3.434,-3.4787,-3.5078,-3.5332,-3.5704,-3.6168,-3.6216,-3.6389,-3.6633,-3.6077,-3.5929,-3.5857,-3.4099,-3.356,-3.3668,-3.2672,-3.2286,-3.2096,-3.1569,-3.1001,-3.0433,-2.9559,-2.8745,-2.7951,-2.7394,-2.6828,-2.6362,-2.5874,-2.558,-2.5316,-2.5031,-2.4615,-2.4219,0.0,0.0,0.0,-2.3438,-2.326,-2.3018,-2.2427,-2.2135,-2.1868,-2.1632,-2.1546,-2.1643,-2.2044,-2.2722,-2.3432,-2.4106,-2.4281,-2.4307,-2.4276,-2.4697,-2.5186,-2.5635,-2.5693,-2.5537,-2.5135,-2.4736,-2.4346,-2.3926,-2.3564,-2.3335,-2.3335,-2.3335,-2.3296,-2.3218,-2.3218,-2.3179,-2.311,-2.3594,-2.3838,-2.3935,-2.4268,-2.4185,-2.3824,-2.4184,-2.3981,-2.3535,-2.3741,-2.3646,-2.3356,-2.3097,-2.2846,-2.2544,-3.7565,-3.7544,-3.723,-3.711,-3.7548,-3.7878,-3.7878,-3.8345,-3.8692,-3.8692,-3.8692,-3.8692,-3.8692,-3.8692,-3.8589,-3.8349,-3.8304,-3.8076,-3.7644,-3.7353,-3.6968,-3.6546,-3.6013,-3.5488,-3.4969,-3.4617,-3.4313,-3.408,-3.408,-3.403,-3.403,-3.415,-3.4298,-3.4482,-3.4775,-3.5078,-3.5368,-3.5572,-3.5433,-3.5034,-3.4919,-3.5264,-3.5608,-3.3587,-3.304,-3.3257,-3.2415,-3.2155,-3.2132,-3.1716,-3.1438,-3.1126,-3.0266,-2.9581,-2.903,-2.8482,-2.7846,-2.7278,-2.6839,-2.6415,-2.5946,-2.5316,-2.4828,-2.4265,-2.3485,0.0,-2.3438,-2.306,0.0,-2.3321,-2.2906,0.0,0.0,-2.1381,-2.1072,-2.1191,-2.1991,-2.2178,-2.2456,-2.3039,-2.3901,-2.4414,-2.4303,-2.4898,-2.5382,-2.5684,-2.5693,-2.5537,-2.5135,-2.5067,-2.4795,-2.4365,-2.4297,-2.4268,-2.4268,-2.4268,-2.4082,-2.3721,-2.3721,-2.3516,-2.311,-2.3594,-2.3994,-2.4346,-2.4394,-2.4322,-2.4259,-2.4259,-2.3981,-2.3535,-2.3741,-2.3646,-2.3356,-2.3097,-2.2846,-2.2493,-3.6125,-3.6169,-3.6026,-3.5768,-3.6384,-3.6895,-3.6895,-3.7391,-3.771,-3.771,-3.771,-3.771,-3.771,-3.771,-3.7664,-3.7572,-3.7328,-3.7062,-3.6888,-3.6465,-3.6133,-3.5943,-3.5404,-3.5017,-3.4775,-3.4249,-3.3866,-3.363,-3.3481,-3.3319,-3.3158,-3.3469,-3.3668,-3.3767,-3.4211,-3.4376,-3.4366,-3.4462,-3.435,-3.4142,-3.3773,-3.3879,-3.4136,-3.2857,-3.2137,-3.1793,-3.1655,-3.1629,-3.1643,-3.1495,-3.1243,-3.0881,-3.0305,-2.9907,-2.9634,-2.927,-2.8781,-2.8292,-2.8005,-2.7302,-2.6498,-2.6071,-2.5411,-2.4819,-2.445,-2.4139,-2.3844,-2.3705,0.0,0.0,0.0,0.0,0.0,0.0,-2.1005,-2.1008,-2.1527,-2.1688,-2.2224,-2.341,-2.3956,-2.4288,-2.452,-2.5031,-2.5485,-2.5734,-2.602,-2.6079,-2.5938,-2.5538,-2.5226,-2.5039,-2.4643,-2.4414,-2.4414,-2.4414,-2.4209,-2.3789,-2.3789,-2.3555,-2.312,-2.3848,-2.4248,-2.4443,-2.4914,-2.4948,-2.4627,-2.4627,-2.4335,-2.3914,-2.3989,-2.3854,-2.3596,-2.3147,-2.2946,-2.2745,-3.4875,0.0,-3.5262,-3.4976,-3.5622,-3.6235,-3.6284,-3.6667,-3.6922,-3.6922,-3.6922,-3.6922,-3.6922,-3.6922,-3.6875,-3.6815,-3.6499,-3.6263,-3.6181,-3.5752,-3.5476,-3.5368,-3.4884,-3.4592,-3.4494,-3.3817,-3.3381,-3.3181,-3.293,-3.2718,-3.2493,-3.2919,-3.3069,-3.3119,-3.3568,-3.3574,-3.3253,-3.3397,-3.3303,-3.3042,-3.2723,-3.2576,-3.2509,-3.2021,-3.1391,-3.0739,-3.0913,-3.1153,-3.132,-3.1138,-3.1031,-3.0971,-3.047,-3.0303,-3.0269,-3.0069,-2.9784,-2.9419,-2.907,-2.8257,-2.7416,-2.6803,-2.6038,-2.5352,-2.4958,-2.4535,-2.4227,-2.4103,-2.4098,0.0,0.0,0.0,-2.24,-2.151,0.0,-2.1105,-2.1199,-2.1361,-2.2036,-2.3426,-2.3939,-2.4389,-2.4772,-2.5255,-2.5598,-2.5775,-2.6171,-2.6413,-2.6496,-2.6052,-2.5729,-2.5682,-2.513,-2.4822,-2.4775,-2.4775,-2.4502,-2.3965,-2.3965,-2.3672,-2.312,-2.3906,-2.4307,-2.4453,-2.5225,-2.5324,-2.4981,-2.4932,-2.4646,-2.4301,-2.4202,-2.4102,-2.3854,-2.3297,-2.3046,-2.2896,-3.4424,-3.49,-3.5315,-3.5035,-3.5484,-3.602,-3.6351,-3.6392,-3.6405,-3.6405,-3.6405,-3.6405,-3.6405,-3.6405,-3.631,-3.6061,-3.6013,-3.5883,-3.5668,-3.5368,-3.5078,-3.4823,-3.4359,-3.4026,-3.3729,-3.3181,-3.2942,-3.2891,-3.2656,-3.2505,-3.2493,-3.2493,-3.2544,-3.2544,-3.2757,-3.2574,-3.2195,-3.2732,-3.2345,-3.1495,-3.1965,-3.1639,-3.0917,-3.1087,-3.1007,-3.0733,-3.0304,-3.0714,-3.1384,-3.0663,-3.1086,-3.1813,-3.1091,-3.0947,-3.1058,-3.1058,-3.0881,-3.0552,-2.9768,-2.9407,-2.8858,-2.7419,-2.6569,-2.5712,-2.4359,-2.4209,-2.4269,-2.3883,-2.4355,-2.4714,-2.4231,-2.3981,-2.3392,0.0,-2.172,0.0,0.0,-2.1351,-2.1776,-2.2471,-2.3871,-2.4875,-2.5072,-2.5488,-2.5783,-2.5792,-2.5973,-2.6222,-2.6476,-2.6486,-2.6332,-2.6081,-2.6061,-2.5916,-2.5645,-2.5645,-2.5216,-2.4394,-2.4394,-2.3955,-2.311,-2.3603,-2.4033,-2.4443,-2.4893,-2.5188,-2.5284,-2.499,-2.4735,-2.4489,-2.4301,-2.4202,-2.4102,-2.3596,-2.3197,-2.2896,-3.4852,0.0,-3.4868,-3.4442,-3.4823,-3.5276,-3.557,-3.5608,-3.5548,-3.5356,-3.5356,-3.5356,-3.5356,-3.5356,-3.5307,-3.5211,-3.5054,-3.492,-3.4823,-3.4592,-3.4408,-3.4359,-3.4014,-3.3779,-3.3679,-3.3181,-3.283,-3.2656,-3.2139,-3.1834,-3.164,-3.164,-3.164,-3.1629,-3.1885,-3.1684,-3.1124,-3.1308,-3.0995,-3.0423,-3.0708,-3.0759,-3.0696,-3.1022,-3.0908,-3.054,-3.0655,-3.0906,-3.114,-3.1017,-3.1165,-3.1308,-3.1038,-3.1253,-3.163,-3.163,-3.1576,-3.1455,-3.1186,-3.0347,-2.9387,-2.8863,-2.7971,-2.7099,-2.662,-2.6278,-2.5961,-2.565,-2.5675,-2.5554,-2.48,-2.4509,0.0,0.0,0.0,-2.2332,0.0,-2.1928,-2.2099,-2.2473,-2.3639,-2.4541,-2.4933,-2.5518,-2.5857,-2.5881,-2.6027,-2.6221,-2.6295,-2.6028,-2.5949,-2.6148,-2.5807,-2.5755,-2.5955,-2.5781,-2.5439,-2.4844,-2.4551,-2.4121,-2.3574,-2.3721,-2.3867,-2.4043,-2.4756,-2.5023,-2.49,-2.4925,-2.4735,-2.448,-2.4301,-2.4202,-2.4152,-2.3805,-2.3497,-2.3097,-3.4775,-3.4689,-3.4474,-3.417,-3.4387,-3.4595,-3.4787,-3.4689,-3.458,-3.4384,-3.4286,-3.4237,-3.4237,-3.4237,-3.4286,-3.4384,-3.4237,-3.4188,-3.4298,-3.4162,-3.4075,-3.3977,-3.3779,-3.363,-3.3431,-3.2969,-3.2566,-3.219,-3.168,-3.1322,-3.1086,-3.1086,-3.1086,-3.1086,-3.123,-3.099,-3.0439,-3.0362,-3.0028,-2.9626,-2.9748,-2.9897,-3.0136,-3.0584,-3.0627,-3.0435,-3.0511,-3.0727,-3.0933,-3.0873,-3.1028,-3.1227,-3.1127,-3.1477,-3.1963,-3.2073,-3.2073,-3.1987,-3.1603,-3.0848,-2.9955,-2.93,-2.8557,-2.7929,-2.7671,-2.7355,-2.7025,-2.6759,-2.6692,-2.6438,-2.5727,-2.5415,-2.5005,0.0,0.0,0.0,0.0,-2.2451,-2.2501,-2.2686,-2.3663,-2.4429,-2.4724,-2.5424,-2.5905,-2.5892,-2.6003,-2.6101,-2.618,-2.584,-2.5757,-2.5915,-2.5789,-2.5717,-2.5853,-2.5838,-2.5604,-2.5106,-2.4785,-2.4346,-2.3789,-2.3789,-2.3789,-2.3828,-2.4531,-2.4837,-2.4842,-2.4859,-2.4784,-2.4587,-2.4301,-2.4202,-2.4152,-2.3904,-2.3497,-2.2946,-3.4125,-3.4026,-3.4064,-3.4286,-3.4162,-3.4075,-3.4026,-3.3755,-3.3545,-3.3545,-3.3296,-3.3147,-3.3147,-3.3147,-3.3235,-3.3461,-3.3511,-3.3648,-3.3944,-3.3944,-3.3845,-3.3598,-3.356,-3.3312,-3.2846,-3.2572,-3.2156,-3.1618,-3.1322,-3.1013,-3.0744,-3.0713,-3.0713,-3.0692,-3.0713,-3.0469,-3.0043,-2.9803,-2.9467,-2.9041,-2.9036,-2.9035,-2.9128,-2.9657,-3.0075,-3.0367,-2.987,-3.0172,-3.0666,-3.0175,-3.0721,-3.1577,-3.1257,-3.1513,-3.2001,-3.2257,-3.2344,-3.2123,-3.1134,-3.0927,-3.0629,-2.8836,-2.8405,-2.8271,-2.7542,-2.743,-2.743,-2.7234,-2.7373,-2.7441,-2.7015,-2.6745,-2.6289,0.0,0.0,0.0,-2.3314,-2.297,-2.291,-2.3083,-2.3932,-2.4518,-2.4519,-2.5373,-2.5912,-2.5925,-2.5924,-2.5974,-2.6141,-2.5948,-2.5743,-2.5502,-2.5931,-2.5886,-2.5436,-2.5853,-2.5767,-2.5145,-2.5125,-2.4629,-2.3818,-2.3799,-2.3779,-2.3779,-2.4228,-2.4648,-2.5021,-2.4946,-2.4883,-2.4833,-2.4399,-2.4202,-2.4152,-2.3904,-2.3247,-2.2426,-3.353,-3.317,-3.2946,-3.2996,-3.3396,-3.3595,-3.3208,-3.3058,-3.2846,-3.2482,-3.237,-3.2319,-3.2319,-3.2319,-3.2286,-3.2176,-3.2191,-3.2094,-3.1817,-3.1794,-3.1794,-3.1697,-3.1686,-3.1769,-3.2004,-3.1767,-3.1633,-3.1618,-3.0909,-3.0275,-2.9693,-2.9558,-2.938,-2.9084,-2.9411,-2.9413,-2.9116,-2.8743,-2.8387,-2.8,-2.8014,-2.8243,-2.8581,-2.8721,-2.8947,-2.925,-2.9871,-3.0175,-3.0345,-3.0173,-3.0357,-3.0599,-3.074,-3.0965,-3.125,-3.1484,-3.1705,-3.1833,-3.1554,-3.1016,-3.0465,-2.9967,-2.9392,-2.8885,-2.8672,-2.8772,-2.878,-2.8427,-2.8548,-2.8447,-2.7701,-2.7528,-2.725,0.0,0.0,0.0,-2.4205,-2.3774,-2.3476,-2.3268,-2.4116,-2.481,-2.502,-2.5705,-2.6118,-2.6112,-2.587,-2.5616,-2.5465,-2.5261,-2.5211,-2.5255,-2.519,-2.5341,-2.5671,-2.5603,-2.5581,-2.5557,-2.5225,-2.4785,-2.4248,-2.3935,-2.3613,-2.3305,-2.4092,-2.4334,-2.4302,-2.4726,-2.4784,-2.4587,-2.4301,-2.4202,-2.4152,-2.3696,-2.3188,-2.2728,-3.2757,-3.2392,-3.2088,-3.1936,-3.2291,-3.2533,-3.2443,-3.224,-3.1986,-3.168,-3.1578,-3.1476,-3.1476,-3.1476,-3.1382,-3.1202,-3.1158,-3.1097,-3.0853,-3.083,-3.0868,-3.1012,-3.1177,-3.1274,-3.1243,-3.1368,-3.116,-3.0644,-3.0146,-2.9548,-2.8798,-2.8644,-2.8538,-2.8498,-2.8739,-2.8872,-2.8876,-2.8279,-2.7798,-2.7387,-2.7324,-2.7478,0.0,-2.7867,-2.7951,-2.8117,-2.8678,-2.9187,-2.9566,-2.9566,-2.9566,-2.9612,-2.9852,-3.008,-3.0352,-3.0566,-3.0836,-3.1024,-3.0888,-3.0441,-2.9959,-2.9951,-2.9423,-2.9,-2.9197,-2.9302,-2.9341,-2.9106,-2.9157,-2.904,-2.8383,-2.8195,-2.7914,0.0,0.0,0.0,-2.4965,-2.4554,-2.4237,-2.3936,-2.4666,-2.5329,-2.5726,-2.6024,-2.6199,-2.6199,-2.5822,-2.5517,-2.538,-2.5073,-2.4944,-2.5086,-2.5032,-2.506,-2.5249,-2.5301,-2.5241,-2.5109,-2.4902,-2.456,-2.4141,-2.3896,-2.3555,-2.314,-2.3907,-2.4127,-2.4055,-2.4533,-2.4637,-2.448,-2.4301,-2.4202,-2.4152,-2.3596,-2.3297,-2.3038,-3.1863,-3.1567,-3.1322,-3.1064,-3.1023,-3.1167,-3.1607,-3.1373,-3.1075,-3.1023,-3.0827,-3.0682,-3.0682,-3.0724,-3.0687,-3.045,-3.0457,-3.0463,-3.0427,-3.0442,-3.054,-3.0771,-3.1127,-3.1051,-3.0453,-3.0952,-3.0612,-2.9363,-2.9213,-2.8767,-2.8005,-2.7844,-2.7852,-2.8101,-2.8161,-2.8391,-2.8648,-2.7991,-2.7412,-2.6913,-2.6814,-2.6767,-2.6764,-2.6993,-2.704,-2.7051,-2.716,-2.7747,-2.8502,-2.8556,-2.8546,-2.8549,-2.8869,-2.9126,-2.9336,-2.9555,-2.9829,-2.9977,-2.9765,-2.9497,-2.9237,-2.9231,-2.8984,-2.8831,-2.9184,-2.938,-2.9419,-2.9419,-2.9457,-2.938,-2.8949,-2.8657,-2.8299,0.0,-2.7249,-2.6644,-2.5739,-2.5446,-2.5226,-2.4945,-2.5513,0.0,-2.6507,-2.6393,-2.6271,-2.6229,-2.5853,-2.5644,-2.5601,-2.5168,-2.4946,-2.4903,-2.5053,-2.4897,-2.4515,-2.4897,-2.488,-2.4414,-2.4368,-2.4153,-2.3744,-2.3744,-2.3495,-2.313,-2.3744,-2.4026,-2.3992,-2.4358,-2.448,-2.444,-2.4251,-2.4202,-2.4152,-2.3596,-2.3397,-2.3297,-3.0806,-3.0443,-3.0256,-3.0203,-3.0036,-2.9921,-3.0015,-3.0339,-3.0391,-2.9921,-3.0036,-3.0151,-3.0151,-3.0349,-3.0368,-3.0208,-3.0176,-3.0024,-2.9642,-2.961,-2.961,-2.9659,-2.9408,-2.9337,-2.9599,-2.9336,-2.9168,-2.9094,-2.863,-2.7934,-2.7023,-2.6887,-2.655,-2.6097,-2.6442,-2.6634,-2.671,-2.6879,-2.6618,-2.6089,-2.6071,-2.6016,-2.5936,-2.6187,-2.6284,-2.6382,-2.6937,-2.7273,-2.752,-2.7907,-2.7781,-2.7589,-2.8226,-2.8364,-2.8326,-2.8571,-2.885,-2.9059,-2.9201,-2.888,-2.856,-2.8749,-2.8698,-2.8578,-2.8657,-2.9221,-2.9663,-2.947,-2.9703,-2.9831,-2.938,-2.8855,-2.8471,-2.8339,-2.7817,-2.7273,-2.6866,-2.6639,-2.6375,-2.6071,-2.6496,-2.6819,-2.6739,-2.677,-2.6727,-2.6561,-2.6104,-2.577,-2.5601,-2.5295,-2.5073,-2.4903,-2.4741,-2.4579,-2.4504,-2.4585,-2.4536,-2.4414,-2.4239,-2.3924,-2.3464,-2.3464,-2.3281,-2.3052,-2.3731,-2.3965,-2.3954,-2.4333,-2.439,-2.4251,-2.4202,-2.4202,-2.4152,-2.3596,-2.3397,-2.3297,-2.9816,-2.9501,-2.929,-2.9142,-2.9036,-2.8867,-2.8761,-2.8963,-2.9175,-2.9343,-2.9448,-2.9511,-2.9511,-2.9659,-2.9579,-2.9291,-2.925,-2.9206,-2.8998,-2.8867,-2.8877,-2.9176,-2.9027,-2.8862,-2.861,-2.8752,-2.8489,-2.7893,-2.7638,-2.7033,-2.6212,-2.6042,-2.5798,-2.5645,-2.6229,-2.6451,-2.6313,-2.6678,-2.6527,-2.6102,-2.5819,-2.5674,-2.5612,-2.5498,-2.5605,-2.5818,-2.617,-2.6397,-2.6745,-2.7561,-2.7688,-2.7505,-2.7641,-2.7682,-2.7744,-2.7647,-2.7914,-2.8243,-2.8466,-2.8222,-2.8011,-2.826,-2.8065,-2.7888,-2.8094,-2.8474,-2.8831,-2.9028,-2.9275,-2.9353,-2.9145,-2.8776,-2.8471,-2.8339,-2.7886,-2.7377,-2.7006,-2.6779,-2.6646,-2.669,-2.6956,-2.7187,-2.7362,-2.7192,-2.6921,-2.6633,-2.6188,-2.5812,-2.5601,-2.5338,-2.5115,-2.4903,-2.4529,-2.4255,-2.4162,-2.4031,-2.392,-2.3705,-2.3535,-2.3294,-2.3092,-2.2958,-2.2938,-2.3021,-2.3456,-2.3739,-2.3912,-2.4223,-2.4301,-2.4202,-2.4202,-2.4202,-2.4152,-2.3596,-2.3397,-2.3297,-2.8804,-2.8538,-2.8271,-2.8067,-2.8023,-2.796,-2.7745,-2.7691,-2.796,-2.8654,-2.8814,-2.8867,-2.8867,-2.892,-2.878,-2.8503,-2.8473,-2.8468,-2.8523,-2.836,-2.8411,-2.8817,-2.884,-2.8543,-2.7829,-2.8269,-2.7915,-2.6762,-2.6685,-2.6231,-2.5499,-2.5272,-2.5204,-2.5292,-2.6072,-2.6284,-2.5998,-2.6396,-2.6361,-2.6,-2.5614,-2.5293,-2.5166,-2.4983,-2.5089,-2.5355,-2.5584,-2.5928,-2.6385,-2.74,-2.7609,-2.741,-2.7102,-2.7102,-2.709,-2.6766,-2.6989,-2.7347,-2.762,-2.7507,-2.7417,-2.7767,-2.7533,-2.7312,-2.7741,-2.7813,-2.8015,-2.8643,-2.8757,-2.8724,-2.8724,-2.8578,-2.8379,-2.8219,-2.7805,-2.7383,-2.7091,-2.6873,-2.685,-2.7246,-2.7286,-2.7411,-2.7794,-2.7412,-2.6992,-2.6644,-2.6146,-2.578,-2.5601,-2.5295,-2.5031,-2.4818,-2.4411,-2.4067,-2.3754,-2.359,-2.3373,-2.3091,-2.2838,-2.2706,-2.2715,-2.2441,-2.2525,-2.2884,-2.315,-2.3568,-2.3994,-2.4122,-2.4202,-2.4202,-2.4202,-2.4152,-2.4053,-2.3596,-2.3347,-2.3247,-2.7647,-2.7368,-2.7152,-2.7152,-2.7098,-2.7098,-2.7098,-2.7098,-2.7206,-2.7539,-2.7799,-2.8014,-2.8014,-2.8237,-2.8388,-2.8339,-2.8339,-2.8319,-2.8333,-2.828,-2.8333,-2.8386,-2.799,-2.7702,-2.7623,-2.7258,-2.6857,-2.6348,-2.6139,-2.5637,-2.499,-2.4829,-2.4517,-2.407,-2.4924,-2.5014,-2.472,-2.5487,-2.5594,-2.521,-2.5139,-2.4676,-2.4121,-2.4693,-2.486,-2.4923,-2.5878,-2.6449,-2.6816,-2.7292,-2.6912,-2.6351,-2.6693,-2.6481,-2.6039,-2.6,-2.6114,-2.6294,-2.6582,-2.6627,-2.6722,-2.714,-2.723,-2.7338,-2.7796,-2.7909,-2.8041,-2.851,-2.8552,-2.855,-2.855,-2.8339,-2.8219,-2.8219,-2.7805,-2.7551,-2.7782,-2.7585,-2.7504,-2.781,-2.781,-2.7742,-2.7563,-2.7167,-2.685,-2.6603,-2.6021,-2.5612,-2.5601,-2.5168,-2.4828,-2.454,-2.4335,-2.398,-2.3547,-2.3503,-2.3373,-2.3091,-2.2662,-2.2441,-2.2441,-2.223,-2.2221,-2.2392,-2.301,-2.3631,-2.4146,-2.4183,-2.4202,-2.4202,-2.4202,-2.4053,-2.3805,-2.3506,-2.3247,-2.2996,-2.6718,-2.6554,-2.64,-2.6227,-2.6227,-2.6227,-2.6227,-2.6227,-2.6282,-2.6391,-2.6817,-2.7142,-2.7142,-2.7196,-2.726,-2.726,-2.726,-2.7368,-2.753,-2.7368,-2.7368,-2.753,-2.7207,-2.6946,-2.6797,-2.6627,-2.6394,-2.619,-2.567,-2.5333,-2.5122,-2.4692,-2.4271,-2.4,-2.4543,-2.4638,-2.4364,-2.5285,-2.548,-2.5149,-2.5101,-2.4925,-2.4632,-2.4649,-2.4772,-2.4984,-2.5414,-2.5846,-2.6181,-2.6345,-2.6613,-2.6867,-2.6792,-2.6461,-2.6022,-2.5724,-2.565,-2.5625,-2.5771,-2.5914,-2.6087,-2.6304,-2.6377,-2.6424,-2.6726,-2.6737,-2.6787,-2.7245,-2.7458,-2.7574,-2.7684,-2.7574,-2.7412,-2.7412,-2.7167,-2.7003,-2.7097,-2.7056,-2.7085,-2.7452,-2.7493,-2.7441,-2.7348,-2.7085,-2.6727,-2.6396,-2.5895,-2.5517,-2.538,-2.4914,-2.4583,-2.4325,-2.398,-2.3677,-2.3503,-2.3319,-2.3144,-2.2925,-2.2574,-2.2353,-2.223,-2.2213,-2.2355,-2.2666,-2.2924,-2.332,-2.3785,-2.3785,-2.3932,-2.4202,-2.4202,-2.4053,-2.3755,-2.3497,-2.3247,-2.2946,-2.5844,-2.5624,-2.5523,-2.5357,-2.5302,-2.5302,-2.5302,-2.5302,-2.5302,-2.5191,-2.5569,-2.5944,-2.6282,-2.6336,-2.6336,-2.6336,-2.6336,-2.6445,-2.6609,-2.6436,-2.6436,-2.6609,-2.6445,-2.6254,-2.6133,-2.6123,-2.6037,-2.5798,-2.5338,-2.5024,-2.4927,-2.4349,-2.4001,-2.38,-2.423,-2.4224,-2.3976,-2.4798,-2.5017,-2.4816,-2.4787,-2.4668,-2.4546,-2.4381,-2.4532,-2.486,-2.4965,-2.523,-2.5569,-2.5569,-2.6054,-2.6608,-2.6502,-2.6175,-2.581,-2.534,-2.5082,-2.4994,-2.4871,-2.5069,-2.5382,-2.5523,-2.5597,-2.5744,-2.6008,-2.5847,-2.5702,-2.6066,-2.6314,-2.655,-2.6787,-2.6715,-2.6603,-2.6603,-2.6479,-2.6396,-2.6396,-2.6396,-2.6509,-2.6857,-2.6899,-2.694,-2.7033,-2.6839,-2.652,-2.6157,-2.5728,-2.538,-2.5115,-2.4668,-2.4231,-2.3841,-2.3607,-2.34,-2.3099,-2.3042,-2.2882,-2.2662,-2.2441,-2.2286,-2.2283,-2.229,-2.251,-2.2904,-2.2776,-2.3014,-2.3499,-2.3499,-2.3785,-2.4202,-2.4102,-2.3904,-2.3655,-2.3397,-2.3097,-2.2846,-2.4898,-2.4582,-2.4432,-2.4432,-2.4432,-2.4432,-2.4432,-2.4432,-2.432,-2.3977,-2.3921,-2.4415,-2.5578,-2.5734,-2.5734,-2.5734,-2.5734,-2.5734,-2.5743,-2.5734,-2.5734,-2.5743,-2.5734,-2.5734,-2.5734,-2.5734,-2.5493,-2.5111,-2.5102,-2.4738,-2.4008,-2.3827,-2.3553,-2.3305,-2.3739,-2.3706,-2.3321,-2.3756,-2.3921,-2.3921,-2.3913,-2.369,-2.3338,-2.3764,-2.4005,-2.4282,-2.4641,-2.5,-2.5221,-2.5221,-2.5055,-2.4953,-2.5505,-2.5413,-2.5031,-2.4615,-2.4441,-2.4251,-2.3845,-2.4134,-2.4578,-2.4824,-2.5128,-2.547,-2.5984,-2.5595,-2.5122,-2.5178,-2.5369,-2.558,-2.5853,-2.5895,-2.5895,-2.5895,-2.5895,-2.5895,-2.5895,-2.5895,-2.5968,-2.6196,-2.6227,-2.6321,-2.6603,-2.6365,-2.6104,-2.5906,-2.5464,-2.5115,-2.4903,-2.4454,-2.3788,-2.2931,-2.3285,-2.3089,-2.2231,-2.2592,-2.2662,-2.2397,-2.2185,-2.2302,-2.2684,-2.241,-2.251,-2.2885,-2.2465,-2.2748,-2.3499,-2.3499,-2.3785,-2.4152,-2.3904,-2.3646,-2.3347,-2.3097,-2.2846,-2.2594,-2.429,-2.4136,-2.4033,-2.4033,-2.4033,-2.4033,-2.4033,-2.4033,-2.4033,-2.3913,-2.3921,-2.4033,-2.4415,-2.447,-2.447,-2.447,-2.447,-2.447,-2.447,-2.447,-2.447,-2.447,-2.447,-2.4582,-2.4812,-2.4812,-2.4863,-2.489,-2.4413,-2.3962,-2.3519,-2.3566,-2.3517,-2.3414,-2.3584,-2.3575,-2.3469,-2.376,-2.3921,-2.3921,-2.3921,-2.3847,-2.3692,-2.3871,-2.3958,-2.4033,-2.415,-2.4239,-2.4295,-2.4295,-2.4248,-2.4248,-2.4415,-2.4484,-2.4432,-2.4042,-2.3713,-2.3434,-2.3193,-2.3279,-2.3529,-2.3985,-2.4134,-2.4332,-2.4873,-2.489,-2.4749,-2.4676,-2.4712,-2.4784,-2.4913,-2.4935,-2.4935,-2.4935,-2.4935,-2.4935,-2.4935,-2.4935,-2.5105,-2.5485,-2.5527,-2.5611,-2.5832,-2.5748,-2.5633,-2.5464,-2.4999,-2.47,-2.4615,-2.39,-2.3348,-2.2911,-2.2699,-2.2485,-2.2188,-2.2417,-2.2397,-2.2185,-2.2141,-2.237,-2.2852,-2.2758,-2.2785,-2.2885,-2.2465,-2.2593,-2.3096,-2.3096,-2.3441,-2.3904,-2.3845,-2.3497,-2.3097,-2.3046,-2.2846,-2.2594,-2.3883,-2.3641,-2.3576,-2.3576,-2.3576,-2.3576,-2.3576,-2.3576,-2.3576,-2.3576,-2.3576,-2.3576,-2.3576,-2.3576,-2.3632,-2.3865,-2.3921,-2.3921,-2.3921,-2.3921,-2.3921,-2.3921,-2.3921,-2.3977,-2.4209,-2.4209,-2.4303,-2.4462,-2.3958,-2.3566,-2.3353,-2.3303,-2.3304,-2.3304,-2.3304,-2.3304,-2.3304,-2.3472,-2.3576,-2.3576,-2.3576,-2.3576,-2.3576,-2.3576,-2.3641,-2.3753,-2.3753,-2.3753,-2.3753,-2.3753,-2.3585,-2.3416,-2.3416,-2.3422,-2.3404,-2.3384,-2.3178,-2.2891,-2.257,-2.2526,-2.2677,-2.3129,-2.3329,-2.3493,-2.3892,-2.4061,-2.4165,-2.4114,-2.4205,-2.4341,-2.454,-2.4568,-2.4561,-2.4528,-2.4421,-2.4316,-2.4143,-2.4036,-2.4166,-2.4605,-2.469,-2.4775,-2.5105,-2.5105,-2.502,-2.4828,-2.454,-2.4282,-2.397,-2.3536,-2.3113,-2.2657,-2.2504,-2.2256,-2.1921,-2.2145,-2.2176,-2.1963,-2.2278,-2.2677,-2.3123,-2.3123,-2.3123,-2.3105,-2.2693,-2.2748,-2.3133,-2.3037,-2.3314,-2.3805,-2.3596,-2.3247,-2.2846,-2.2846,-2.2644,-2.2443,-2.3578,-2.3207,-2.3014,-2.3014,-2.3014,-2.3014,-2.3014,-2.3014,-2.3014,-2.3014,-2.3014,-2.3014,-2.3014,-2.3014,-2.3239,-2.3809,-2.3865,-2.3865,-2.3865,-2.3865,-2.3865,-2.3865,-2.3865,-2.3865,-2.3865,-2.3865,-2.3865,-2.3865,-2.3585,-2.3472,-2.3472,-2.3127,-2.3014,-2.3014,-2.3014,-2.3014,-2.3014,-2.3014,-2.3014,-2.3014,-2.2958,-2.2958,-2.2958,-2.2958,-2.3135,-2.3416,-2.3416,-2.3416,-2.3416,-2.3416,-2.3022,-2.257,-2.257,-2.2343,-2.2204,-2.2589,-2.27,-2.2535,-2.1821,-2.1827,-2.2131,-2.2375,-2.2677,-2.2883,-2.3024,-2.3293,-2.3522,-2.3589,-2.3795,-2.4102,-2.4562,-2.4644,-2.4588,-2.4396,-2.4192,-2.39,-2.3475,-2.3188,-2.3222,-2.3667,-2.3711,-2.3917,-2.437,-2.4413,-2.4337,-2.4153,-2.412,-2.3807,-2.3135,-2.3319,-2.3046,-2.2197,-2.251,-2.2258,-2.1395,-2.1847,-2.1972,-2.1742,-2.2529,-2.3114,-2.3499,-2.3526,-2.3526,-2.3471,-2.3105,-2.316,-2.3499,-2.3199,-2.3336,-2.3696,-2.3147,-2.2736,-2.2426,-2.2493,-2.2333,-2.2123,-2.3606,-2.3205,-2.3014,-2.3014,-2.3014,-2.3014,-2.3014,-2.3014,-2.3014,-2.3014,-2.3014,-2.3014,-2.3014,-2.3014,-2.307,-2.3183,-2.3183,-2.3183,-2.3183,-2.3183,-2.3183,-2.3183,-2.3183,-2.3183,-2.3183,-2.3183,-2.3183,-2.3183,-2.3127,-2.3127,-2.3127,-2.3022,-2.3014,-2.3014,-2.3014,-2.3014,-2.3014,-2.3014,-2.3014,-2.2958,-2.2796,-2.2683,-2.2683,-2.24,-2.2343,-2.2456,-2.2456,-2.2456,-2.2456,-2.2456,-2.2343,-2.223,-2.223,-2.2165,-2.2035,-2.162,-2.1626,-2.1692,-2.1211,-2.1275,-2.1573,-2.1827,-2.2224,-2.2601,-2.2615,-2.3205,-2.3699,-2.3531,-2.3745,-2.3937,-2.3954,-2.3934,-2.379,-2.3441,-2.3319,-2.313,-2.2719,-2.2618,-2.2696,-2.3013,-2.3023,-2.3144,-2.3396,-2.344,-2.3396,-2.3353,-2.3232,-2.3067,-2.2882,-2.275,-2.2427,-2.1931,-2.1791,-2.1618,-2.1395,-2.1662,-2.1932,-2.2144,-2.2657,-2.3114,-2.3508,-2.3868,-2.384,-2.3489,-2.3398,-2.3407,-2.3499,-2.3199,-2.309,-2.3079,-2.2736,-2.2333,-2.1878,-2.1928,-2.1979,-2.2131,-2.3235,-2.3051,-2.292,-2.265,-2.2562,-2.2562,-2.2562,-2.2732,-2.2796,-2.2796,-2.2901,-2.3014,-2.3014,-2.3014,-2.3014,-2.3014,-2.3014,-2.3014,-2.3014,-2.3014,-2.3014,-2.3014,-2.3014,-2.307,-2.3247,-2.307,-2.3014,-2.3014,-2.3014,-2.2958,-2.2796,-2.2796,-2.2732,-2.2619,-2.274,-2.274,-2.2619,-2.274,-2.274,-2.2562,-2.2456,-2.2343,-2.2343,-2.2173,-2.2116,-2.2116,-2.2116,-2.2116,-2.2116,-2.2116,-2.2002,-2.1945,-2.1945,-2.1831,-2.162,-2.1048,-2.1106,-2.1209,-2.0685,-2.0652,-2.0858,-2.1216,-2.1725,-2.2182,-2.2274,-2.2787,-2.3235,-2.3417,-2.3675,-2.3904,-2.4029,-2.4078,-2.3918,-2.3389,-2.3157,-2.2758,-2.2171,-2.19,-2.1856,-2.2141,-2.2141,-2.223,-2.2441,-2.2441,-2.2441,-2.2441,-2.2353,-2.2274,-2.2141,-2.2008,-2.195,-2.1945,-2.1805,-2.1674,-2.1542,-2.1675,-2.198,-2.2565,-2.2794,-2.3206,-2.3831,-2.4101,-2.4082,-2.3822,-2.3675,-2.3626,-2.3626,-2.3233,-2.2895,-2.2677,-2.2426,-2.1979,-2.1522,-2.1674,-2.1725,-2.1776,-2.2938,-2.2921,-2.2825,-2.2181,-2.2033,-2.1995,-2.1995,-2.223,-2.2456,-2.2456,-2.274,-2.2958,-2.2958,-2.2958,-2.3014,-2.3014,-2.3014,-2.3014,-2.3014,-2.3014,-2.3014,-2.3014,-2.3014,-2.3135,-2.3472,-2.3247,-2.307,-2.307,-2.3014,-2.2853,-2.257,-2.257,-2.24,-2.2116,-2.24,-2.2343,-2.2108,-2.2346,-2.2289,-2.2108,-2.1998,-2.2013,-2.2059,-2.2002,-2.1945,-2.1945,-2.1945,-2.1945,-2.1945,-2.1945,-2.1831,-2.1611,-2.1611,-2.1439,-2.1145,-2.0823,-2.0818,-2.0856,-2.0278,-2.0124,-2.0292,-2.0712,-2.1224,-2.1725,-2.1979,-2.2274,-2.2677,-2.3297,-2.3596,-2.3895,-2.4332,-2.4381,-2.4228,-2.3664,-2.3157,-2.2583,-2.1798,-2.1311,-2.1096,-2.1293,-2.1302,-2.1347,-2.1517,-2.1562,-2.1562,-2.1562,-2.1597,-2.1508,-2.1347,-2.1347,-2.1517,-2.1909,-2.1963,-2.1919,-2.1696,-2.1696,-2.2099,-2.2904,-2.2904,-2.3373,-2.4202,-2.4202,-2.4202,-2.4152,-2.3904,-2.3805,-2.3696,-2.3147,-2.2736,-2.2426,-2.2072,-2.1674,-2.1275,-2.1522,-2.1471,-2.1377,-2.3474,-2.3001,-2.2546,-2.2145,-2.184,-2.1596,-2.1353,-2.1588,-2.1767,-2.1767,-2.2279,-2.2683,-2.2683,-2.2853,-2.3014,-2.3014,-2.3014,-2.3014,-2.3014,-2.3014,-2.3014,-2.3014,-2.3014,-2.3135,-2.3472,-2.3472,-2.3416,-2.3416,-2.3127,-2.2853,-2.257,-2.257,-2.24,-2.2116,-2.2173,-2.2173,-2.2093,-2.1859,-2.1905,-2.2029,-2.1523,-2.1527,-2.1725,-2.1432,-2.1325,-2.1325,-2.1325,-2.1325,-2.1325,-2.1325,-2.1325,-2.1268,-2.1268,-2.1268,-2.1145,-2.0823,-2.0549,-2.0313,-2.0203,-2.0315,-2.0462,-2.0522,-2.0976,-2.142,-2.1725,-2.2123,-2.2677,-2.3297,-2.3596,-2.3805,-2.3904,-2.3895,-2.37,-2.2978,-2.2581,-2.2158,-2.1666,-2.1255,-2.0997,-2.1051,-2.0916,-2.0835,-2.0835,-2.088,-2.088,-2.088,-2.1006,-2.1087,-2.1042,-2.1042,-2.1096,-2.1177,-2.1383,-2.1571,-2.1696,-2.1696,-2.2099,-2.2904,-2.2904,-2.3373,-2.4202,-2.4202,-2.4102,-2.3854,-2.3805,-2.3646,-2.3397,-2.2837,-2.2426,-2.2123,-2.1623,-2.1224,-2.0976,-2.1027,-2.1121,-2.1318,-2.3148,-2.2811,-2.2379,-2.173,-2.1314,-2.1039,-2.0752,-2.0952,-2.1189,-2.1375,-2.1945,-2.24,-2.257,-2.2853,-2.3014,-2.3014,-2.3014,-2.3014,-2.3014,-2.3014,-2.3014,-2.3014,-2.3014,-2.307,-2.3247,-2.3416,-2.3416,-2.3247,-2.307,-2.2796,-2.2343,-2.2343,-2.2059,-2.1603,-2.1774,-2.1677,-2.1342,-2.159,-2.1534,-2.1342,-2.1252,-2.1306,-2.1439,-2.1268,-2.1211,-2.1211,-2.1211,-2.1211,-2.1211,-2.1211,-2.1211,-2.1211,-2.1211,-2.1211,-2.1181,-2.1028,-2.0508,-1.9962,-1.9745,-2.0008,-2.03,-2.03,-2.0814,-2.1369,-2.1623,-2.1979,-2.2485,-2.3046,-2.3297,-2.3397,-2.3546,-2.3596,-2.3322,-2.2579,-2.2184,-2.1807,-2.1235,-2.0706,-2.0419,-2.0419,-2.0246,-2.0119,-2.0119,-2.0119,-2.0164,-2.0246,-2.0374,-2.0464,-2.06,-2.06,-2.069,-2.0826,-2.1203,-2.1482,-2.1696,-2.1696,-2.1989,-2.2574,-2.2662,-2.3015,-2.3635,-2.3705,-2.3696,-2.3596,-2.3447,-2.3197,-2.2887,-2.2485,-2.2021,-2.1623,-2.142,-2.1121,-2.0925,-2.0925,-2.0968,-2.1121,-2.2845,-2.2613,-2.2197,-2.1344,-2.0892,-2.051,-2.0146,-2.0328,-2.0551,-2.0859,-2.1489,-2.2002,-2.223,-2.2562,-2.2845,-2.2901,-2.2909,-2.2909,-2.2909,-2.2909,-2.2901,-2.3014,-2.307,-2.3127,-2.3127,-2.336,-2.336,-2.3127,-2.3014,-2.2675,-2.2116,-2.2116,-2.1774,-2.1211,-2.1497,-2.1299,-2.0845,-2.1304,-2.1225,-2.0852,-2.1028,-2.1137,-2.1211,-2.1211,-2.1211,-2.1211,-2.1211,-2.1211,-2.1211,-2.1211,-2.1211,-2.1211,-2.1211,-2.1211,-2.1196,-2.1172,-2.0623,-1.9901,-1.9516,-1.9732,-2.0078,-2.0078,-2.0704,-2.1369,-2.1623,-2.1928,-2.2274,-2.2896,-2.2996,-2.3046,-2.3147,-2.3197,-2.2915,-2.2178,-2.175,-2.1333,-2.0815,-2.0209,-1.9845,-1.9882,-1.9662,-1.9487,-1.9487,-1.9487,-1.9625,-1.9799,-1.9891,-2.0019,-2.0292,-2.0292,-2.0419,-2.0736,-2.1159,-2.1482,-2.1607,-2.1696,-2.1888,-2.2282,-2.2515,-2.2781,-2.312,-2.3368,-2.3397,-2.3297,-2.3097,-2.2787,-2.2375,-2.2123,-2.1725,-2.1267,-2.1224,-2.107,-2.0925,-2.0925,-2.0925,-2.0925,-2.3076,-2.2581,-2.1965,-2.1329,-2.075,-2.0112,-1.9522,-1.9707,-1.9873,-1.9931,-2.0687,-2.1268,-2.1325,-2.1831,-2.2286,-2.257,-2.2626,-2.2626,-2.2626,-2.2626,-2.274,-2.3014,-2.3304,-2.3472,-2.3472,-2.348,-2.3472,-2.3472,-2.3127,-2.2675,-2.2116,-2.2116,-2.1774,-2.1211,-2.1211,-2.1196,-2.1159,-2.0874,-2.0918,-2.1152,-2.0867,-2.094,-2.1211,-2.1211,-2.1211,-2.1211,-2.1211,-2.1211,-2.1211,-2.1211,-2.1211,-2.1211,-2.1211,-2.1211,-2.1209,-2.1118,-2.0813,-2.0408,-1.9821,-1.9879,-2.0078,-2.0078,-2.0704,-2.1369,-2.1623,-2.1928,-2.2274,-2.2896,-2.2996,-2.2896,-2.2627,-2.2577,-2.2298,-2.1437,-2.0981,-2.072,-2.0572,-1.9987,-1.9671,-1.9882,-1.9509,-1.9234,-1.9234,-1.9234,-1.9333,-1.9587,-1.9799,-2.0019,-2.0292,-2.0292,-2.051,-2.0952,-2.1248,-2.1401,-2.1446,-2.1607,-2.1888,-2.2282,-2.2712,-2.2971,-2.312,-2.3565,-2.3497,-2.3046,-2.2996,-2.2695,-2.2131,-2.1827,-2.1573,-2.1275,-2.1027,-2.0925,-2.0925,-2.0925,-2.0925,-2.0925,-2.3106,-2.2762,-2.2146,-2.1339,-2.0856,-2.0264,-1.9497,-1.9482,-1.9591,-1.9758,-2.0277,-2.0802,-2.1153,-2.1546,-2.2002,-2.257,-2.257,-2.257,-2.257,-2.257,-2.2626,-2.274,-2.3022,-2.3183,-2.3183,-2.3183,-2.3183,-2.3183,-2.307,-2.2675,-2.2116,-2.2116,-2.1774,-2.1211,-2.1211,-2.1094,-2.0911,-2.0991,-2.0976,-2.0911,-2.0998,-2.1101,-2.1211,-2.1211,-2.1211,-2.1211,-2.1211,-2.1211,-2.1211,-2.1211,-2.1211,-2.1211,-2.1211,-2.1211,-2.1215,-2.1121,-2.0848,-2.0521,-2.0297,-2.0256,-2.0359,-2.0359,-2.0814,-2.1326,-2.1428,-2.1674,-2.1928,-2.2131,-2.2182,-2.2131,-2.203,-2.1979,-2.1753,-2.1089,-2.0794,-2.0537,-2.0063,-1.9608,-1.9379,-1.9471,-1.915,-1.8958,-1.8958,-1.8958,-1.9058,-1.9333,-1.9579,-1.9808,-2.0019,-2.0201,-2.0473,-2.0781,-2.1006,-2.1284,-2.1562,-2.1651,-2.1769,-2.1925,-2.2397,-2.2598,-2.2481,-2.3063,-2.3097,-2.2745,-2.2745,-2.2392,-2.1827,-2.1725,-2.142,-2.1019,-2.0917,-2.0925,-2.0925,-2.0925,-2.0925,-2.0925,-2.3106,-2.2863,-2.2317,-2.1486,-2.1015,-2.0427,-1.9638,-1.9426,-1.9482,-1.9642,-1.9931,-2.0277,-2.0744,-2.1081,-2.1531,-2.2116,-2.223,-2.2294,-2.2294,-2.2294,-2.2343,-2.2456,-2.2619,-2.2732,-2.2732,-2.2845,-2.2845,-2.2845,-2.2958,-2.274,-2.223,-2.2173,-2.1831,-2.1325,-2.1268,-2.1086,-2.0889,-2.1115,-2.1079,-2.0896,-2.1123,-2.1211,-2.1211,-2.1211,-2.1211,-2.1211,-2.1211,-2.1211,-2.1211,-2.1211,-2.1211,-2.1211,-2.1211,-2.1194,-2.1117,-2.0988,-2.0803,-2.0566,-2.0392,-2.0351,-2.0411,-2.047,-2.0925,-2.1326,-2.1326,-2.1522,-2.1725,-2.1725,-2.1623,-2.1522,-2.1471,-2.1428,-2.1255,-2.0648,-2.05,-2.0288,-1.9779,-1.9321,-1.9104,-1.9188,-1.8966,-1.8781,-1.8781,-1.8781,-1.892,-1.9188,-1.9442,-1.9716,-2.0019,-2.0292,-2.0518,-2.0781,-2.1006,-2.132,-2.1696,-2.1696,-2.1696,-2.1705,-2.2334,-2.2479,-2.2268,-2.2844,-2.2996,-2.2695,-2.2544,-2.2182,-2.1674,-2.1623,-2.1326,-2.0925,-2.0925,-2.0925,-2.0925,-2.0925,-2.0925,-2.0925,-2.3106,-2.2863,-2.2388,-2.1835,-2.1154,-2.0489,-1.9906,-1.9553,-1.9424,-1.9424,-1.9649,-1.9815,-1.9815,-2.0321,-2.0845,-2.1153,-2.1497,-2.1725,-2.1725,-2.1725,-2.1831,-2.2059,-2.2116,-2.2116,-2.2116,-2.2456,-2.257,-2.257,-2.2853,-2.2853,-2.257,-2.2286,-2.1945,-2.1668,-2.1325,-2.1211,-2.1211,-2.1211,-2.1211,-2.1211,-2.1211,-2.1211,-2.1211,-2.1211,-2.1211,-2.1211,-2.1211,-2.1211,-2.1211,-2.1211,-2.1211,-2.1211,-2.1211,-2.1154,-2.1037,-2.0701,-2.0588,-2.0513,-2.0178,-2.0078,-2.0138,-2.0411,-2.0925,-2.1267,-2.1267,-2.1522,-2.1674,-2.1674,-2.1471,-2.1224,-2.0917,-2.0925,-2.0703,-2.0105,-1.9959,-1.9846,-1.9732,-1.919,-1.892,-1.915,-1.8966,-1.8781,-1.8781,-1.8781,-1.892,-1.9188,-1.9442,-1.9808,-2.0292,-2.0564,-2.0781,-2.0988,-2.1248,-2.1482,-2.1696,-2.1696,-2.1696,-2.1705,-2.2519,-2.2762,-2.2506,-2.3149,-2.3247,-2.2946,-2.2384,-2.1928,-2.1674,-2.142,-2.1121,-2.0925,-2.0925,-2.0925,-2.0925,-2.0925,-2.0925,-2.0925,-2.3106,-2.3043,-2.2762,-2.2143,-2.1519,-2.0849,-2.0255,-1.9728,-1.9424,-1.9424,-1.9482,-1.9591,-1.9758,-1.9982,-2.027,-2.0788,-2.1146,-2.1439,-2.1668,-2.1253,-2.1131,-2.1432,-2.1888,-2.2116,-2.2116,-2.223,-2.2343,-2.257,-2.2683,-2.2683,-2.257,-2.2286,-2.1945,-2.1668,-2.1325,-2.1211,-2.1211,-2.1211,-2.1211,-2.1211,-2.1211,-2.1211,-2.1211,-2.1211,-2.1211,-2.1211,-2.1211,-2.1211,-2.1211,-2.1211,-2.1211,-2.1211,-2.1211,-2.1154,-2.1037,-2.0701,-2.0588,-2.0513,-2.0178,-2.0078,-2.0138,-2.0189,-2.0344,-2.0447,-2.0447,-2.0542,-2.0593,-2.0593,-2.049,-2.0439,-2.0344,-2.0506,-2.0507,-2.0054,-2.0164,-2.0156,-1.9854,-1.9471,-1.9256,-1.935,-1.9033,-1.8781,-1.8781,-1.8781,-1.8827,-1.892,-1.935,-1.9808,-2.0292,-2.0564,-2.0781,-2.0988,-2.1248,-2.1482,-2.1696,-2.1696,-2.1833,-2.2108,-2.2648,-2.2908,-2.2949,-2.3265,-2.3247,-2.2946,-2.2384,-2.1928,-2.1674,-2.142,-2.1121,-2.0925,-2.0925,-2.0925,-2.0925,-2.0925,-2.0925,-2.0925,-2.3106,-2.3106,-2.2923,-2.2424,-2.1725,-2.1011,-2.0532,-1.9861,-1.9424,-1.9424,-1.9424,-1.9482,-1.9649,-1.9758,-1.9924,-2.0321,-2.068,-2.0917,-2.1146,-2.0788,-2.0615,-2.0859,-2.131,-2.1596,-2.1717,-2.2002,-2.223,-2.24,-2.2626,-2.274,-2.274,-2.2456,-2.2116,-2.1839,-2.1554,-2.1325,-2.1211,-2.1211,-2.1211,-2.1211,-2.1211,-2.1211,-2.1211,-2.1211,-2.1211,-2.1211,-2.1211,-2.1211,-2.1211,-2.1211,-2.1089,-2.1024,-2.1024,-2.0943,-2.0864,-2.0417,-2.0362,-2.0369,-1.9904,-1.9783,-1.9783,-1.9783,-1.9931,-2.0078,-2.0078,-2.0078,-2.0078,-2.0078,-2.0034,-1.9931,-1.9931,-2.0145,-2.029,-2.0073,-2.0229,-2.0321,-2.0156,-1.9829,-1.9566,-1.9431,-1.9177,-1.8986,-1.8843,-1.8781,-1.8881,-1.9112,-1.9396,-1.9875,-2.0514,-2.0889,-2.117,-2.1458,-2.1806,-2.2044,-2.2172,-2.2172,-2.2208,-2.2327,-2.2867,-2.3165,-2.3266,-2.3467,-2.3397,-2.3097,-2.2526,-2.203,-2.1674,-2.142,-2.1121,-2.0925,-2.0925,-2.0925,-2.0925,-2.0925,-2.0925,-2.0925,-2.3106,-2.3084,-2.2937,-2.2625,-2.1803,-2.1092,-2.0731,-1.9956,-1.9424,-1.9424,-1.9424,-1.9424,-1.9424,-1.9649,-1.9758,-1.9758,-2.0046,-2.022,-2.027,-2.027,-2.027,-2.027,-2.0551,-2.0838,-2.1146,-2.1774,-2.2059,-2.2116,-2.2675,-2.2958,-2.3014,-2.2683,-2.24,-2.2116,-2.1782,-2.1497,-2.1211,-2.1211,-2.1211,-2.1211,-2.1211,-2.1211,-2.1211,-2.1211,-2.1211,-2.1211,-2.1211,-2.1211,-2.1211,-2.1211,-2.0967,-2.0716,-2.0716,-2.0658,-2.0551,-2.0022,-1.9993,-2.0051,-1.9484,-1.9294,-1.9279,-1.9279,-1.968,-2.0034,-2.0034,-2.0034,-2.0034,-2.0034,-1.9828,-1.968,-1.968,-1.9879,-2.0078,-2.0078,-2.0292,-2.044,-2.044,-2.018,-1.9853,-1.955,-1.9479,-1.9288,-1.8908,-1.8923,-1.9108,-1.9686,-1.9686,-2.0058,-2.0908,-2.1383,-2.1813,-2.2206,-2.2659,-2.2904,-2.2904,-2.295,-2.2767,-2.2447,-2.3142,-2.3508,-2.3563,-2.3732,-2.3646,-2.3347,-2.2778,-2.2173,-2.1674,-2.142,-2.1121,-2.0925,-2.0925,-2.0925,-2.0925,-2.0925,-2.0925,-2.0925,-2.3062,-2.2901,-2.2664,-2.2602,-2.1831,-2.1126,-2.0837,-2.0172,-1.9649,-1.9424,-1.9424,-1.9424,-1.9424,-1.9424,-1.9482,-1.9482,-1.954,-1.9822,-2.027,-2.004,-2.0046,-2.027,-2.0385,-2.05,-2.078,-2.1432,-2.1896,-2.2116,-2.2513,-2.2788,-2.3014,-2.2449,-2.2173,-2.2059,-2.1554,-2.1268,-2.1211,-2.1211,-2.1211,-2.1211,-2.1211,-2.1211,-2.1211,-2.1211,-2.1211,-2.1211,-2.1211,-2.1211,-2.1211,-2.1211,-2.0967,-2.0716,-2.0716,-2.0551,-2.0372,-2.0237,-2.0063,-1.9837,-1.9709,-1.9522,-1.9279,-1.9279,-1.9376,-1.948,-1.948,-1.948,-1.948,-1.948,-1.9428,-1.9376,-1.9376,-1.9783,-2.0078,-2.0078,-2.0487,-2.0805,-2.0805,-2.0504,-2.0249,-2.0178,-1.9932,-1.9773,-1.9646,-1.9638,-1.9886,-2.0429,-2.0477,-2.0701,-2.1246,-2.1768,-2.2135,-2.2215,-2.2659,-2.2904,-2.2904,-2.3215,-2.3325,-2.3233,-2.3407,-2.3712,-2.4024,-2.3868,-2.3646,-2.3347,-2.2778,-2.2173,-2.1674,-2.142,-2.1121,-2.0925,-2.0925,-2.0925,-2.0925,-2.0925,-2.0925,-2.0873,-2.2637,-2.2528,-2.2418,-2.2418,-2.1763,-2.1078,-2.0857,-2.024,-1.97,-1.9424,-1.9424,-1.9424,-1.9424,-1.9424,-1.9424,-1.9424,-1.9424,-1.954,-1.988,-1.9707,-1.9707,-1.9873,-1.9989,-2.0155,-2.0263,-2.1024,-2.1668,-2.2116,-2.2456,-2.274,-2.3014,-2.257,-2.223,-2.2059,-2.166,-2.1261,-2.0967,-2.0967,-2.0967,-2.0967,-2.0967,-2.1089,-2.1211,-2.1211,-2.1211,-2.1211,-2.1024,-2.0967,-2.0967,-2.1146,-2.091,-2.0493,-2.0493,-2.0378,-2.0272,-2.0139,-2.0158,-2.0149,-1.9894,-1.9691,-1.9522,-1.9316,-1.9279,-1.9279,-1.9279,-1.9279,-1.9279,-1.9279,-1.9279,-1.9279,-1.9279,-1.9732,-2.0078,-2.0078,-2.055,-2.0925,-2.0925,-2.0766,-2.0583,-2.0416,-2.0234,-2.01,-1.9933,-1.9917,-2.0111,-2.0669,-2.0717,-2.0977,-2.163,-2.2171,-2.2588,-2.2775,-2.3278,-2.3529,-2.3529,-2.373,-2.3831,-2.3831,-2.3831,-2.395,-2.4202,-2.4053,-2.3746,-2.3397,-2.3097,-2.2485,-2.1674,-2.1522,-2.1275,-2.0925,-2.0925,-2.0925,-2.0925,-2.0925,-2.0822,-2.0668,-2.2169,-2.214,-2.2096,-2.2096,-2.1625,-2.1144,-2.085,-2.0347,-1.9839,-1.9497,-1.9457,-1.9424,-1.9424,-1.9424,-1.9424,-1.9424,-1.9424,-1.9424,-1.9424,-1.9424,-1.9424,-1.9424,-1.9591,-1.9758,-1.9815,-2.0572,-2.1261,-2.1945,-2.2343,-2.2626,-2.2845,-2.257,-2.2286,-2.2002,-2.1717,-2.1253,-2.0716,-2.0716,-2.0658,-2.0601,-2.0601,-2.0845,-2.1089,-2.1031,-2.1096,-2.1153,-2.0838,-2.0716,-2.0838,-2.1089,-2.0859,-2.0385,-2.0385,-2.0328,-2.0279,-2.0012,-2.0308,-2.0555,-2.0077,-1.9886,-1.9777,-1.9506,-1.9403,-1.9412,-1.9412,-1.9316,-1.9279,-1.9279,-1.9279,-1.9279,-1.9279,-1.968,-2.0034,-2.0078,-2.0506,-2.0873,-2.0865,-2.0925,-2.0813,-2.0519,-2.0488,-2.0369,-2.0124,-2.0092,-2.0345,-2.0842,-2.0891,-2.1268,-2.2073,-2.2582,-2.3019,-2.3388,-2.3904,-2.4152,-2.4202,-2.4202,-2.4202,-2.4202,-2.4202,-2.4202,-2.4202,-2.4202,-2.3904,-2.3397,-2.3397,-2.2736,-2.1725,-2.1725,-2.1369,-2.0925,-2.0925,-2.0925,-2.0925,-2.0925,-2.0719,-2.047,-2.2125,-2.1957,-2.1759,-2.1759,-2.1664,-2.1393,-2.0791,-2.0697,-2.0441,-1.9858,-1.9519,-1.9424,-1.9424,-1.9424,-1.9424,-1.9424,-1.9424,-1.9424,-1.9424,-1.9424,-1.9424,-1.9424,-1.9424,-1.9533,-1.9815,-1.9931,-2.045,-2.1325,-2.1888,-2.2173,-2.223,-2.1945,-2.1782,-2.1725,-2.1439,-2.1081,-2.0716,-2.0716,-2.0551,-2.0328,-2.0328,-2.05,-2.0723,-2.05,-2.0737,-2.1153,-2.0838,-2.0902,-2.1146,-2.1211,-2.0967,-2.0666,-2.0666,-2.0493,-2.0321,-2.0494,-2.048,-2.0377,-2.0562,-2.0391,-2.0164,-2.0113,-1.9901,-1.9749,-1.9749,-1.9529,-1.9279,-1.9279,-1.9279,-1.9279,-1.9279,-1.9532,-1.9828,-2.0078,-2.0351,-2.0617,-2.0873,-2.0925,-2.0901,-2.0853,-2.0853,-2.0829,-2.0782,-2.0977,-2.1231,-2.1534,-2.1778,-2.2105,-2.2517,-2.2826,-2.3094,-2.3397,-2.3696,-2.3954,-2.4202,-2.4202,-2.4202,-2.4202,-2.4202,-2.4202,-2.4202,-2.4202,-2.3904,-2.3397,-2.3397,-2.2736,-2.1725,-2.1725,-2.1369,-2.0925,-2.0925,-2.0925,-2.0925,-2.0925,-2.0719,-2.047,-2.1613,-2.1525,-2.1423,-2.1423,-2.1402,-2.1218,-2.0559,-2.0503,-2.0264,-1.9638,-1.9446,-1.9424,-1.9424,-1.9424,-1.9424,-1.9424,-1.9424,-1.9424,-1.9424,-1.9424,-1.9497,-1.9599,-1.9782,-2.0033,-2.0315,-2.0496,-2.082,-2.1177,-2.1463,-2.1774,-2.2108,-2.1839,-2.1725,-2.1668,-2.1325,-2.0917,-2.0493,-2.0493,-2.0328,-2.004,-2.004,-2.0213,-2.0436,-2.0328,-2.0558,-2.0902,-2.078,-2.0558,-2.0457,-2.0622,-2.0622,-2.0493,-2.0493,-2.0493,-2.0551,-2.0666,-2.0751,-2.0792,-2.0715,-2.0618,-2.0409,-2.0227,-2.0128,-1.9981,-1.9852,-1.9705,-1.9551,-1.9368,-1.9279,-1.9279,-1.9279,-1.9532,-1.9732,-1.9879,-2.0086,-2.03,-2.0454,-2.0447,-2.0506,-2.0668,-2.0822,-2.0925,-2.0925,-2.1027,-2.1275,-2.1674,-2.1827,-2.208,-2.2594,-2.2846,-2.3046,-2.3147,-2.3447,-2.3646,-2.3746,-2.3904,-2.4003,-2.4003,-2.4152,-2.4202,-2.4202,-2.4202,-2.3904,-2.3397,-2.3397,-2.2837,-2.192,-2.1776,-2.1471,-2.1121,-2.0968,-2.0925,-2.0925,-2.0925,-2.0719,-2.0462]},{"header":{"parameterUnit":"m.s-1","parameterCategory":1,"la1":30.6,"la2":28.766,"lo1":-90.7593,"lo2":-88.6598,"dy":0.0162,"dx":0.0183,"nx":116,"ny":114,"refTime":"2023-05-12T06:00:00:Z","depth":0,"parameterNumber":3,"parameterNumberName":"V-component_of_WINDS"},"data":[0.0,0.0,0.0,0.0,0.0,0.0,0.0,0.0,0.0,0.0,0.0,0.0,0.0,0.0,0.0,0.0,0.0,0.0,0.0,0.0,0.0,0.0,0.0,0.0,0.0,0.0,0.0,0.0,0.0,0.0,0.0,0.0,0.0,0.0,0.0,0.0,0.0,0.0,0.0,0.0,0.0,0.0,0.0,0.0,0.0,0.0,0.0,0.0,0.0,0.0,0.0,0.0,0.0,0.0,0.0,0.0,0.0,0.0,0.0,0.0,0.0,0.0,0.0,0.0,0.0,0.0,0.0,0.0,0.0,0.0,0.0,0.0,0.0,0.0,0.0,0.0,0.0,0.0,0.0,0.0,0.0,0.0,0.0,0.0,0.0,0.0,0.0,0.0,0.0,0.0,0.0,0.0,0.0,0.0,0.0,0.0,0.0,0.0,0.0,0.0,0.0,0.0,0.0,0.0,0.0,0.0,0.0,0.0,0.0,0.0,0.0,0.0,0.0,0.0,0.0,0.0,0.0,0.0,0.0,0.0,0.0,0.0,0.0,0.0,0.0,0.0,0.0,0.0,0.0,0.0,0.0,0.0,0.0,0.0,0.0,0.0,0.0,0.0,0.0,0.0,0.0,0.0,0.0,0.0,0.0,0.0,0.0,0.0,0.0,0.0,0.0,0.0,0.0,0.0,0.0,0.0,0.0,0.0,0.0,0.0,0.0,0.0,0.0,0.0,0.0,0.0,0.0,0.0,0.0,0.0,0.0,0.0,0.0,0.0,0.0,0.0,0.0,0.0,0.0,0.0,0.0,0.0,0.0,0.0,0.0,0.0,0.0,0.0,0.0,0.0,0.0,0.0,0.0,0.0,0.0,0.0,0.0,0.0,0.0,0.0,0.0,0.0,0.0,0.0,0.0,0.0,0.0,0.0,0.0,0.0,0.0,0.0,0.0,0.0,0.0,0.0,0.0,0.0,0.0,0.0,0.0,0.0,0.0,0.0,0.0,0.0,0.0,0.0,0.0,0.0,0.0,0.0,0.0,0.0,0.0,0.0,0.0,0.0,0.0,0.0,0.0,0.0,0.0,0.0,0.0,0.0,0.0,0.0,0.0,0.0,0.0,0.0,0.0,0.0,0.0,0.0,0.0,0.0,0.0,0.0,0.0,0.0,0.0,0.0,0.0,0.0,0.0,0.0,0.0,0.0,0.0,0.0,0.0,0.0,0.0,0.0,0.0,0.0,0.0,0.0,0.0,0.0,0.0,0.0,0.0,0.0,0.0,0.0,0.0,0.0,0.0,0.0,0.0,0.0,0.0,0.0,0.0,0.0,0.0,0.0,0.0,0.0,0.0,0.0,0.0,0.0,0.0,0.0,0.0,0.0,0.0,0.0,0.0,0.0,0.0,0.0,0.0,0.0,0.0,0.0,0.0,0.0,0.0,0.0,0.0,0.0,0.0,0.0,0.0,0.0,0.0,0.0,0.0,0.0,0.0,0.0,0.0,0.0,0.0,0.0,0.0,0.0,0.0,0.0,0.0,0.0,0.0,0.0,0.0,0.0,0.0,0.0,0.0,0.0,0.0,0.0,0.0,0.0,0.0,0.0,0.0,0.0,0.0,0.0,0.0,0.0,0.0,0.0,0.0,0.0,0.0,0.0,0.0,0.0,0.0,0.0,0.0,0.0,0.0,0.0,0.0,0.0,0.0,0.0,0.0,0.0,0.0,0.0,0.0,0.0,0.0,0.0,0.0,0.0,0.0,0.0,0.0,0.0,0.0,0.0,0.0,0.0,0.0,0.0,0.0,0.0,0.0,0.0,0.0,0.0,0.0,0.0,0.0,0.0,0.0,0.0,0.0,0.0,0.0,0.0,0.0,0.0,0.0,0.0,0.0,0.0,0.0,0.0,0.0,0.0,0.0,0.0,0.0,0.0,0.0,0.0,0.0,0.0,0.0,0.0,0.0,0.0,0.0,0.0,0.0,0.0,0.0,0.0,0.0,0.0,0.0,0.0,0.0,0.0,0.0,0.0,0.0,0.0,0.0,0.0,0.0,0.0,0.0,0.0,0.0,0.0,0.0,0.0,0.0,0.0,0.0,0.0,0.0,0.0,0.0,0.0,0.0,0.0,0.0,0.0,0.0,0.0,0.0,0.0,0.0,0.0,0.0,0.0,0.0,0.0,0.0,0.0,0.0,0.0,0.0,0.0,0.0,0.0,0.0,0.0,0.0,0.0,0.0,0.0,0.0,0.0,0.0,0.0,0.0,0.0,0.0,0.0,0.0,0.0,0.0,0.0,0.0,0.0,0.0,0.0,0.0,0.0,0.0,0.0,0.0,0.0,0.0,0.0,0.0,0.0,0.0,0.0,0.0,0.0,0.0,0.0,0.0,0.0,0.0,0.0,0.0,0.0,0.0,0.0,0.0,0.0,0.0,0.0,0.0,0.0,0.0,0.0,0.0,0.0,0.0,0.0,0.0,0.0,0.0,0.0,0.0,0.0,0.0,0.0,0.0,0.0,0.0,0.0,0.0,0.0,0.0,0.0,0.0,0.0,0.0,0.0,0.0,0.0,0.0,0.0,0.0,0.0,0.0,0.0,0.0,0.0,0.0,0.0,0.0,0.0,0.0,0.0,0.0,0.0,0.0,0.0,0.0,0.0,0.0,0.0,0.0,0.0,0.0,0.0,0.0,0.0,0.0,0.0,0.0,0.0,0.0,0.0,0.0,0.0,0.0,0.0,0.0,0.0,0.0,0.0,0.0,0.0,0.0,0.0,0.0,0.0,0.0,0.0,0.0,0.0,0.0,0.0,0.0,0.0,0.0,0.0,0.0,0.0,0.0,0.0,0.0,0.0,0.0,0.0,0.0,0.0,0.0,0.0,0.0,0.0,0.0,0.0,0.0,0.0,0.0,0.0,0.0,0.0,0.0,0.0,0.0,0.0,0.0,0.0,0.0,0.0,0.0,0.0,0.0,0.0,0.0,0.0,0.0,0.0,0.0,0.0,0.0,0.0,0.0,0.0,0.0,0.0,0.0,0.0,0.0,0.0,0.0,0.0,0.0,0.0,0.0,0.0,0.0,0.0,0.0,0.0,0.0,0.0,0.0,0.0,0.0,0.0,0.0,0.0,0.0,0.0,0.0,0.0,0.0,0.0,0.0,0.0,0.0,0.0,0.0,0.0,0.0,0.0,0.0,0.0,0.0,0.0,0.0,0.0,0.0,0.0,0.0,0.0,0.0,0.0,0.0,0.0,0.0,0.0,0.0,0.0,0.0,0.0,0.0,0.0,0.0,0.0,0.0,0.0,0.0,0.0,0.0,0.0,0.0,0.0,0.0,0.0,0.0,0.0,0.0,0.0,0.0,0.0,0.0,0.0,0.0,0.0,0.0,0.0,0.0,0.0,0.0,0.0,0.0,0.0,0.0,0.0,0.0,0.0,0.0,0.0,0.0,0.0,0.0,0.0,0.0,0.0,0.0,0.0,0.0,0.0,0.0,0.0,0.0,0.0,0.0,0.0,0.0,0.0,0.0,0.0,0.0,0.0,0.0,0.0,0.0,0.0,0.0,0.0,0.0,0.0,0.0,0.0,0.0,0.0,0.0,0.0,0.0,0.0,0.0,0.0,0.0,0.0,0.0,0.0,0.0,0.0,0.0,0.0,0.0,0.0,0.0,0.0,0.0,0.0,0.0,0.0,0.0,0.0,0.0,0.0,0.0,0.0,0.0,0.0,0.0,0.0,0.0,0.0,0.0,0.0,0.0,0.0,0.0,0.0,0.0,0.0,0.0,0.0,0.0,0.0,0.0,0.0,0.0,0.0,0.0,0.0,0.0,0.0,0.0,0.0,0.0,0.0,0.0,0.0,0.0,0.0,0.0,0.0,0.0,0.0,0.0,0.0,0.0,0.0,0.0,0.0,0.0,0.0,0.0,0.0,0.0,0.0,0.0,0.0,0.0,0.0,0.0,0.0,0.0,0.0,0.0,0.0,0.0,0.0,0.0,0.0,0.0,0.0,0.0,0.0,0.0,0.0,0.0,0.0,0.0,0.0,0.0,0.0,0.0,0.0,0.0,0.0,0.0,0.0,0.0,0.0,0.0,0.0,0.0,0.0,0.0,0.0,0.0,0.0,0.0,0.0,0.0,0.0,0.0,0.0,0.0,0.0,0.0,0.0,0.0,0.0,0.0,0.0,0.0,0.0,0.0,0.0,0.0,0.0,0.0,0.0,0.0,0.0,0.0,0.0,0.0,0.0,0.0,0.0,0.0,0.0,0.0,0.0,0.0,0.0,0.0,0.0,0.0,0.0,0.0,0.0,0.0,0.0,0.0,0.0,0.0,0.0,0.0,0.0,0.0,0.0,0.0,0.0,0.0,0.0,0.0,0.0,0.0,0.0,0.0,0.0,0.0,0.0,0.0,0.0,0.0,0.0,0.0,0.0,0.0,0.0,0.0,0.0,0.0,0.0,0.0,0.0,0.0,0.0,0.0,0.0,0.0,0.0,0.0,0.0,0.0,0.0,0.0,0.0,0.0,0.0,0.0,0.0,0.0,0.0,0.0,0.0,0.0,0.0,0.0,0.0,0.0,0.0,0.0,0.0,0.0,0.0,0.0,0.0,0.0,0.0,0.0,0.0,0.0,0.0,0.0,0.0,0.0,0.0,0.0,0.0,0.0,0.0,0.0,0.0,0.0,0.0,0.0,0.0,0.0,0.0,0.0,0.0,0.0,0.0,0.0,0.0,0.0,0.0,0.0,0.0,0.0,0.0,0.0,0.0,0.0,0.0,0.0,0.0,0.0,0.0,0.0,0.0,0.0,0.0,0.0,0.0,0.0,0.0,0.0,0.0,0.0,0.0,0.0,0.0,0.0,0.0,0.0,0.0,0.0,0.0,0.0,0.0,0.0,0.0,0.0,0.0,0.0,0.0,0.0,0.0,0.0,0.0,0.0,0.0,0.0,0.0,0.0,0.0,0.0,0.0,0.0,0.0,0.0,0.0,0.0,0.0,0.0,0.0,0.0,0.0,0.0,0.0,0.0,0.0,0.0,0.0,0.0,0.0,0.0,0.0,0.0,0.0,0.0,0.0,0.0,0.0,0.0,0.0,0.0,0.0,0.0,0.0,0.0,0.0,0.0,0.0,0.0,0.0,0.0,0.0,0.0,0.0,0.0,0.0,0.0,0.0,0.0,0.0,0.0,0.0,0.0,0.0,0.0,0.0,0.0,0.0,0.0,0.0,0.0,0.0,0.0,0.0,0.0,0.0,0.0,0.0,0.0,0.0,0.0,0.0,0.0,0.0,0.0,0.0,0.0,0.0,0.0,0.0,0.0,0.0,0.0,0.0,0.0,0.0,0.0,0.0,0.0,0.0,0.0,0.0,0.0,0.0,0.0,0.0,0.0,0.0,0.0,0.0,0.0,0.0,0.0,0.0,0.0,0.0,0.0,0.0,0.0,0.0,0.0,0.0,0.0,0.0,0.0,0.0,0.0,0.0,0.0,0.0,0.0,0.0,0.0,0.0,0.0,0.0,0.0,0.0,0.0,0.0,0.0,0.0,0.0,0.0,0.0,0.0,0.0,0.0,0.0,0.0,0.0,0.0,0.0,0.0,0.0,0.0,0.0,0.0,0.0,0.0,0.0,0.0,0.0,0.0,0.0,0.0,0.0,0.0,0.0,0.0,0.0,0.0,0.0,0.0,0.0,0.0,0.0,0.0,0.0,0.0,0.0,0.0,0.0,0.0,0.0,0.0,0.0,0.0,0.0,0.0,0.0,0.0,0.0,0.0,0.0,0.0,0.0,0.0,0.0,0.0,0.0,0.0,0.0,0.0,0.0,0.0,0.0,0.0,0.0,0.0,0.0,0.0,0.0,0.0,0.0,0.0,0.0,0.0,0.0,0.0,0.0,0.0,0.0,0.0,0.0,0.0,0.0,0.0,0.0,0.0,0.0,0.0,0.0,0.0,0.0,0.0,0.0,0.0,0.0,0.0,0.0,0.0,0.0,0.0,0.0,0.0,0.0,0.0,0.0,0.0,0.0,0.0,0.0,0.0,0.0,0.0,0.0,0.0,0.0,0.0,0.0,0.0,0.0,0.0,0.0,0.0,0.0,0.0,0.0,0.0,2.3655,2.2282,0.0,0.0,0.0,0.0,0.0,0.0,0.0,0.0,0.0,0.0,0.0,0.0,0.0,0.0,0.0,0.0,0.0,0.0,0.0,0.0,0.0,0.0,0.0,0.0,0.0,0.0,0.0,0.0,0.0,0.0,0.0,0.0,0.0,0.0,0.0,0.0,0.0,2.7785,2.8733,2.961,3.0351,2.8869,2.7452,2.613,0.0,0.0,0.0,0.0,0.0,0.0,0.0,0.0,0.0,0.0,0.0,0.0,0.0,0.0,0.0,0.0,0.0,0.0,0.0,0.0,0.0,0.0,0.0,0.0,0.0,0.0,0.0,0.0,0.0,0.0,0.0,0.0,0.0,0.0,0.0,0.0,0.0,0.0,0.0,0.0,0.0,0.0,0.0,0.0,0.0,0.0,0.0,0.0,0.0,0.0,0.0,0.0,0.0,0.0,0.0,0.0,0.0,0.0,0.0,0.0,0.0,0.0,0.0,0.0,0.0,0.0,0.0,0.0,0.0,0.0,2.6475,2.4925,0.0,0.0,0.0,0.0,0.0,0.0,0.0,0.0,0.0,0.0,0.0,0.0,0.0,0.0,0.0,0.0,0.0,0.0,0.0,0.0,0.0,0.0,0.0,2.537,2.509,2.4696,2.4509,2.4205,0.0,0.0,0.0,0.0,0.0,0.0,2.6061,2.7014,2.8182,2.9653,3.0639,3.1905,3.3403,3.2831,3.1406,2.9286,2.842,0.0,0.0,0.0,0.0,0.0,0.0,0.0,0.0,0.0,0.0,0.0,0.0,0.0,0.0,0.0,0.0,0.0,0.0,0.0,0.0,0.0,0.0,0.0,0.0,0.0,0.0,0.0,0.0,0.0,0.0,0.0,0.0,0.0,0.0,0.0,0.0,0.0,0.0,0.0,0.0,0.0,0.0,0.0,0.0,0.0,0.0,0.0,0.0,0.0,0.0,0.0,0.0,0.0,0.0,0.0,0.0,0.0,0.0,0.0,0.0,0.0,0.0,0.0,3.1796,3.1754,3.172,3.172,3.1853,3.191,2.9382,2.7952,2.7335,2.6638,0.0,0.0,0.0,0.0,0.0,0.0,0.0,0.0,0.0,0.0,0.0,0.0,0.0,0.0,0.0,0.0,0.0,0.0,0.0,0.0,0.0,2.6522,2.6242,2.6144,2.5781,2.5453,2.5147,0.0,0.0,0.0,0.0,0.0,2.7586,2.8515,2.982,3.1473,3.3985,3.584,3.6997,3.6639,3.5889,3.4774,3.1252,2.9121,2.8079,0.0,0.0,0.0,0.0,0.0,0.0,0.0,0.0,0.0,0.0,0.0,0.0,0.0,0.0,0.0,0.0,0.0,0.0,0.0,0.0,0.0,0.0,0.0,0.0,0.0,0.0,0.0,0.0,0.0,0.0,0.0,0.0,0.0,0.0,0.0,0.0,0.0,0.0,0.0,0.0,0.0,2.7508,2.7988,0.0,0.0,0.0,0.0,0.0,0.0,0.0,0.0,0.0,0.0,0.0,0.0,0.0,3.4155,3.4155,3.4997,3.541,3.5429,3.5011,3.4727,3.4548,3.4548,3.4494,3.4339,3.3758,0.0,3.0085,2.9866,0.0,0.0,0.0,0.0,0.0,0.0,0.0,0.0,0.0,0.0,0.0,0.0,0.0,0.0,0.0,0.0,0.0,0.0,0.0,0.0,0.0,2.8162,2.8258,2.8142,2.8226,2.796,2.7198,2.7076,0.0,0.0,0.0,2.7469,2.8502,2.9362,3.1244,3.4149,3.6335,3.8043,3.9299,3.9354,3.9082,3.8437,3.6357,3.3645,3.0572,2.9572,0.0,0.0,0.0,0.0,0.0,0.0,0.0,0.0,0.0,0.0,0.0,0.0,0.0,0.0,0.0,0.0,0.0,0.0,0.0,0.0,0.0,0.0,0.0,0.0,0.0,0.0,0.0,0.0,0.0,0.0,0.0,0.0,0.0,0.0,0.0,0.0,0.0,0.0,0.0,2.9098,2.9429,2.9258,2.9688,2.9945,0.0,0.0,0.0,0.0,0.0,0.0,0.0,0.0,0.0,3.4502,3.5559,3.6383,3.699,3.6997,3.7048,3.7145,3.6613,3.6259,3.6103,3.6182,3.6135,3.5978,3.582,3.5083,3.3915,3.2484,3.1609,3.1146,0.0,0.0,0.0,0.0,3.0737,3.0694,0.0,0.0,0.0,0.0,0.0,0.0,0.0,0.0,0.0,0.0,0.0,0.0,2.9362,2.9892,3.0282,3.0426,3.067,3.0438,2.9518,2.9276,2.8926,2.8363,2.8444,2.892,2.9853,3.0994,3.3189,3.6499,3.8199,3.9703,4.104,4.1559,4.1561,4.1177,4.0851,3.81,3.3601,3.2532,3.0823,2.8807,0.0,0.0,0.0,0.0,0.0,0.0,0.0,0.0,0.0,0.0,0.0,0.0,0.0,0.0,0.0,0.0,0.0,0.0,0.0,0.0,0.0,0.0,0.0,0.0,0.0,0.0,0.0,0.0,0.0,0.0,0.0,0.0,0.0,0.0,0.0,0.0,0.0,3.0897,3.1383,3.1107,3.1449,3.1659,0.0,0.0,0.0,0.0,0.0,0.0,3.4422,3.5075,3.5903,3.6985,3.7776,3.8572,3.939,3.8748,3.8481,3.862,3.7856,3.7399,3.7312,3.7429,3.7399,3.7266,3.7193,3.7133,3.6965,3.4818,3.393,3.3881,3.3347,3.3145,3.3089,3.3268,3.328,3.3153,0.0,0.0,0.0,0.0,0.0,0.0,0.0,0.0,0.0,0.0,0.0,3.0335,3.1416,3.1625,3.2052,3.2938,3.2689,3.237,3.2141,3.1735,3.1493,3.1374,3.1278,3.1531,3.2206,3.426,3.6154,3.7902,3.9575,4.11,4.2522,4.3218,4.3379,4.3068,4.3355,4.1225,3.7315,3.5501,3.3762,3.2165,3.0896,0.0,0.0,0.0,0.0,0.0,0.0,0.0,0.0,0.0,0.0,0.0,0.0,0.0,0.0,0.0,0.0,0.0,0.0,0.0,0.0,0.0,0.0,0.0,0.0,0.0,0.0,0.0,0.0,0.0,0.0,0.0,0.0,0.0,0.0,0.0,0.0,0.0,0.0,3.4158,3.3908,0.0,0.0,0.0,0.0,3.4445,3.4787,3.5597,3.704,3.7623,3.8247,3.8934,4.023,4.0942,4.0974,4.0577,4.0372,4.0356,3.9137,3.8444,3.8335,3.8472,3.8444,3.8307,3.8307,3.8307,3.8205,3.6813,3.5845,3.5292,3.5472,3.5143,3.4663,3.5313,3.5546,3.5579,0.0,0.0,0.0,0.0,0.0,0.0,0.0,0.0,2.835,2.8911,3.0593,3.1998,3.2736,3.3827,3.4638,3.4971,3.5191,3.4998,3.4281,3.3828,3.3305,3.2784,3.2407,3.2646,3.3489,3.5138,3.6897,3.8766,3.9922,4.1346,4.2961,4.4073,4.4642,4.469,4.5195,4.455,4.2895,3.9603,3.7124,3.5302,3.3457,3.1903,0.0,0.0,0.0,0.0,0.0,0.0,0.0,0.0,0.0,0.0,0.0,0.0,0.0,0.0,0.0,0.0,0.0,0.0,0.0,0.0,0.0,0.0,0.0,0.0,0.0,0.0,0.0,0.0,0.0,0.0,0.0,0.0,0.0,0.0,0.0,0.0,0.0,3.6335,3.6281,0.0,3.6391,3.6447,3.6658,3.7096,3.7463,3.8012,3.8748,3.9046,3.9658,4.067,4.1174,4.1776,4.2584,4.1514,4.0996,4.105,3.9787,3.9094,3.8925,3.9094,3.9094,3.8898,3.8898,3.8898,3.8871,3.839,3.785,3.7329,3.7284,3.7199,3.7109,3.7364,3.7358,3.7242,0.0,0.0,0.0,0.0,0.0,0.0,0.0,0.0,2.9368,3.0319,3.2017,3.3511,3.448,3.5699,3.657,3.6841,3.7131,3.6984,3.6263,3.5846,3.5342,3.4717,3.416,3.4196,3.4955,3.5953,3.746,3.9482,4.033,4.1569,4.3237,4.4468,4.5284,4.572,4.648,4.6845,4.6733,4.3727,4.1102,3.8724,3.6826,3.52,3.3727,0.0,0.0,0.0,0.0,0.0,0.0,0.0,0.0,0.0,0.0,0.0,0.0,0.0,0.0,0.0,0.0,0.0,0.0,0.0,0.0,0.0,0.0,0.0,0.0,0.0,0.0,0.0,0.0,0.0,0.0,0.0,0.0,0.0,0.0,3.6897,3.7787,3.8376,3.8254,3.8193,3.844,3.8404,3.8587,3.9161,3.9451,3.985,4.042,4.0624,4.1159,4.2014,4.2197,4.2668,4.3522,4.2142,4.1498,4.1633,4.0327,3.9599,3.9435,3.9625,3.9573,3.9382,3.9408,3.9408,3.9382,3.9487,3.9249,3.8821,3.8639,3.8639,3.8755,3.8755,3.8683,3.8567,0.0,0.0,0.0,0.0,0.0,0.0,2.8391,2.9518,3.0838,3.232,3.3407,3.4774,3.6721,3.7232,3.7776,3.8551,3.8436,3.8243,3.8028,3.779,3.7506,3.7229,3.6539,3.6361,3.6745,3.696,3.8077,4.0138,4.0847,4.1968,4.3419,4.4447,4.533,4.6124,4.7153,4.7936,4.8431,4.7757,4.5583,4.2473,4.1007,3.9226,3.724,0.0,0.0,0.0,0.0,0.0,0.0,0.0,0.0,0.0,0.0,0.0,0.0,0.0,0.0,0.0,0.0,0.0,0.0,0.0,0.0,0.0,0.0,0.0,0.0,0.0,0.0,0.0,0.0,0.0,0.0,0.0,0.0,0.0,3.7259,3.8419,3.9613,4.0305,3.9786,3.958,4.0013,3.9545,3.9612,4.0562,4.0657,4.1071,4.2077,4.2429,4.2696,4.293,4.3388,4.3671,4.3831,4.2585,4.2003,4.2099,4.0789,4.0054,3.9926,4.0062,3.9986,3.9729,3.9858,3.9849,3.9755,4.0011,3.9961,3.9703,3.9563,3.9528,3.9501,3.9501,3.9501,3.9475,0.0,0.0,0.0,0.0,0.0,0.0,2.8496,2.9502,3.0767,3.2494,3.411,3.5695,3.7309,3.8266,3.8877,3.9087,3.9008,3.8847,3.8606,3.8421,3.8111,3.7666,3.7821,3.7985,3.8151,3.8485,3.9531,4.1344,4.1433,4.2252,4.37,4.4504,4.515,4.5643,4.7143,4.7939,4.825,4.8572,4.8116,4.6935,4.4026,4.2116,4.0808,0.0,0.0,0.0,0.0,0.0,0.0,0.0,0.0,0.0,0.0,0.0,0.0,0.0,0.0,0.0,0.0,0.0,0.0,0.0,0.0,0.0,0.0,0.0,0.0,0.0,0.0,0.0,0.0,0.0,0.0,0.0,3.8534,3.9826,3.9256,4.0097,4.1053,4.1868,4.1741,4.1613,4.1726,4.1454,4.139,4.1677,4.1821,4.2077,4.2429,4.2774,4.3143,4.3535,4.3818,4.4138,4.4508,4.3616,4.2935,4.2524,4.1605,4.0898,4.0337,4.0387,4.0345,4.0271,4.0313,4.0296,4.0271,4.0362,4.0362,4.0263,3.991,3.9746,3.9668,3.9668,3.959,3.9501,0.0,0.0,0.0,0.0,0.0,0.0,2.863,2.9569,3.0804,3.2622,3.434,3.5962,3.7415,3.8567,3.929,3.9375,3.9356,3.9259,3.9059,3.9276,3.925,3.8902,3.9393,3.9715,3.9866,3.9917,4.0792,4.256,4.2245,4.2833,4.4259,4.4582,4.5014,4.5575,4.6933,4.7789,4.8277,4.9057,4.9411,4.9201,4.7041,4.5339,4.3839,4.1906,4.0388,3.9162,3.7646,3.6585,3.5761,3.4791,0.0,0.0,0.0,0.0,0.0,0.0,0.0,0.0,0.0,0.0,0.0,0.0,0.0,0.0,0.0,0.0,0.0,0.0,0.0,0.0,0.0,0.0,0.0,0.0,3.9551,4.0772,4.0945,4.1594,4.2241,4.2754,4.2726,4.2649,4.2602,4.2508,4.246,4.2507,4.2618,4.2805,4.3021,4.3325,4.3713,4.4076,4.4321,4.462,4.4951,4.4236,4.3733,4.3366,4.2687,4.2127,4.1697,4.1371,4.1174,4.1126,4.0865,4.0704,4.068,4.0758,4.0734,4.0631,0.0,0.0,0.0,0.0,3.9961,3.9824,0.0,0.0,0.0,0.0,0.0,0.0,2.8724,2.9667,3.0879,3.2618,3.4147,3.5622,3.7021,3.8247,3.9048,3.9262,3.9389,3.9502,3.9602,4.0201,4.0592,4.0632,4.1092,4.1427,4.1614,4.1278,4.1952,4.3728,4.3224,4.3666,4.5001,4.4735,4.4976,4.5659,4.6532,4.7396,4.8309,4.9191,4.971,4.9866,4.9649,4.8377,4.6438,4.448,4.3258,4.2375,4.052,3.9512,3.8922,3.7922,0.0,0.0,0.0,0.0,0.0,0.0,0.0,0.0,0.0,0.0,0.0,0.0,0.0,0.0,0.0,0.0,0.0,0.0,0.0,0.0,0.0,0.0,0.0,0.0,4.0603,4.1473,4.2274,4.2864,4.3218,4.3204,4.3204,4.3174,4.3054,4.3023,4.3068,4.3188,4.3188,4.3339,4.3697,4.3993,0.0,0.0,0.0,4.514,4.5283,4.4734,4.4431,4.4345,4.3796,4.3481,4.3419,4.2597,4.2161,4.203,4.1382,4.1053,4.0965,4.1117,4.1071,4.0894,4.0655,4.0558,4.0558,4.0558,4.0461,4.0313,0.0,0.0,0.0,0.0,0.0,0.0,2.8614,2.9489,3.0641,3.2207,3.3187,3.4265,3.5634,3.6869,3.7694,3.7947,3.8769,3.9695,4.0698,4.0954,4.1355,4.199,4.2574,4.2731,4.2387,4.2674,4.3391,4.4568,4.4084,4.4476,4.5699,4.5381,4.5209,4.5169,4.5913,4.6652,4.7333,4.8374,4.9246,4.9895,4.9837,4.9201,4.8117,4.6852,4.5832,4.4923,4.3687,4.2926,4.2202,4.0696,4.0055,3.97,3.8534,3.8091,0.0,0.0,0.0,0.0,0.0,0.0,0.0,0.0,0.0,0.0,0.0,0.0,0.0,0.0,0.0,0.0,0.0,0.0,0.0,4.0354,4.1554,4.2553,4.2817,4.3554,4.3993,4.3763,4.3835,4.3894,4.3864,4.3831,4.3798,4.3827,4.3827,4.3972,4.4305,4.4502,4.4818,4.5372,4.545,4.5606,4.5837,4.5613,4.5205,4.4622,4.4491,0.0,4.3523,4.2734,4.2345,4.2269,4.1511,4.1226,4.1312,4.1232,4.1186,4.1117,4.0918,4.0823,4.0823,4.0823,4.071,4.0549,0.0,0.0,0.0,0.0,0.0,0.0,2.8677,2.9371,3.019,3.1253,3.2254,3.3186,3.4093,3.5249,3.6256,3.7028,3.8354,3.9701,4.101,4.1632,4.2337,4.3207,4.3889,4.4089,4.3702,4.4237,4.4831,4.5495,4.5364,4.5721,4.6478,4.5877,4.5468,4.5211,4.5764,4.617,4.6538,4.7807,4.874,4.939,4.9682,4.9602,4.9222,4.845,4.7675,4.6865,4.5799,4.5008,4.4318,4.3013,4.2174,4.1528,4.0825,4.0122,3.9497,0.0,0.0,0.0,0.0,0.0,0.0,0.0,0.0,0.0,0.0,0.0,0.0,0.0,0.0,3.9957,3.9957,0.0,4.1381,4.1831,4.2462,4.3053,4.3494,4.4046,4.4338,4.4126,4.4281,4.4406,4.4406,4.4485,4.4591,4.4708,4.4378,4.4292,4.4549,4.4681,4.4915,4.5287,4.5678,4.5963,4.6112,4.603,4.578,4.5346,4.5421,4.5229,4.4778,4.3585,4.2997,4.2897,4.1714,4.1295,4.1403,4.1408,4.1363,4.1295,4.1249,4.1221,4.1152,4.1065,4.1041,4.0977,0.0,0.0,0.0,0.0,0.0,0.0,0.0,2.9227,2.9728,3.0267,3.1228,3.2052,3.2467,3.3502,3.4765,3.6322,3.7973,3.9578,4.1135,4.2131,4.3175,4.4297,4.4938,4.5148,4.4879,4.5469,4.5969,4.6316,4.6709,4.7055,4.7429,4.6758,4.6247,4.5881,4.6054,4.6102,4.6112,4.7318,4.8075,4.85,4.9234,4.9602,4.966,4.9474,4.8964,4.8239,4.7335,4.6586,4.5855,4.478,4.382,4.3008,4.2689,4.1783,4.0864,4.0753,4.0341,0.0,0.0,0.0,0.0,0.0,0.0,0.0,0.0,4.1604,4.1922,4.1925,4.2126,4.2269,4.2233,4.2361,4.2665,4.3209,4.3317,4.3552,4.4128,4.4423,4.4575,4.4491,4.4725,4.4899,4.4927,4.5152,4.539,4.5529,4.4921,4.4588,4.4711,4.4694,4.4798,4.5123,4.5714,4.6094,4.6235,4.6196,4.6097,4.5947,4.6073,4.6073,4.5895,4.4541,4.3822,4.3614,4.2073,4.1481,4.159,4.1585,4.1493,4.1363,4.1475,4.1493,4.1426,4.1318,4.134,4.1403,0.0,0.0,0.0,0.0,0.0,0.0,0.0,0.0,2.9425,2.9677,3.013,3.0521,3.0762,3.1631,3.3208,3.5685,3.7375,3.9276,4.1565,4.228,4.3395,4.5187,4.5391,4.538,4.5151,4.5794,4.635,4.6725,4.7769,4.8391,4.8605,4.8698,4.8332,4.7598,4.7215,4.6821,4.6456,4.679,4.7034,4.73,4.8426,4.8907,4.9022,4.9798,4.959,4.8861,4.8587,4.8045,4.7193,4.5506,4.4641,4.4068,4.2621,4.2061,4.1805,4.1214,4.1068,4.0998,4.0439,4.0613,4.1,4.1261,4.2033,4.2613,0.0,4.2833,4.3316,4.2774,4.28,4.2852,4.274,4.3365,4.3818,4.3671,4.4177,4.458,4.457,4.4776,4.4978,4.5096,4.5336,4.5555,4.5684,4.592,4.6087,4.6112,4.5393,4.5003,4.5123,4.453,4.4594,4.5501,4.5452,4.5705,4.6381,4.613,4.5947,4.5821,4.5846,4.5821,4.5786,4.4968,4.4518,4.4324,4.2825,4.2218,4.2242,4.166,4.134,4.1232,4.1232,4.1386,4.1582,4.156,4.1542,4.1538,0.0,0.0,0.0,0.0,0.0,0.0,0.0,0.0,0.0,2.8958,2.9166,2.9416,2.9667,3.115,3.2765,3.433,3.6326,3.8399,4.0507,4.1651,4.2921,4.4404,4.5061,4.5559,4.5878,4.659,4.7418,4.8367,4.9088,4.9525,4.9722,4.938,4.8841,4.8127,4.761,4.7101,4.668,4.6756,4.6844,4.6932,4.7529,4.7837,4.7957,4.8369,4.823,4.787,4.8233,4.8001,0.0,4.5939,4.4965,4.4204,4.3523,4.3036,4.2647,4.2354,4.238,4.2477,4.2162,4.2328,4.2772,4.3603,4.4429,4.5162,4.5585,4.5692,4.5658,4.5295,4.4982,4.467,4.4458,4.4664,4.4766,4.4507,4.4654,4.4748,4.4626,4.4913,4.5194,4.5415,4.5811,4.6062,4.6038,4.635,4.6542,4.6542,4.5439,4.4799,4.4844,4.4152,4.3908,4.4254,4.4892,4.5322,4.5453,4.5678,4.5701,4.5572,4.5572,4.5537,4.5424,4.4682,4.4018,4.3426,4.2873,4.2721,4.276,4.2141,4.1835,4.1736,4.136,4.1249,4.133,4.1448,4.1538,4.1582,0.0,0.0,0.0,0.0,0.0,0.0,0.0,0.0,0.0,0.0,2.8328,2.8597,2.9061,3.0759,3.2256,3.3192,3.5266,3.7319,3.9188,4.0544,4.195,4.3414,4.4285,4.5167,4.613,4.691,4.7862,4.8965,4.9906,5.0338,5.0292,5.0088,4.9628,4.8915,4.8342,4.7597,4.6727,4.6697,4.6401,4.6047,4.6467,4.6725,4.6903,4.7193,4.7221,4.7128,4.7627,4.7487,4.6929,4.592,4.4997,4.424,4.3996,4.3522,4.3113,4.3174,4.3386,4.3656,4.3732,4.3963,4.4386,4.5381,4.6378,4.7273,4.7875,4.7847,4.7575,4.7229,4.6597,4.603,4.5718,4.5589,4.5415,4.5096,4.4978,4.4858,4.4737,4.5032,4.5267,4.5278,4.5747,4.6039,4.6009,4.6513,4.6865,4.6865,4.5432,4.4603,4.4603,4.3697,4.3205,4.3298,4.4345,4.4841,4.4761,4.5276,4.5468,4.5283,4.5283,4.523,4.5123,4.4548,4.3947,4.3338,4.3142,4.3186,4.3313,4.2654,4.2296,4.2102,4.1608,4.1296,4.1117,4.1261,4.1403,4.1475,0.0,0.0,0.0,0.0,0.0,0.0,0.0,0.0,0.0,0.0,0.0,0.0,0.0,3.0132,3.1347,3.2611,3.4332,3.6135,3.7945,3.895,4.0422,4.2541,4.3037,4.3966,4.5495,4.6377,4.7108,4.7666,4.988,5.0635,5.0049,5.1179,5.1302,5.0487,4.9913,4.8511,4.6591,4.6381,4.5427,4.409,4.5272,4.5744,4.5857,4.6903,4.7307,4.7278,4.7094,4.6743,4.6207,4.5337,4.4799,4.4313,4.342,4.3129,4.3143,4.3342,4.3818,4.4406,4.4981,4.5328,4.5623,4.607,4.7402,4.8504,4.7939,4.8353,4.8611,4.7756,4.6963,4.6277,4.5871,4.5795,4.5667,4.5257,4.5177,4.514,4.5005,4.5203,4.5182,4.4602,4.4935,4.5317,4.5487,4.6415,4.698,4.698,4.5517,4.4603,4.4603,4.3161,4.2638,4.328,4.3832,4.4284,4.4595,4.5148,4.5283,4.5005,4.5005,4.5005,4.5005,4.4852,4.4835,4.4875,4.3963,4.3763,4.4018,4.3228,4.2548,4.1999,4.1981,4.1622,4.1093,4.1093,4.1152,4.1209,0.0,0.0,0.0,0.0,0.0,0.0,0.0,0.0,0.0,0.0,0.0,0.0,0.0,0.0,0.0,0.0,3.3196,3.4636,3.5854,3.7236,3.8487,3.9571,4.0988,4.2341,4.3601,4.4413,4.5755,4.7679,4.8306,4.8977,4.968,4.9823,4.9551,4.8903,4.8322,4.7486,4.6481,4.5844,4.512,4.4444,4.4595,4.4565,4.4495,4.5093,4.5309,4.5258,0.0,4.4789,4.4891,4.398,4.344,4.3208,4.3396,4.3522,4.3687,4.4035,4.4435,4.4869,4.5336,4.5735,4.6185,4.7051,4.7751,4.8334,4.8703,4.8609,4.8288,4.7822,4.7108,4.6374,4.5897,4.5795,4.5667,4.5274,4.5283,4.5283,4.5167,4.5441,4.5449,4.4844,4.5056,4.5123,4.4731,4.5614,4.6195,4.6195,4.5213,4.4389,4.3889,4.2774,4.2246,4.2424,4.3364,4.3759,4.3592,4.4638,4.5032,4.4886,4.4968,4.4951,4.4858,4.4831,4.4793,4.472,4.4393,4.4374,4.4497,4.3852,4.3494,4.3305,4.2364,4.1885,4.1633,4.1149,4.0965,4.1012,0.0,0.0,0.0,0.0,0.0,0.0,0.0,0.0,0.0,0.0,0.0,0.0,0.0,0.0,0.0,0.0,0.0,3.3144,3.3958,3.5171,3.6217,3.6972,3.84,3.9787,4.1108,4.2024,4.35,4.5487,4.6043,4.6799,4.7629,4.76,4.7334,4.6884,4.6288,4.5638,4.4976,4.4318,4.3714,4.3194,4.3044,4.2933,4.2916,4.3305,4.3491,0.0,4.2841,4.3033,4.353,4.3172,4.2907,4.2795,4.3543,4.3923,4.4184,4.4508,4.4852,4.5203,4.5572,4.5912,4.6383,4.7172,4.7695,4.8152,4.8776,4.8508,4.8075,4.786,4.692,4.6011,4.5571,4.5471,4.537,4.5088,4.5321,4.552,4.5432,4.5675,4.5626,4.4967,4.4876,4.4694,4.4279,4.4618,4.4938,4.5245,4.4511,4.3871,4.339,4.2544,4.2012,4.1858,4.28,4.3256,4.3105,4.4155,4.4749,4.4886,4.4951,4.4951,4.4886,4.4831,4.4748,4.4682,4.4626,4.4682,4.4769,4.4374,4.415,4.3923,4.3098,4.24,4.1891,4.1457,4.1136,4.0912,0.0,0.0,0.0,0.0,0.0,0.0,0.0,0.0,0.0,0.0,0.0,0.0,0.0,0.0,0.0,0.0,0.0,0.0,3.2252,3.2825,3.3627,3.4713,3.5355,3.6396,3.7958,3.9258,4.0336,4.1239,4.3116,4.4021,4.4026,4.4613,4.4719,4.4446,4.386,4.3049,4.2146,4.1838,4.1162,4.0364,4.0736,4.0972,4.116,4.1672,4.1986,4.2055,4.1473,4.1666,4.2284,4.293,4.3132,4.3188,4.3908,4.431,4.4575,4.4759,4.5113,4.5468,4.5718,4.6005,4.6259,4.6501,4.7269,4.7974,4.8098,4.8028,4.7885,4.7711,4.6424,4.5217,4.4953,4.4904,4.4872,4.4759,4.5326,4.5795,4.5795,4.5922,4.5743,4.5016,4.4472,4.416,4.4089,4.3496,4.3421,4.4165,4.3527,4.3085,4.3028,4.2355,4.1858,4.1582,4.2218,4.2745,4.3105,4.3812,4.4437,4.5005,4.5005,4.5005,4.5005,4.4886,4.4803,4.4776,4.4654,4.4682,4.4776,4.482,4.4477,4.3962,4.4043,4.3203,4.194,4.196,4.1543,4.0963,0.0,0.0,0.0,0.0,0.0,0.0,0.0,0.0,0.0,0.0,0.0,0.0,0.0,0.0,0.0,0.0,0.0,0.0,3.0734,3.0851,3.1126,3.163,3.2422,3.3184,3.3885,3.5007,3.6236,3.7611,3.8377,3.9199,4.0054,4.0261,4.0286,4.01,3.967,3.932,3.8943,3.8787,3.856,3.8419,3.9256,3.9671,3.9897,4.0967,4.1898,4.2562,4.2162,4.2577,4.3223,4.2682,4.3236,4.4181,4.4513,4.4665,4.4759,4.5032,4.523,4.5468,4.5718,4.6005,4.6235,4.6405,4.6725,4.698,4.6986,4.6962,4.6773,4.6065,4.5594,4.5217,4.4953,4.4904,4.5005,4.5328,4.5699,4.5922,4.5821,4.608,4.602,4.5299,4.5176,4.4875,4.4165,4.3464,4.3027,4.3044,4.2969,4.2666,4.2009,4.171,4.1493,4.13,4.1857,4.2403,4.2962,4.4259,4.5005,4.5167,4.5247,4.5194,4.5005,4.4951,4.4831,4.4654,4.4598,4.4626,4.4654,4.4748,4.4701,4.4518,4.409,4.3777,4.3383,4.2274,4.1798,4.1654,0.0,0.0,0.0,0.0,0.0,0.0,0.0,0.0,0.0,0.0,0.0,0.0,0.0,0.0,0.0,0.0,0.0,0.0,0.0,2.8996,2.8972,2.9118,2.9665,3.0071,3.0305,3.1462,3.2571,3.359,3.4517,3.5457,3.6324,3.6549,3.6625,3.6584,3.6287,3.6115,3.6013,3.5881,3.5837,0.0,0.0,3.7435,3.8046,3.9149,4.026,4.1266,4.1671,4.2745,4.3947,4.381,4.4217,4.4824,4.4869,4.494,4.5005,4.5167,4.5353,4.5537,4.5667,4.5871,4.6055,4.6186,4.6284,4.6269,4.5982,4.5887,4.5628,4.4847,4.4378,4.4185,4.4406,4.4452,4.4649,4.5287,4.5788,4.6073,4.6073,4.6253,4.6264,4.5929,4.564,4.5292,4.4763,4.3976,4.3263,4.2729,4.2407,4.2003,4.1448,4.1363,4.1249,4.1065,4.1667,4.2452,4.3409,4.4646,4.5274,4.5203,4.5274,4.5194,4.5005,4.4923,4.4831,4.4682,4.4643,4.4615,4.4615,4.4682,4.4709,4.4686,4.4398,4.4175,4.3897,4.3091,4.2479,4.1947,0.0,0.0,0.0,0.0,0.0,0.0,0.0,0.0,0.0,0.0,2.8151,0.0,0.0,0.0,0.0,0.0,0.0,0.0,0.0,0.0,2.7131,2.7131,2.7167,2.7194,2.7194,2.8391,2.9193,2.955,3.1203,3.2244,3.2764,3.3216,3.3471,3.3619,3.3397,3.3322,3.3322,3.314,3.3216,3.3442,3.3994,3.4911,3.6043,0.0,3.8128,3.9471,4.0997,4.2749,4.4466,4.5312,4.5441,4.523,4.5113,4.514,4.522,4.522,4.538,4.5537,4.5537,4.5641,4.5744,4.5887,4.5868,4.5656,4.5131,4.4854,4.455,4.3834,4.3104,4.2835,4.3576,4.3834,4.4167,4.4951,4.5705,4.6246,4.6326,4.6381,4.6471,4.659,4.607,4.568,4.5657,4.4839,4.3943,4.316,4.2118,4.1422,4.1163,4.114,4.1076,4.0978,4.167,4.2704,4.4009,4.4913,4.5274,4.5177,4.5177,4.5096,4.4951,4.4858,4.4776,4.4765,4.4654,4.4598,4.4643,4.4643,4.4643,4.4626,4.4776,4.4521,4.4048,4.4103,4.3339,4.2292,0.0,0.0,0.0,0.0,0.0,0.0,0.0,0.0,0.0,0.0,2.7756,2.7954,0.0,0.0,0.0,0.0,0.0,0.0,0.0,0.0,0.0,2.5674,2.5204,2.5016,2.5204,2.5604,2.6117,2.671,2.7775,2.8663,2.936,2.9973,3.0373,3.0555,3.0675,3.0812,3.0903,3.0872,3.1054,3.1382,3.2303,3.3425,3.4673,3.5933,0.0,0.0,4.2405,4.3786,4.4593,4.5329,4.5563,4.5528,4.5485,4.545,4.5327,4.523,4.523,4.5274,4.5274,4.53,4.5336,4.5468,4.513,4.4729,4.4632,4.4185,4.3596,4.2811,4.2638,4.2655,4.28,4.3395,4.4144,4.483,4.5656,4.6172,4.6073,4.635,4.6566,4.659,4.6671,4.671,4.66,4.5769,4.5093,4.4724,4.3173,4.1835,4.1,4.0847,4.0947,4.1298,4.2023,4.2841,4.3751,4.4619,4.5059,4.5032,4.5032,4.4951,4.4831,4.4803,4.4737,4.4626,4.4598,4.4654,4.4765,4.4765,4.4765,4.4776,4.4896,4.491,4.4749,4.4292,4.401,4.3724,0.0,0.0,0.0,0.0,0.0,0.0,0.0,2.7723,2.7723,2.7523,2.7523,2.759,2.7769,2.7636,2.7423,0.0,0.0,0.0,0.0,0.0,0.0,0.0,2.4045,2.3779,2.3669,2.3961,2.4253,2.4601,0.0,2.6476,2.7118,2.7926,2.8505,2.8871,2.9184,2.9387,2.9529,2.9637,2.9853,3.0219,3.0903,3.1944,3.3261,0.0,0.0,0.0,4.1698,4.279,4.3572,4.4223,4.4404,4.4491,4.5321,4.5459,4.5274,4.522,4.5113,4.4978,4.4978,4.4923,4.4879,4.5059,4.461,4.407,4.3844,4.3294,4.2675,4.2027,4.1939,4.2107,4.2532,4.301,4.3518,4.4122,4.5012,4.5617,4.5551,4.6103,4.6518,4.659,4.6708,4.6772,4.6684,4.6248,4.5735,4.5139,4.3796,4.2606,4.1635,4.1329,4.145,4.2057,4.2833,4.36,4.4385,4.4861,4.5032,4.4913,4.4913,4.4831,4.4709,4.4709,4.4654,4.4615,4.4615,4.4682,4.4803,4.4803,4.4831,4.4913,4.4978,4.5032,4.5062,4.4782,4.4509,4.419,0.0,0.0,0.0,0.0,0.0,0.0,0.0,2.7556,2.7656,2.7503,2.7369,2.7302,2.7403,2.7268,2.7032,0.0,0.0,0.0,0.0,0.0,0.0,0.0,0.0,0.0,2.2515,0.0,0.0,2.2968,2.4059,0.0,0.0,0.0,0.0,0.0,2.8137,2.8509,2.8707,2.8894,2.9194,0.0,0.0,3.0747,0.0,0.0,0.0,0.0,0.0,4.1254,4.213,4.2868,4.308,4.3278,4.4587,4.4871,4.4747,4.4849,4.4609,4.4306,4.4376,4.4271,4.417,4.4327,4.3916,4.3371,4.3091,4.2465,4.1851,4.1434,4.1363,4.1555,4.2189,4.2538,4.2853,4.3282,4.4152,4.4839,4.5045,4.5668,4.6229,4.6525,4.6566,4.6566,4.6566,4.6405,4.5961,4.5126,4.4139,4.3121,4.2171,4.1795,4.2023,4.2928,4.3534,4.4217,4.4951,4.5032,4.4968,4.4765,4.4765,4.4709,4.4615,4.4615,4.4615,4.4615,4.4626,4.4737,4.4858,4.4886,4.4951,4.5059,4.5059,4.514,4.5203,4.523,4.4948,4.4569,0.0,0.0,0.0,0.0,0.0,0.0,0.0,2.7222,2.7335,2.7302,2.7302,2.7248,2.7045,2.6863,2.6611,0.0,0.0,0.0,0.0,0.0,0.0,0.0,0.0,0.0,0.0,0.0,0.0,2.1949,2.2782,0.0,0.0,0.0,0.0,0.0,0.0,2.7888,2.8352,2.8541,0.0,0.0,0.0,0.0,0.0,0.0,0.0,0.0,0.0,3.9961,4.0677,4.1839,4.2368,4.2611,4.2946,4.3117,4.3297,4.372,4.3226,4.2615,4.3032,4.3064,4.2951,4.2963,4.2656,4.2407,4.2679,4.1945,4.1209,4.1203,4.1232,4.1249,4.1319,4.1928,4.2451,4.2497,4.3206,4.401,4.4806,4.5091,4.551,4.6334,4.6405,4.6405,4.6405,4.6186,4.5723,4.497,4.3976,4.2968,4.1879,4.1696,4.227,4.3731,4.3744,4.4072,4.4803,4.4709,4.4654,4.4626,4.4626,4.4598,4.4615,4.4615,4.4615,4.4615,4.4737,4.4858,4.4978,4.5096,4.515,4.5177,4.5318,4.53,4.5203,4.5344,4.5424,4.5399,0.0,0.0,0.0,0.0,0.0,0.0,2.6427,2.6748,2.6998,2.7113,2.6998,2.6897,2.6829,2.6692,2.6508,2.6324,0.0,0.0,0.0,0.0,0.0,0.0,0.0,0.0,0.0,0.0,2.1233,2.1069,2.1901,0.0,0.0,0.0,0.0,0.0,0.0,2.7142,2.7723,2.8131,0.0,0.0,0.0,0.0,0.0,0.0,0.0,0.0,0.0,0.0,3.8654,3.9599,4.0143,4.0428,4.0577,4.0794,4.1273,4.2485,4.2405,4.1965,4.206,4.1974,4.1827,4.1856,4.1499,4.1292,4.1696,4.1304,4.0912,4.1099,4.118,4.1186,4.1152,4.1441,4.1632,4.1527,4.2287,4.2973,4.3245,4.3818,4.4491,4.5268,4.538,4.5548,4.5995,4.593,4.5349,4.408,4.3561,4.3101,4.2684,4.2953,4.3391,4.3982,4.4392,4.4714,4.4913,4.4858,4.4748,4.4615,4.4615,4.4615,4.4615,4.4615,4.4615,4.4615,4.4737,4.4886,4.5005,4.5123,4.5247,4.5344,4.5371,4.5371,4.5344,4.5476,4.5537,4.5511,0.0,0.0,0.0,0.0,0.0,2.5099,2.5769,2.6164,2.6487,2.6726,2.6692,2.6611,2.6555,2.6521,2.6487,2.6427,2.5921,0.0,0.0,0.0,0.0,0.0,0.0,0.0,0.0,0.0,2.0935,2.0605,2.1185,2.1558,0.0,0.0,2.3804,2.4647,0.0,0.0,0.0,0.0,0.0,0.0,0.0,0.0,0.0,0.0,0.0,0.0,0.0,0.0,0.0,0.0,0.0,3.8701,3.8882,3.9169,3.9727,4.1275,4.1375,4.1001,4.1021,4.0856,4.0652,4.0697,4.0501,4.0408,4.0882,4.0722,4.0583,4.0888,4.0971,4.0995,4.1029,4.1035,4.1018,4.0935,4.1486,4.2014,4.2174,4.2773,4.3489,4.4279,4.4533,4.4831,4.5362,4.518,4.4661,4.3737,4.3377,4.3293,4.35,4.4139,4.4483,4.4483,4.4946,4.515,4.5059,4.4978,4.4858,4.4654,4.4626,4.4615,4.4615,4.4626,4.4654,4.4682,4.4831,4.4951,4.5059,4.5194,4.53,4.5397,4.5397,4.5423,4.5476,4.5581,4.5502,4.5344,0.0,0.0,0.0,0.0,0.0,0.0,2.4909,2.5347,2.5746,2.6164,2.6324,2.6358,2.6236,2.6361,2.6499,2.6499,2.5968,0.0,0.0,0.0,0.0,0.0,0.0,0.0,0.0,0.0,2.0819,2.0605,2.0605,2.0712,2.0944,2.1728,2.266,2.3658,0.0,0.0,0.0,0.0,0.0,0.0,0.0,0.0,0.0,0.0,0.0,0.0,0.0,0.0,0.0,0.0,0.0,0.0,0.0,3.8539,3.9007,4.0111,3.9895,3.9411,3.9829,3.9671,3.9428,3.9505,3.9658,3.9933,4.0402,4.026,4.0128,4.0514,4.0549,4.0583,4.0847,4.0793,4.0745,4.0888,4.0912,4.1218,4.2064,4.2209,4.2552,4.3495,4.4146,4.4514,4.4514,4.3713,4.3517,4.4242,4.3603,4.3517,4.4259,4.4992,4.5397,4.5397,4.5274,4.5203,4.5203,4.4923,4.4803,4.482,4.4654,4.4615,4.4598,4.4737,4.4803,4.4803,4.5086,4.5194,4.522,4.5344,4.5397,4.5397,4.5397,4.5476,4.5607,4.5607,4.5318,4.4921,0.0,0.0,0.0,0.0,0.0,0.0,0.0,2.4778,2.5194,2.5711,2.5851,2.5921,2.6166,2.627,2.6339,2.6499,2.6188,0.0,0.0,0.0,0.0,0.0,0.0,0.0,0.0,2.1359,2.0858,2.0381,2.0504,2.0549,2.0638,2.165,2.2493,2.3232,2.4425,2.5433,0.0,0.0,0.0,0.0,0.0,0.0,3.2858,0.0,0.0,0.0,0.0,0.0,0.0,0.0,0.0,0.0,0.0,0.0,0.0,3.8792,3.8918,3.898,3.8988,3.8857,3.8687,3.8617,3.8613,3.8752,3.9116,3.9247,3.9454,3.9901,4.0121,4.0313,4.0583,4.0728,4.0888,4.1006,4.1047,4.1116,4.1405,4.1352,4.1605,4.2414,4.3617,4.4552,4.5062,4.4499,4.4204,4.4404,4.4239,4.4204,4.4404,4.5062,4.5397,4.5397,4.5371,4.53,4.5203,4.5113,4.4978,4.4803,4.4765,4.4682,4.4598,4.4737,4.4803,4.4803,4.5086,4.5203,4.5203,4.5327,4.5397,4.5397,4.5397,4.5476,4.5607,4.5693,4.5376,4.4817,0.0,0.0,0.0,0.0,0.0,0.0,0.0,2.3984,2.4407,2.5123,2.5288,2.55,2.5828,2.6062,2.631,2.6671,2.6639,0.0,0.0,0.0,0.0,0.0,0.0,0.0,2.2138,2.1589,2.1092,2.0633,2.0474,2.0429,2.0507,2.1266,2.2016,2.2837,2.4056,2.5205,0.0,0.0,0.0,0.0,0.0,0.0,3.3336,0.0,0.0,0.0,0.0,0.0,0.0,0.0,0.0,0.0,0.0,0.0,0.0,0.0,3.8347,3.8628,3.8532,3.8436,3.8307,3.8237,3.8177,3.8217,3.8488,3.8733,3.9061,3.952,3.9833,4.0138,4.051,4.0752,4.0942,4.1123,4.1117,4.1093,4.1093,4.0982,4.1291,4.2327,4.3552,4.4578,4.5328,4.4794,4.4542,4.4811,4.4594,4.456,4.4811,4.5191,4.5397,4.5397,4.5397,4.5371,4.5274,4.5247,4.5113,4.4951,4.4858,4.4765,4.4682,4.4803,4.4886,4.4886,4.5167,4.5274,0.0,4.5371,4.5397,4.5397,4.5397,4.5528,4.5632,4.5457,4.5015,4.4417,0.0,0.0,0.0,0.0,0.0,0.0,0.0,2.3172,2.3567,2.4345,2.4743,2.5052,2.5276,2.5865,2.6427,2.697,0.0,0.0,0.0,0.0,0.0,0.0,0.0,0.0,2.2875,2.2022,2.1506,2.1279,2.0602,2.0356,2.0567,2.0745,2.1364,2.242,2.3676,2.526,2.7038,2.9341,3.1138,3.2412,3.2693,3.3354,0.0,0.0,0.0,0.0,0.0,0.0,0.0,0.0,0.0,0.0,0.0,0.0,0.0,0.0,0.0,0.0,0.0,3.8355,3.8209,3.8209,3.8209,3.825,3.8363,3.8628,0.0,3.9405,3.972,4.0062,4.06,4.0817,4.0989,4.1186,4.1152,4.1117,4.1117,4.1058,4.1533,4.3017,4.3785,4.4509,4.5242,4.4699,4.4596,4.5372,4.4794,4.4691,4.5389,4.5397,4.5397,4.5397,4.5397,4.5397,4.5397,4.5274,4.522,4.5194,4.4923,4.4803,4.4803,4.494,4.4978,4.5005,4.5264,4.5397,4.5397,4.5397,4.5397,4.5397,4.5397,4.5563,4.5708,4.496,4.4349,4.3799,0.0,0.0,0.0,0.0,0.0,0.0,0.0,0.0,0.0,0.0,2.437,2.479,2.5241,2.5935,2.6526,0.0,0.0,0.0,0.0,0.0,0.0,0.0,0.0,0.0,2.4288,2.3281,2.2542,2.2169,2.1459,2.1083,2.0979,2.0932,2.1342,2.2155,2.334,2.5279,2.7852,2.9868,3.1363,3.2404,3.3541,3.4216,0.0,0.0,0.0,0.0,3.5063,3.5297,0.0,0.0,0.0,0.0,0.0,0.0,0.0,0.0,3.857,3.8521,3.9072,0.0,3.8335,3.8335,3.8335,3.8391,0.0,3.8667,3.8914,3.9345,3.9731,4.0112,4.0624,4.0942,4.118,4.1318,4.1335,4.1335,4.1335,4.1673,4.2185,4.2961,4.321,4.3606,4.4319,4.4337,4.4647,4.5485,4.5382,4.5364,4.5537,4.545,4.5397,4.5397,4.5397,4.5397,4.5397,4.5371,4.53,4.5203,4.5032,4.4913,4.4803,4.4831,4.4896,4.5005,4.5167,4.53,4.5397,4.5397,4.5397,4.5397,4.5397,4.5563,4.5708,4.496,4.4349,4.3804,0.0,0.0,0.0,0.0,0.0,0.0,0.0,0.0,0.0,0.0,0.0,2.4298,2.4862,2.5721,0.0,0.0,0.0,0.0,0.0,0.0,0.0,0.0,0.0,2.5367,2.4954,2.3946,2.3198,2.2794,2.1982,2.1513,2.1357,2.1221,2.1559,2.2265,2.4063,2.6073,2.8285,3.0036,3.1384,3.243,3.3573,0.0,0.0,0.0,0.0,0.0,3.5524,3.5782,0.0,3.6289,3.6569,3.6923,0.0,0.0,0.0,0.0,3.942,3.9444,3.9833,3.9242,3.8504,3.8572,3.8628,3.8711,3.8843,3.9034,3.9302,3.961,4.0037,4.0451,4.0853,4.1134,4.1363,4.156,4.1493,4.1503,4.1823,4.2717,4.3301,4.3189,4.3475,4.3648,4.3589,4.4027,4.4483,4.4898,4.5269,4.5502,4.5502,4.545,4.5397,4.5397,4.5397,4.5397,4.5397,4.5397,4.5353,4.5274,4.5086,4.4951,4.4886,4.4831,4.4831,4.4913,4.5113,4.5247,4.53,4.5371,4.5397,4.5397,4.5476,4.5632,4.5708,4.5035,4.4421,4.3804,0.0,0.0,0.0,0.0,0.0,0.0,0.0,0.0,0.0,0.0,0.0,0.0,0.0,0.0,0.0,0.0,0.0,0.0,0.0,0.0,0.0,0.0,2.7067,2.6178,2.5531,2.4614,2.3882,2.3436,2.2512,2.196,2.1776,2.1526,2.1785,2.2564,2.4914,2.6782,2.8255,2.9743,3.1082,3.2295,3.3157,0.0,0.0,0.0,0.0,0.0,0.0,0.0,0.0,3.66,3.6892,3.7348,3.8024,0.0,0.0,0.0,0.0,0.0,4.0715,3.9812,3.8863,3.8969,3.9024,3.9131,3.9276,3.954,3.9816,4.0045,4.0468,4.0864,4.1163,4.1468,4.1713,4.1952,4.1885,4.2055,4.2707,4.3903,4.4446,4.3655,4.4012,4.3955,4.3082,4.3528,4.395,4.4087,4.4784,4.525,4.5397,4.5397,4.5397,4.5397,4.5397,4.5397,4.5397,4.5397,4.5397,4.5397,4.513,4.5005,4.4978,4.4831,4.4776,4.4803,4.5032,4.515,4.522,4.53,4.5371,4.5423,4.5554,4.5667,4.5734,4.511,4.4539,4.3957,0.0,0.0,0.0,0.0,0.0,0.0,0.0,0.0,0.0,0.0,0.0,0.0,0.0,0.0,0.0,0.0,0.0,0.0,0.0,0.0,0.0,2.9744,2.8275,2.7454,2.7404,2.6142,2.5284,2.4883,2.3796,2.2926,2.2264,2.1696,2.1865,2.2809,2.4317,2.5777,2.7128,2.8615,3.0088,3.1476,3.264,0.0,0.0,0.0,0.0,0.0,0.0,0.0,0.0,3.7118,3.7298,3.7433,3.7841,0.0,0.0,0.0,0.0,0.0,4.1648,4.0881,3.9879,3.9907,3.9665,3.9484,3.9729,3.9935,4.0121,4.051,4.0817,4.1117,4.1335,4.2144,4.2758,4.2802,4.3308,4.3927,4.4576,4.4795,4.4729,4.4366,4.3773,4.3302,4.3022,4.2414,4.2595,4.3975,4.4207,4.462,4.5363,4.5397,4.5397,4.5397,4.5397,4.5397,4.5397,4.5397,4.5397,4.5397,4.513,4.5005,4.4978,4.472,4.4709,4.4803,4.4831,4.4978,4.5203,4.522,4.53,4.5423,4.5554,4.5667,4.5734,4.511,4.4907,4.4735,0.0,0.0,0.0,0.0,0.0,0.0,0.0,0.0,0.0,0.0,0.0,0.0,0.0,0.0,0.0,0.0,0.0,0.0,0.0,0.0,3.033,3.0571,2.958,2.8878,2.8612,2.7503,2.6758,2.6379,2.5311,2.4425,2.3673,2.2877,2.265,2.2994,2.4155,2.5242,2.6359,2.7763,2.9176,3.0657,0.0,0.0,0.0,0.0,0.0,0.0,0.0,0.0,0.0,0.0,3.7565,3.7863,3.8424,0.0,0.0,0.0,0.0,0.0,4.1497,4.0934,4.0233,4.0387,4.0017,3.9795,4.0544,4.0807,4.1016,4.1419,4.1676,4.1725,4.1541,4.2271,4.3052,4.3525,4.4327,4.5009,4.5282,4.5617,4.5609,4.5019,4.4506,4.3788,4.2686,4.2521,4.2533,4.2732,4.3589,4.4285,4.4681,4.5147,4.5397,4.5397,4.5397,4.5397,4.5397,4.5397,4.5397,4.5397,4.513,4.5005,4.4978,4.4737,4.4626,4.4709,4.4776,4.4886,4.5005,4.514,4.5247,4.5327,4.5589,4.5761,4.5734,4.5208,4.4769,4.4337,0.0,0.0,0.0,0.0,0.0,0.0,0.0,0.0,0.0,0.0,0.0,0.0,0.0,0.0,0.0,0.0,0.0,0.0,0.0,3.0305,3.0533,3.1061,3.0647,3.0135,2.9606,2.8692,2.8057,2.7733,2.674,2.5737,2.4685,2.3971,2.3466,2.3232,2.3993,2.4787,2.5663,2.6853,2.8176,2.9666,0.0,0.0,0.0,0.0,0.0,0.0,0.0,0.0,0.0,0.0,0.0,0.0,0.0,0.0,0.0,4.0442,4.0852,4.1116,4.1316,4.0895,4.0479,4.0739,4.0426,4.0297,4.1231,4.1732,4.2078,4.2414,4.2606,4.2597,4.2209,4.2843,4.3726,4.4581,4.5384,4.5866,4.581,4.6259,4.6336,4.5682,4.5329,4.4493,4.2947,4.2874,4.2641,4.1937,4.2903,4.37,4.4087,4.4733,4.5181,4.5397,4.5397,4.5397,4.5397,4.5397,4.5397,4.5344,4.5113,4.4978,4.4968,4.4709,4.4615,4.4615,4.4709,4.4776,4.4803,4.5005,4.5123,4.523,4.5572,4.577,4.5802,4.5474,4.4869,4.4085,0.0,0.0,0.0,0.0,0.0,0.0,0.0,0.0,0.0,0.0,0.0,0.0,0.0,0.0,0.0,0.0,0.0,0.0,0.0,3.0647,3.1061,3.1272,3.1235,3.1007,3.0518,2.9659,2.9047,2.8689,2.7766,2.6349,2.4515,2.4247,2.3875,2.3503,2.3754,2.4262,2.5031,2.5663,2.683,2.8362,2.9807,0.0,0.0,0.0,0.0,0.0,0.0,0.0,0.0,0.0,0.0,0.0,0.0,0.0,3.9931,4.0243,4.0823,4.1453,4.1766,4.1314,4.0836,4.11,4.111,4.118,4.1511,4.2344,4.3153,4.3364,4.3509,4.3634,4.3723,4.4606,4.5586,4.6447,4.6671,4.6707,4.6707,4.6666,4.6572,4.6519,4.5676,4.4955,4.4565,4.3044,4.2255,4.268,4.2133,4.2466,4.4009,4.4156,4.4569,4.5363,4.5397,4.5397,4.5397,4.5397,4.5344,4.5203,4.5059,4.4923,4.4803,4.4654,4.4615,4.4615,4.4598,4.4682,4.4803,4.4831,4.4995,4.522,4.5363,4.5649,4.5998,4.6094,4.5635,4.4928,0.0,0.0,0.0,0.0,0.0,0.0,0.0,0.0,0.0,0.0,0.0,0.0,0.0,0.0,0.0,0.0,0.0,0.0,0.0,3.0444,3.0861,3.1447,3.136,3.1557,3.2083,3.1085,3.056,3.0545,2.8993,2.753,2.6302,2.5581,2.5033,2.4574,2.4514,2.4647,2.4946,2.558,2.6588,2.7815,2.9137,3.0668,0.0,0.0,0.0,0.0,0.0,0.0,0.0,0.0,3.823,3.8711,3.9013,3.9427,3.9804,3.9894,4.0174,4.0498,4.0725,4.0653,4.0536,4.0713,4.1237,4.1866,4.2446,4.2907,4.3427,4.4216,4.4401,4.4498,4.4617,4.5117,4.5763,4.6554,4.6819,4.6911,4.6911,4.6888,4.6842,4.6842,4.6436,4.5876,4.5122,4.3812,4.2777,4.2216,4.1825,4.2023,4.3056,4.3725,4.4448,4.5257,4.5371,4.5397,4.5397,4.53,4.522,4.5086,4.5032,4.494,4.482,4.4654,4.4615,4.4615,4.4615,4.4626,4.4682,4.4765,4.4913,4.5113,4.5511,4.5795,4.6023,4.6147,4.5796,4.5205,0.0,0.0,0.0,0.0,0.0,0.0,0.0,0.0,0.0,0.0,0.0,0.0,0.0,0.0,0.0,0.0,0.0,0.0,2.9947,3.0292,3.0798,3.1485,3.1434,3.1902,3.2962,3.2167,3.1801,3.1945,3.0091,2.8714,2.7844,2.7011,2.6338,2.5874,2.5645,2.5593,2.5722,2.6087,2.683,2.7858,2.8835,3.0214,0.0,0.0,0.0,0.0,0.0,0.0,0.0,0.0,3.8315,3.886,3.9228,3.9563,3.9781,3.9807,3.991,4.0054,4.0188,4.0288,4.0412,4.0583,4.1154,4.1985,4.3169,4.361,4.4083,4.5096,4.5376,4.5455,4.5569,4.5776,4.6076,4.659,4.6865,4.6998,4.6998,4.6998,4.698,4.6934,4.6819,4.6424,4.5658,4.4585,4.3454,4.2282,4.1816,4.1878,4.2473,4.3201,4.4085,4.5186,4.5274,4.5344,4.5344,4.5247,4.5113,4.494,4.494,4.4858,4.472,4.4626,4.4615,4.4615,4.4615,4.4615,4.4615,4.4709,4.4831,4.5032,4.5511,4.5795,4.5947,4.6073,4.5905,4.5575,0.0,0.0,0.0,0.0,0.0,0.0,0.0,0.0,0.0,0.0,0.0,0.0,0.0,0.0,0.0,0.0,0.0,0.0,2.9665,3.033,3.0874,3.1272,3.1485,3.2029,3.2975,3.2817,3.2692,3.2711,3.1015,2.9726,2.8791,2.8342,2.7864,2.7393,2.7127,2.7172,2.7382,2.7127,2.7558,2.8428,2.8911,3.0004,3.1384,0.0,0.0,0.0,0.0,0.0,0.0,0.0,3.8286,3.8887,3.9352,3.9668,3.9926,4.0062,4.0213,4.0355,4.0461,4.051,4.0583,4.084,4.0965,4.1534,4.3483,4.4518,4.5291,4.6052,4.6405,4.6613,4.659,4.6708,4.6795,4.6795,4.6911,4.6998,4.6998,4.6998,4.6952,4.6801,4.6684,4.6495,4.6235,4.5281,4.4235,4.3082,4.2124,4.1852,4.2456,4.2507,4.3337,4.5142,4.5194,4.5203,4.5203,4.5194,4.5059,4.4803,4.4803,4.4737,4.4615,4.4615,4.4615,4.4615,4.4615,4.4615,4.4615,4.4615,4.4748,4.5032,4.5283,4.5572,4.5821,4.5947,4.6073,4.6116,0.0,0.0,0.0,0.0,0.0,0.0,0.0,0.0,0.0,0.0,0.0,0.0,0.0,0.0,0.0,0.0,0.0,0.0,2.9665,3.0203,3.071,3.1272,3.1347,3.1889,3.2975,3.3442,3.3363,3.2711,3.1516,3.0721,3.0256,2.9441,2.9012,2.8854,2.8437,2.8192,2.8126,2.8236,2.8496,2.8978,2.9702,3.0468,3.128,0.0,0.0,0.0,0.0,0.0,0.0,0.0,0.0,0.0,3.9272,3.9746,4.0189,4.095,4.0969,4.0872,4.1533,4.1743,4.1879,4.2044,4.2562,4.3395,4.4717,4.4694,4.4812,4.6324,4.6754,4.6865,4.6754,4.6842,4.6911,4.6819,4.6842,4.6865,4.6865,4.6795,4.6708,4.6661,4.6613,4.6542,4.6357,4.5428,4.4359,4.3233,4.2116,4.169,4.2172,4.2313,4.3071,4.4663,4.4934,4.5059,4.5059,4.4968,4.4886,4.4803,4.4709,4.4626,4.4615,4.4615,4.4615,4.4615,4.4615,4.4615,4.4615,4.4709,4.4831,4.5032,4.5283,4.5511,4.5684,4.5922,4.608,4.6193,0.0,0.0,0.0,0.0,0.0,0.0,0.0,0.0,0.0,0.0,2.6001,0.0,0.0,0.0,0.0,0.0,0.0,0.0,2.9561,3.0075,3.0596,3.1048,3.1435,3.2208,3.3436,3.3968,3.3937,3.3386,3.2351,3.1693,3.1327,3.0575,3.0202,3.019,2.9942,2.9703,2.9561,2.9791,3.004,3.0264,3.0773,3.1269,3.1818,0.0,0.0,0.0,0.0,0.0,0.0,0.0,0.0,0.0,3.9131,3.9738,4.0323,4.104,4.1113,4.1179,4.2096,4.2416,4.2579,4.308,4.3622,4.444,4.5853,4.5729,4.5658,4.6766,4.7053,4.7075,4.7007,4.7048,4.7066,4.6957,4.6911,4.6865,4.6819,4.6731,4.6637,4.6525,4.6518,4.6471,4.6326,4.566,4.4689,4.3301,4.2381,4.1952,4.2099,4.2169,4.2926,4.4451,4.4769,4.4913,4.4913,4.4831,4.4776,4.4737,4.4626,4.4615,4.4615,4.4615,4.4615,4.4615,4.4615,4.4615,4.4615,4.4682,4.4803,4.4923,4.5167,4.538,4.5537,4.577,4.5972,4.613,0.0,0.0,0.0,0.0,0.0,0.0,0.0,0.0,0.0,0.0,2.6156,2.6043,0.0,0.0,0.0,0.0,0.0,0.0,0.0,3.0011,3.0508,3.0813,3.1807,3.2933,3.4193,3.4357,3.4439,3.4439,3.33,3.2537,3.2077,3.1649,3.1439,3.1395,3.1395,3.1395,3.1439,3.1637,3.1889,3.2115,3.2017,3.2327,3.2808,3.2346,0.0,0.0,0.0,0.0,0.0,0.0,0.0,0.0,3.8865,3.9601,4.028,4.0686,4.0968,4.1424,4.2428,4.2783,4.3097,4.4084,4.4567,4.5249,4.7026,4.7456,4.7483,4.7535,4.7557,4.7579,4.7539,4.7433,4.7331,4.7326,4.7142,4.6934,4.6795,4.6772,4.6661,4.6405,4.6374,4.6326,4.6196,4.5922,4.506,4.3414,4.2886,4.2518,4.2206,4.2179,4.2873,4.4395,4.4648,4.4748,4.4776,4.4776,4.4737,4.4615,4.4615,4.4615,4.4615,4.4615,4.4615,4.4615,4.4598,4.4626,4.4626,4.4626,4.4709,4.4831,4.4923,4.5167,4.5389,4.5537,4.5744,4.5972,0.0,0.0,0.0,0.0,0.0,0.0,0.0,0.0,0.0,0.0,0.0,0.0,0.0,0.0,0.0,0.0,0.0,0.0,0.0,2.9793,3.0612,3.1602,3.3001,3.3914,3.4206,3.4698,3.4867,3.4634,3.3725,3.3099,3.2853,3.2537,3.232,3.2169,3.2169,3.2245,3.2407,3.2599,3.2859,3.3116,3.3458,3.3389,3.3105,3.287,3.2719,0.0,0.0,0.0,0.0,0.0,0.0,0.0,3.8193,3.9001,3.9839,4.1043,4.1677,4.2211,4.3331,4.4161,4.4971,4.5987,4.739,4.8662,4.9072,4.9406,4.9582,4.9392,4.9521,4.9604,4.9392,4.8908,4.8446,4.8178,4.75,4.6911,4.6684,4.6542,4.6423,4.627,4.6147,4.6073,4.6048,4.5701,4.5053,4.3984,4.3399,4.2974,4.2842,4.2702,4.312,4.415,4.4338,4.4497,4.4626,4.4654,4.4626,4.4615,4.4615,4.4615,4.4615,4.4615,4.4615,4.4615,4.4709,4.4765,4.4765,4.4765,4.4831,4.4951,4.4886,4.5005,4.5257,4.5389,4.5563,4.5718,0.0,0.0,0.0,0.0,0.0,0.0,0.0,0.0,0.0,0.0,0.0,0.0,0.0,0.0,0.0,0.0,0.0,0.0,0.0,0.0,3.1254,3.2935,3.3992,3.4699,3.5116,3.5373,3.5467,3.5332,3.4675,3.4076,3.3581,3.3227,3.2939,3.2736,3.2593,3.268,3.2939,3.3356,3.3725,3.405,3.4522,3.4545,3.4202,3.3861,3.3393,3.2972,3.2876,0.0,0.0,0.0,0.0,0.0,0.0,0.0,3.9405,4.0442,4.1114,4.1856,4.3389,4.4296,4.5168,4.6557,4.8005,4.9085,4.9113,4.9978,5.0758,5.0691,5.0515,5.0311,5.0163,4.9771,4.9263,4.8641,4.8048,4.7426,4.669,4.6542,4.6423,4.6221,4.6073,4.5998,4.5998,4.5624,4.5,4.4034,4.3484,4.3099,4.2874,4.2822,4.3201,4.408,4.4224,4.4412,4.4615,4.4615,4.4615,4.4615,4.4615,4.4615,4.4615,4.4615,4.4615,4.4615,4.4737,4.4803,4.4803,4.4886,4.4913,4.4896,4.4913,4.4923,4.5032,4.523,4.5389,4.5537,0.0,0.0,0.0,0.0,0.0,0.0,0.0,0.0,0.0,0.0,0.0,0.0,0.0,0.0,0.0,0.0,0.0,0.0,0.0,0.0,0.0,3.4153,3.4818,3.5459,3.6178,3.6165,3.6111,3.6111,3.579,3.5276,3.4596,3.3904,3.3484,3.324,3.297,3.3013,3.3326,3.3949,3.4439,3.4799,3.5263,3.544,3.5372,3.4793,3.4214,3.3596,3.3165,3.2997,3.308,3.3851,0.0,0.0,0.0,0.0,3.8892,3.948,4.0255,4.1267,4.2979,4.4067,4.5088,4.659,4.7808,4.8644,4.8699,4.9974,5.1211,5.1464,5.1158,5.0842,5.0821,5.0559,5.0075,4.9274,4.8726,4.8036,4.6986,4.6702,4.6495,4.6221,4.6048,4.5972,4.5972,4.5572,4.4903,4.3885,4.343,4.3043,4.2789,4.2765,4.3172,4.408,4.4196,4.4384,4.4615,4.4615,4.4615,4.4615,4.4615,4.4615,4.4615,4.4479,4.4479,4.4626,4.464,4.4739,4.4886,4.4978,4.4951,4.4886,4.4968,4.4968,4.4913,4.5113,4.5283,4.5415,0.0,0.0,0.0,0.0,0.0,0.0,0.0,0.0,0.0,0.0,2.7583,2.7468,0.0,0.0,0.0,0.0,0.0,0.0,0.0,0.0,0.0,3.4405,3.541,3.6136,3.6587,3.6626,3.6626,3.6626,3.6547,3.6546,3.6593,3.5009,3.416,3.3949,3.3683,3.3725,3.3992,3.4439,3.4771,3.5072,3.5467,3.5669,3.5615,3.5058,3.4448,3.3786,3.3254,3.2951,3.281,3.329,3.4022,0.0,0.0,0.0,3.7966,3.8849,4.0167,4.1467,4.2206,4.439,4.6529,4.6765,4.8202,4.9526,4.9549,5.0049,5.0717,5.1453,5.216,5.2626,5.2499,5.189,5.1293,5.0999,4.9559,4.8335,4.7874,4.711,4.6495,4.6221,4.5972,4.5821,4.5821,4.5353,4.4724,4.3962,4.3337,4.3004,4.2947,4.2691,4.3012,4.408,4.4126,4.4286,4.4615,4.4615,4.4615,4.4615,4.4615,4.4615,4.4581,4.3876,4.401,4.4759,4.4231,4.4451,4.5167,4.5167,4.515,4.514,4.5032,4.5059,4.5167,4.5194,4.5274,4.5423,0.0,0.0,0.0,0.0,0.0,0.0,0.0,0.0,0.0,0.0,0.0,2.8602,0.0,0.0,0.0,0.0,0.0,0.0,0.0,0.0,0.0,3.4206,3.5348,3.6061,3.6357,3.6926,3.7187,3.7187,3.7109,3.7094,3.7137,3.6375,3.5808,3.5407,3.4727,3.4456,3.4529,3.4541,3.4812,3.5277,3.5602,3.5844,3.6071,3.585,3.5176,3.4348,3.4039,3.3473,3.2917,3.3178,3.3756,3.4461,3.532,0.0,0.0,0.0,3.928,4.0578,4.2022,4.3775,4.5228,4.5458,4.6488,4.7504,4.7599,4.8576,4.96,5.011,5.1338,5.2471,5.2947,5.2663,5.2171,5.1514,5.0579,4.9508,4.8188,4.7589,4.7007,4.6291,4.5972,4.5795,4.5795,4.5327,4.4814,4.4426,4.399,4.3709,4.3612,4.3468,4.3618,4.4097,4.4167,4.4281,4.444,4.4542,4.4615,4.4615,4.4615,4.4615,4.4564,4.3335,4.3281,4.4113,4.3968,4.4162,4.4619,4.5102,4.5274,4.5177,4.514,4.5113,4.5113,4.515,4.5247,4.53,0.0,0.0,0.0,0.0,0.0,0.0,0.0,0.0,0.0,0.0,0.0,0.0,0.0,0.0,0.0,0.0,0.0,0.0,0.0,0.0,0.0,3.4153,3.5395,3.6105,3.6269,3.7182,3.7701,3.7701,3.7534,3.7504,3.7583,3.7496,3.7304,3.6976,3.5822,3.526,3.5135,3.473,3.4815,3.5171,3.5332,3.5611,3.5935,3.5935,3.5426,3.4692,3.4571,3.3899,3.3178,3.3312,3.3667,3.4153,3.4839,3.5705,0.0,0.0,0.0,3.958,4.1505,4.2754,4.3605,4.3988,4.4765,4.5486,4.5644,4.6946,4.8272,4.8657,5.0055,5.154,5.2629,5.2935,5.2733,5.1952,5.1416,5.0464,4.8639,4.8039,4.7395,4.6358,4.5972,4.5795,4.5795,4.5327,4.4882,4.4586,4.422,4.3967,4.387,4.3841,4.3925,4.4138,4.4085,4.4024,4.408,4.4209,4.4412,4.4615,4.4615,4.4496,4.4231,4.2895,4.2569,4.3042,4.3234,4.364,4.4208,4.4837,4.5155,4.5247,4.5247,4.5194,4.5113,4.522,4.5247,4.5274,0.0,0.0,0.0,0.0,0.0,0.0,0.0,0.0,0.0,0.0,0.0,0.0,3.0532,3.0554,3.0633,3.0892,3.1069,0.0,0.0,0.0,0.0,3.4446,3.5886,0.0,3.6659,3.7462,3.7891,3.7891,3.7853,3.8079,3.8418,3.8039,3.8069,3.8339,3.6877,3.6106,3.5911,3.5325,3.4874,3.4526,3.4566,3.4634,3.4692,3.4692,3.4613,3.4497,3.4289,3.3952,3.357,3.357,3.3695,3.3908,3.4515,3.5198,3.5775,0.0,0.0,0.0,4.0141,4.1471,4.2544,4.2816,4.382,4.4735,4.4775,4.5726,4.6832,4.7593,4.8717,5.0017,5.1574,5.249,5.2937,5.2751,5.1824,5.0708,4.9566,4.8496,4.7444,4.6511,4.603,4.5795,4.5795,4.5327,4.4714,4.4004,4.3525,4.325,4.3255,4.3127,4.3446,4.4248,4.3609,4.3322,4.3443,4.346,4.3859,4.4615,4.4615,4.4198,4.3453,4.2658,4.201,4.152,4.1673,4.2697,4.4285,4.4345,4.4768,4.5397,4.5397,4.5397,4.5371,4.5397,4.5397,4.5397,0.0,0.0,0.0,0.0,0.0,0.0,0.0,0.0,0.0,0.0,0.0,0.0,0.0,3.1306,3.135,3.1451,3.1649,0.0,0.0,0.0,0.0,3.4472,3.5659,3.6457,3.6696,3.7598,3.8104,3.8104,3.8104,3.8182,3.8284,3.8417,3.8431,3.8243,3.703,3.637,3.6148,3.5421,3.4861,3.4525,3.4644,3.4708,3.4756,3.4868,3.4896,3.486,3.4669,3.4396,3.4108,3.3971,3.4108,3.4375,3.4237,3.4528,3.5028,3.5455,3.6334,3.748,3.8883,3.9766,4.0541,4.1441,4.2519,4.3371,4.3532,4.4464,4.5608,4.6531,4.7575,4.8673,4.9912,5.1355,5.2456,5.2755,5.2304,5.1535,5.0438,4.9286,4.8204,4.7287,4.6345,4.5795,4.5795,4.5327,4.4903,4.4646,4.4285,4.4108,4.4097,4.3552,4.3345,4.3575,4.2962,4.2875,4.3375,4.3392,4.3809,4.4598,4.4079,4.369,4.3358,4.2151,4.1519,4.1384,4.1033,4.1858,4.3511,4.4078,4.4734,4.5397,4.5397,4.5397,4.5397,4.5397,4.5397,4.5397,0.0,0.0,0.0,0.0,0.0,0.0,0.0,0.0,3.2428,3.2157,0.0,0.0,0.0,0.0,3.2133,3.2133,3.2455,3.2916,3.3548,3.3968,3.4406,3.4874,3.6067,3.6692,3.6696,3.7734,3.8277,3.8277,3.8277,3.8277,3.8292,3.8447,3.8341,3.8069,3.7224,3.6757,3.6564,3.5736,3.517,3.4814,3.465,3.4547,3.4506,3.4407,3.4461,3.4581,3.4511,3.4399,3.4312,3.4312,3.4515,3.471,3.4437,3.4392,3.4577,3.5133,3.5817,3.6659,3.8068,3.8883,3.9583,4.0586,4.1452,4.2114,4.2301,4.3275,4.4371,4.5083,4.629,4.7497,4.8504,4.9987,5.131,5.2215,5.2372,5.1992,5.0916,4.9951,4.8937,4.7795,4.6815,4.6116,4.583,4.5327,4.5005,4.5005,4.4765,4.4496,4.4198,4.3707,4.3145,4.2547,4.2132,4.2168,4.2675,4.2675,4.3064,4.3836,4.3284,4.2912,4.2642,4.166,4.112,4.0934,4.0608,4.1406,4.3039,4.3674,4.4509,4.5397,4.5397,4.5397,4.5397,4.545,4.5476,4.5476,0.0,0.0,0.0,0.0,0.0,0.0,0.0,0.0,3.3445,3.3088,0.0,0.0,0.0,0.0,0.0,3.3056,3.3589,3.4123,3.4615,3.5578,3.6042,3.5778,0.0,0.0,3.6768,3.7912,3.8478,3.8516,3.8516,3.853,3.8545,3.8147,3.792,3.792,3.7552,3.7372,3.7302,3.6399,3.5835,3.5463,3.4615,3.4134,3.3838,3.3274,3.3276,3.364,3.3827,3.3985,3.4162,3.4578,3.4798,3.4968,3.5151,3.483,3.4489,3.4979,3.5586,3.6416,0.0,0.0,0.0,4.0303,4.0724,4.1013,4.1146,4.2153,4.3093,4.3255,4.4807,4.6416,4.744,4.84,4.9574,5.1151,5.1896,5.1945,5.1065,5.0446,4.9553,4.8024,4.7321,4.6673,4.5882,4.5327,4.5005,4.5005,4.4765,4.4231,4.3426,4.3358,4.2665,4.1221,4.117,4.1187,4.1204,4.1204,4.1576,4.2286,4.2269,4.188,4.1204,4.1187,4.0781,4.0113,4.0238,4.1331,4.3005,4.3156,4.4061,4.5397,4.5397,4.5397,4.5423,4.5554,4.5589,4.5632,0.0,0.0,0.0,0.0,0.0,3.4889,3.4933,3.4933,3.4805,0.0,0.0,0.0,3.3861,3.3641,3.3679,3.4099,3.4481,3.5011,3.5687,3.6452,3.7084,3.7497,3.7886,3.8225,3.8491,3.8489,3.859,3.8723,3.8723,3.8973,3.9406,3.918,3.899,3.8837,3.9042,3.8785,3.8184,3.7484,3.6853,3.6362,3.6106,3.5235,3.4096,3.41,3.3988,3.3827,3.3896,3.4088,3.4404,3.5127,3.5318,3.5335,3.524,3.4881,3.4548,3.5036,3.5514,0.0,3.7426,0.0,0.0,0.0,0.0,0.0,4.0662,4.1227,4.1931,4.2668,4.3421,4.4417,4.5926,4.7016,4.8047,4.9091,5.0474,5.1506,5.1748,5.0802,4.9748,4.8792,4.768,4.6673,4.5882,4.5327,4.5005,4.5005,4.4765,4.4231,4.3426,4.2405,4.1373,4.0434,4.0417,4.0646,4.1204,4.1204,4.1576,4.2286,4.1762,4.1407,4.1187,4.0646,4.0299,4.0113,4.0238,4.1273,4.2869,4.3005,4.3984,4.5397,4.5397,4.545,4.5554,4.5581,4.5641,4.577,0.0,0.0,0.0,0.0,0.0,3.6165,3.6267,3.6311,3.6147,0.0,0.0,0.0,3.5309,3.5129,3.5187,3.5539,3.5891,3.6428,3.7076,3.7782,3.8411,3.8853,3.9106,3.9355,3.9596,3.9323,3.9284,3.9469,3.9454,3.9661,4.0025,4.014,4.0068,3.9891,4.0115,4.0075,3.9722,3.9284,3.8595,3.7828,3.7217,3.6385,3.539,3.4578,3.4107,3.3875,3.3606,3.3695,3.4063,3.4752,3.5244,3.5548,3.537,3.5259,3.5241,3.5398,3.5899,0.0,0.0,0.0,0.0,3.9447,0.0,0.0,4.0213,4.0541,4.1004,4.1643,4.2277,4.3065,4.4173,4.5209,4.6292,4.7525,4.8565,4.9745,5.1215,5.0941,5.0307,4.9452,4.8224,4.7143,4.6377,4.5516,4.5005,4.5005,4.4765,4.4096,4.3014,4.1847,4.0849,4.013,4.0096,4.0316,4.073,4.073,4.095,4.1382,4.0933,4.073,4.073,4.0299,4.0096,4.0096,4.0188,4.1018,4.2339,4.274,4.3898,4.5397,4.5397,4.5476,4.5607,4.5667,4.577,4.5897,0.0,0.0,3.6257,3.7414,3.7421,3.7332,3.7568,3.7612,3.7502,0.0,3.7026,3.6986,3.6986,3.6986,3.7013,3.708,3.7534,3.8017,3.8551,3.9317,3.982,3.9985,4.048,4.0665,4.046,4.0303,4.0338,4.0591,4.0598,4.0628,4.071,4.1091,4.1169,4.0991,4.1026,4.118,4.1437,4.1324,4.0738,3.9702,3.8168,3.7469,3.7066,3.491,3.3985,3.381,3.3211,3.3108,3.3347,3.3957,3.4909,3.5842,3.563,3.5947,3.6342,3.6055,3.664,0.0,0.0,0.0,0.0,3.9422,3.9616,0.0,3.9875,4.0104,4.0362,4.0549,4.1347,4.2159,4.2526,4.3323,4.4475,4.6152,4.6448,4.7358,5.0,5.0815,5.076,4.9748,4.8732,4.777,4.6934,4.5723,4.5005,4.5005,4.468,4.3836,4.2371,4.1593,4.0849,4.013,4.0096,4.0096,4.0096,4.0096,4.0096,4.0096,4.0096,4.0096,4.0096,4.0096,4.0146,4.0231,4.0146,4.0722,4.1792,4.2484,4.3769,4.5276,4.5389,4.5502,4.5658,4.577,4.5897,4.6048,0.0,3.7437,3.7896,3.8786,3.8894,3.8849,3.8907,3.8952,3.8824,3.8487,3.7997,3.7697,3.7697,3.757,3.7632,3.8079,3.8415,3.8904,3.9658,4.0187,4.076,4.1307,4.1148,4.1313,4.1945,4.1443,4.134,4.1691,4.1676,4.1948,4.2493,4.2424,4.2293,4.2115,4.2426,4.2228,4.168,4.217,4.2276,4.1906,3.9865,3.8353,3.7147,3.5713,3.4646,3.381,3.3211,3.3023,3.3199,3.4065,3.5564,3.6955,3.6268,3.6786,3.7575,3.7198,3.7508,3.802,3.8372,3.8734,3.9094,3.9422,3.9616,0.0,3.9875,4.0104,4.0313,4.0362,4.0703,4.1195,4.1861,4.2391,4.3045,4.406,4.4869,4.6341,4.9059,4.9872,4.9607,4.8088,4.8007,4.7508,4.6031,4.5333,4.5005,4.5005,4.4143,4.325,4.2337,4.1593,4.0849,4.013,4.0096,4.0096,4.0096,4.0096,4.0096,4.0096,4.0096,4.0096,4.0096,4.0096,4.0409,4.095,4.0367,4.101,4.2501,4.2706,4.3486,4.4587,4.5286,4.5641,4.5787,4.5897,4.6048,4.6172,3.693,3.7787,3.8524,3.9227,3.9715,3.9996,3.9996,3.9996,3.9929,3.9768,3.9505,3.9311,3.9311,3.9226,3.9251,3.9542,3.9741,4.0137,4.0674,4.11,4.1563,4.2049,4.2137,4.2401,4.2851,4.2515,4.2522,4.2821,4.2895,4.3137,4.346,4.3586,4.3548,4.3371,4.3455,4.315,4.251,4.2877,4.289,4.253,4.0601,3.9402,3.8509,3.6319,3.5102,3.4388,3.3358,3.3072,3.3262,3.4011,3.5112,3.6145,3.6107,3.6723,3.7451,3.7543,3.7799,3.8157,3.8511,3.875,3.8942,3.9202,3.9432,0.0,0.0,3.9875,4.0011,4.0104,4.0263,4.0412,4.0485,4.071,4.1207,4.2105,4.2675,4.3796,4.6079,4.7656,4.8355,4.7814,4.7552,4.7116,4.6273,4.5471,4.4923,4.4803,4.4298,4.3656,4.2895,4.2151,4.1407,4.0663,4.0299,4.0096,4.0096,4.0096,4.0096,4.0096,4.0096,4.0096,4.0113,4.0485,4.0849,4.1204,4.1187,4.1766,4.2714,4.3167,4.3726,4.438,4.5243,4.5667,4.5838,4.5947,4.6073,4.6221,3.6839,3.7855,3.8782,3.9355,4.0112,4.0647,4.0647,4.0745,4.083,4.083,4.083,4.083,4.083,4.083,4.0873,4.0901,4.1057,4.1269,4.1549,4.1937,4.2266,4.2555,4.309,4.3448,4.3566,4.3594,4.3697,4.392,4.4068,4.4142,4.4142,4.4551,4.4625,4.4396,4.422,4.3895,4.3488,4.3448,4.3175,4.2609,4.1047,4.0344,3.9911,3.6808,3.552,3.5094,3.3612,3.3143,3.3382,3.3854,3.4506,3.5163,3.5699,3.6382,3.7093,3.7361,3.7698,3.8001,3.8359,3.8556,3.8706,3.8914,3.9202,3.9425,0.0,0.0,0.0,3.969,3.9885,3.9868,3.9238,3.9224,3.9552,4.0259,4.0416,4.1028,4.2801,4.4714,4.6237,4.7056,4.6768,4.6446,4.6264,4.5486,4.4858,4.4626,4.4615,4.4231,4.3426,4.2844,4.2168,4.1441,4.0815,4.0519,4.0519,4.0519,4.0451,4.0316,4.0316,4.0248,4.013,4.0865,4.1288,4.1457,4.2033,4.253,4.2979,4.3628,4.4052,4.438,4.5243,4.5667,4.5838,4.5947,4.6073,4.6221,3.8143,3.8709,3.9147,3.9449,4.0002,4.0442,4.0442,4.0941,4.1311,4.1311,4.1311,4.1311,4.1311,4.1311,4.1381,4.1577,4.1619,4.1827,4.2269,4.25,4.2809,4.317,4.3591,4.402,4.4458,4.4608,4.4818,4.502,4.502,4.5058,4.5058,4.5114,4.5002,4.4836,4.461,4.4396,4.4166,4.4026,4.3561,4.2879,4.1707,4.0926,4.0159,3.7302,3.5978,3.543,3.3861,3.3297,3.3347,3.3716,3.4611,3.557,3.5358,3.6286,3.7325,3.6786,3.6952,3.7373,3.7714,3.7988,3.8286,3.8706,3.9067,3.9212,3.8797,0.0,3.969,3.9051,0.0,3.9691,3.8983,0.0,0.0,3.8572,3.8608,3.9233,4.082,4.1274,4.2012,4.356,4.4716,4.5083,4.4299,4.4572,4.4748,4.4598,4.4615,4.4231,4.3426,4.3308,4.2946,4.2202,4.2083,4.2033,4.2033,4.2033,4.1711,4.1085,4.1085,4.073,4.013,4.0865,4.1559,4.2168,4.2252,4.2879,4.3765,4.3877,4.4052,4.438,4.5243,4.5667,4.5838,4.5947,4.6073,4.6246,3.8068,3.8617,3.9229,3.9464,4.0408,4.1157,4.1157,4.1709,4.2158,4.2158,4.2158,4.2158,4.2158,4.2158,4.2199,4.2281,4.247,4.2729,4.2905,4.3265,4.3542,4.3699,4.4112,4.4419,4.461,4.5039,4.5352,4.5552,4.5662,4.5755,4.5848,4.5646,4.5499,4.5426,4.5092,4.4598,4.3987,4.3912,4.3378,4.2445,4.1613,4.1098,4.0502,3.7714,3.6006,3.5001,3.4094,3.377,3.3785,3.3922,3.4472,3.5135,3.517,3.612,3.7172,3.6963,3.7172,3.7545,3.776,3.7838,3.7931,3.8201,3.8667,3.8957,3.8751,3.9199,3.9584,3.9257,0.0,0.0,0.0,0.0,0.0,0.0,3.7507,3.7997,3.9138,3.9228,4.0092,4.2561,4.333,4.3481,4.2901,4.3464,4.381,4.3687,4.4063,4.4164,4.3816,4.3463,4.3147,4.2827,4.2469,4.2286,4.2286,4.2286,4.1931,4.1204,4.1204,4.0798,4.0146,4.1305,4.1999,4.2337,4.3261,4.3983,4.4544,4.4544,4.4704,4.4975,4.5355,4.5581,4.5693,4.5922,4.6023,4.6122,3.8903,0.0,3.9682,3.9883,4.0978,4.1868,4.211,4.2554,4.285,4.285,4.285,4.285,4.285,4.285,4.289,4.2915,4.321,4.3409,4.3503,4.3856,4.4104,4.4166,4.4549,4.4776,4.4852,4.5389,4.5735,4.588,4.606,4.6187,4.6298,4.6044,4.5936,4.59,4.5573,4.4961,4.4128,4.4019,4.3304,4.2196,4.1602,4.1046,4.0325,3.7993,3.6271,3.5052,3.4559,3.4448,3.4481,3.4356,3.4767,3.5316,3.544,3.6274,3.7213,3.7299,3.7527,3.774,3.7714,3.7669,3.7563,3.7404,3.7798,3.8121,3.7796,3.842,3.896,3.8761,3.9132,0.0,0.0,0.0,3.7558,3.6791,0.0,3.7114,3.7757,3.7755,3.8652,4.1299,4.1884,4.203,4.2055,4.245,4.2814,4.3004,4.3449,4.3851,4.4097,4.368,4.3463,4.3491,4.309,4.2885,4.2912,4.2912,4.2439,4.1508,4.1508,4.1001,4.0146,4.1407,4.21,4.2354,4.369,4.4533,4.4951,4.4978,4.5157,4.5344,4.5397,4.545,4.5581,4.5846,4.5972,4.6048,4.1483,4.1135,4.0805,4.102,4.1638,4.2361,4.313,4.3275,4.329,4.329,4.329,4.329,4.329,4.329,4.3369,4.3551,4.3591,4.3723,4.3949,4.4166,4.4396,4.4572,4.498,4.5257,4.5478,4.588,4.6076,4.6112,4.6207,4.6314,4.6298,4.6298,4.6262,4.6262,4.6136,4.5667,4.4929,4.4539,4.3612,4.2369,4.1942,4.0862,3.9395,3.8133,3.7034,3.6064,3.5403,3.5333,3.5473,3.5041,3.576,3.6758,3.6323,3.6881,3.7677,3.7677,3.7797,3.7813,3.734,3.7302,3.7186,3.6222,3.6319,3.6382,3.5278,3.6489,3.764,3.6865,3.7955,3.8793,3.8035,3.8008,3.7709,0.0,3.6417,0.0,0.0,3.6702,3.7246,3.892,4.0024,4.0992,4.1831,4.1694,4.1971,4.2925,4.2907,4.3213,4.4064,4.408,4.415,4.4276,4.4243,4.4328,4.453,4.453,4.3785,4.2252,4.2252,4.1491,4.013,4.0882,4.1627,4.2337,4.3115,4.3959,4.4803,4.4968,4.5086,4.522,4.5344,4.5397,4.545,4.5693,4.5897,4.6048,4.3328,0.0,4.2963,4.1874,4.2243,4.2984,4.3827,4.3972,4.3996,4.4151,4.4151,4.4151,4.4151,4.4151,4.4189,4.4266,4.4366,4.4496,4.4572,4.4776,4.4942,4.498,4.5241,4.5442,4.5515,4.588,4.6132,4.6207,4.6545,4.6754,4.6909,4.6909,4.6909,4.6892,4.6719,4.5886,4.4657,4.4505,4.3554,4.2066,4.1785,4.1286,4.0551,3.9263,3.8253,3.7546,3.7022,3.6915,3.6948,3.672,3.6977,3.7394,3.7237,3.7744,3.837,3.837,3.839,3.8413,3.8254,3.7727,3.7194,3.686,3.6784,3.6705,3.6306,3.7011,3.7685,3.7496,3.7975,3.8244,3.7736,3.774,0.0,0.0,0.0,3.6801,0.0,3.6315,3.6508,3.6944,3.8107,3.9179,3.9901,4.0249,4.0588,4.092,4.1451,4.186,4.2183,4.237,4.2762,4.3304,4.3485,4.3833,4.4395,4.4542,4.4062,4.3031,4.2523,4.1779,4.0832,4.1085,4.1339,4.1644,4.2878,4.3671,4.4123,4.4736,4.5086,4.5203,4.5344,4.5397,4.5423,4.5607,4.5744,4.5947,4.451,4.4701,4.4423,4.3247,4.3424,4.3982,4.4526,4.4701,4.4761,4.4911,4.4986,4.5024,4.5024,4.5024,4.4986,4.4911,4.5024,4.5061,4.5002,4.5129,4.522,4.5294,4.5442,4.5552,4.5698,4.6008,4.6294,4.6509,4.6858,4.7098,4.7301,4.7301,4.7301,4.7301,4.7183,4.638,4.5127,4.4802,4.3896,4.2607,4.2092,4.1818,4.1574,4.0587,3.9645,3.878,3.8272,3.8199,3.8284,3.7955,3.8231,3.8648,3.8353,3.8698,3.9208,3.9169,3.9169,3.9063,3.8594,3.7925,3.724,3.6589,3.6306,3.6152,3.5981,3.6466,3.7026,3.7171,3.7507,3.7758,3.7609,3.7679,3.7601,0.0,0.0,0.0,0.0,3.6017,3.6009,3.5869,3.7054,3.807,3.8531,3.9056,3.9511,3.987,4.0426,4.0873,4.1193,4.1453,4.1826,4.2394,4.2813,4.3334,4.3889,4.4305,4.4125,4.3375,4.2929,4.2168,4.1204,4.1204,4.1204,4.1271,4.2489,4.3237,4.3685,4.4616,4.5059,4.5167,4.5344,4.5397,4.5423,4.5554,4.5744,4.6023,4.5182,4.5257,4.5204,4.4986,4.5129,4.522,4.5257,4.541,4.5541,4.5541,4.5724,4.5832,4.5832,4.5832,4.5744,4.5531,4.5494,4.5369,4.5147,4.5147,4.5221,4.5405,4.5458,4.564,4.6048,4.6195,4.6461,4.6876,4.7098,4.7302,4.7454,4.7521,4.7521,4.7488,4.7521,4.7143,4.6373,4.5457,4.4625,4.3877,4.2846,4.2445,4.2381,4.2061,4.1111,3.9845,3.9192,3.9232,3.9516,3.8884,3.9498,4.0416,3.9649,3.9795,4.0231,4.0101,4.0031,3.9757,3.8447,3.7937,3.7322,3.5609,3.5078,3.4834,3.4394,3.503,3.5747,3.5896,3.6574,3.7254,3.7612,3.7756,3.7719,0.0,0.0,0.0,3.5815,3.5711,3.5703,3.5545,3.6764,3.7664,3.7756,3.8154,3.878,3.9731,3.9825,4.0188,4.1033,4.1224,4.1399,4.1616,4.2316,4.2869,4.3182,4.3889,4.3962,4.3443,4.3409,4.2658,4.1255,4.1221,4.1187,4.1187,4.1965,4.2692,4.3447,4.4545,4.5005,4.5032,4.5291,4.5397,4.5423,4.5554,4.5871,4.6235,4.5625,4.5864,4.5977,4.5941,4.5651,4.5505,4.5812,4.592,4.6048,4.6282,4.6337,4.6372,4.6372,4.6372,4.6109,4.5422,4.534,4.5097,4.4503,4.4471,4.4471,4.4541,4.4525,4.4849,4.5496,4.5685,4.6134,4.6876,4.737,4.7408,4.706,4.7881,4.7944,4.7461,4.7994,4.7764,4.6937,4.6111,4.4882,4.353,4.3242,4.2976,4.2775,4.2681,4.2316,4.1773,4.1114,4.0965,4.1009,4.0869,4.1025,4.1258,4.0886,4.0813,4.0817,4.0662,4.0489,4.0289,3.9937,3.8993,3.7958,3.7506,3.654,3.567,3.5565,3.561,3.5779,3.606,3.6213,3.6492,3.7012,3.7117,3.7249,0.0,0.0,0.0,3.6139,3.5581,3.5052,3.4415,3.5586,3.6697,3.7356,3.7931,3.8359,3.8622,3.8808,3.907,3.9401,3.9556,3.9957,4.0713,4.1006,4.176,4.3043,4.3356,4.3754,4.4265,4.369,4.2929,4.1999,4.1457,4.0899,4.0468,4.1728,4.2468,4.2845,4.4377,4.5059,4.5167,4.5344,4.5397,4.5423,4.5641,4.5879,4.6087,4.6136,4.6369,4.658,4.6684,4.6439,4.6246,4.6333,4.6474,4.6649,4.6858,4.6927,4.6996,4.6996,4.6996,4.6635,4.5719,4.5654,4.5246,4.4371,4.4338,4.4289,4.4188,4.4525,4.4767,4.4932,4.5747,4.6196,4.6189,4.698,4.7059,4.6537,4.7204,4.7496,4.7429,4.783,4.7933,4.7703,4.6603,4.5363,4.4149,4.3727,4.3446,0.0,4.3221,4.3143,4.2988,4.2617,4.2269,4.2029,4.2029,4.2029,4.1997,4.1851,4.1687,4.1489,4.1307,4.1107,4.0891,4.0528,3.9493,3.8433,3.7993,3.699,3.6053,3.5894,3.5784,3.5752,3.5943,3.5926,3.6022,3.6492,3.6662,3.6876,0.0,0.0,0.0,3.6071,3.5642,3.5101,3.4264,3.5064,3.6007,3.6826,3.7689,3.8209,3.8209,3.8464,3.8644,3.8711,3.8887,3.9248,3.9759,4.0254,4.0994,4.2021,4.2422,4.2957,4.3599,4.3132,4.254,4.1813,4.139,4.0798,4.018,4.1722,4.2428,4.2626,4.4373,4.514,4.5203,4.5344,4.5397,4.5423,4.5693,4.5846,4.5955,4.6687,4.6911,4.7098,4.7268,4.7319,4.7201,4.686,4.7064,4.7285,4.7319,4.747,4.7587,4.7587,4.7537,4.7142,4.6223,4.6125,4.5699,4.4687,4.4606,4.4539,4.4356,4.487,4.4969,4.4622,4.5888,4.614,4.5323,4.63,4.6487,4.5924,4.6226,4.67,4.7234,4.7334,4.772,4.8272,4.7049,4.6075,4.5236,4.4407,4.4002,4.3889,4.3726,4.3697,4.3713,4.3783,4.3344,4.2758,4.2839,4.2823,4.2726,4.2699,4.2477,4.219,4.2013,4.1819,4.1545,4.0781,3.9863,3.8887,3.8009,3.7014,3.6164,3.5879,3.572,3.5688,3.5688,3.5655,3.572,3.607,3.6352,3.6631,0.0,3.7419,3.7181,3.5836,3.5757,3.5529,3.465,3.5035,0.0,3.6316,3.7432,3.8135,3.8164,3.842,3.856,3.8588,3.8849,3.8969,3.8996,3.9803,4.0429,4.0799,4.1435,4.1923,4.2286,4.2313,4.1941,4.123,4.123,4.09,4.0366,4.186,4.2575,4.2841,4.4514,4.5203,4.5247,4.5371,4.5397,4.5423,4.5693,4.5795,4.5846,4.7437,4.7671,4.7836,4.7869,4.7951,4.8,4.7918,4.7737,4.7704,4.8,4.7951,4.7902,4.7902,4.7754,4.7325,4.6405,4.6356,4.6012,4.5212,4.5163,4.5163,4.513,4.4641,4.4641,4.5146,4.4852,4.4915,4.545,4.5928,4.5921,4.5534,4.6452,4.669,4.6363,4.6975,4.7316,4.7452,4.7873,4.7168,4.5761,4.5614,4.506,4.4361,4.4236,4.4179,4.4234,4.4721,4.4288,4.3512,4.4122,4.3924,4.3515,4.3988,4.3573,4.2898,4.2759,4.2571,4.2381,4.2093,4.0864,3.9581,3.9298,3.7826,3.6414,3.6352,3.5925,3.5587,3.5671,3.5477,3.5394,3.572,3.6195,3.6523,3.66,3.6998,3.6941,3.5978,3.6001,3.5807,3.4914,3.5401,3.5915,3.6218,3.7186,3.7817,3.7934,3.825,3.8476,3.8588,3.8766,3.8887,3.8996,3.9307,3.9914,4.0782,4.0916,4.1446,4.2286,4.2409,4.2072,4.1367,4.1367,4.1359,4.1375,4.2159,4.3012,4.3889,4.4816,4.5274,4.5371,4.5397,4.5397,4.5423,4.5693,4.5795,4.5846,4.8065,4.826,4.8388,4.85,4.8564,4.8642,4.8704,4.8562,4.8435,4.8356,4.8292,4.8276,4.8276,4.8163,4.7799,4.6989,4.6923,4.6513,4.5627,4.5641,4.5658,4.5468,4.5563,4.5413,4.5017,4.5459,4.5371,4.4638,4.5324,4.5438,4.4946,4.5563,4.5948,4.6146,4.7318,4.7842,4.7963,4.8253,4.7979,4.721,4.634,4.5727,4.5269,4.4839,4.4913,4.5286,4.5557,4.5607,4.5517,4.5531,4.5293,4.4993,4.4886,4.4517,4.3971,4.3501,4.319,4.2976,4.2805,4.184,4.0661,3.9987,3.8806,3.7603,3.6862,3.6445,3.6164,3.6006,3.5831,3.5767,3.5911,3.6258,3.6523,3.66,3.6922,3.6913,3.6166,3.6189,3.6093,3.55,3.5691,3.6079,3.6559,3.717,3.7655,3.786,3.8193,3.8448,3.8588,3.8738,3.886,3.8996,3.9255,3.9677,4.0213,4.0292,4.0608,4.1162,4.1282,4.1172,4.0815,4.089,4.117,4.1638,4.2424,4.3271,4.4156,4.4964,4.5344,4.5397,4.5397,4.5397,4.5423,4.5693,4.5795,4.5846,4.8656,4.8813,4.8968,4.9107,4.9155,4.9168,4.929,4.932,4.9168,4.8767,4.8673,4.8642,4.8642,4.861,4.8375,4.779,4.774,4.7378,4.6545,4.6622,4.6591,4.6341,4.6832,4.6579,4.5413,4.6472,4.6115,4.4211,4.5076,4.5206,4.4614,4.5012,4.5586,4.634,4.7894,4.8535,4.8512,4.8741,4.8804,4.8643,4.7299,4.6584,4.6231,4.5774,4.585,4.6216,4.6514,4.7016,4.7477,4.7102,4.6754,4.6417,4.601,4.5555,4.5085,4.4436,4.3935,4.3552,4.3355,4.2663,4.1719,4.0686,3.9875,3.9006,3.7834,3.7416,3.7093,3.6661,3.6397,3.6274,3.6274,3.6414,3.6569,3.6693,3.6983,3.7006,3.6444,3.6483,3.6452,3.6157,3.6127,3.6375,3.6967,3.73,3.7581,3.7876,3.8221,3.8492,3.8588,3.8766,3.8914,3.905,3.9352,3.9563,3.9729,3.9849,3.9977,4.0096,4.0263,4.0337,4.0355,4.0485,4.0952,4.1713,4.2636,4.352,4.4422,4.5129,4.5397,4.5397,4.5397,4.5423,4.5476,4.5693,4.5821,4.5871,4.9367,4.95,4.9619,4.9619,4.9649,4.9649,4.9649,4.9649,4.959,4.9428,4.926,4.9138,4.9138,4.9032,4.8923,4.8838,4.8838,4.8804,4.8706,4.8737,4.8706,4.8675,4.8115,4.774,4.7605,4.7094,4.6401,4.5522,4.5733,4.5546,4.4968,4.5969,4.66,4.6986,4.8524,4.8829,4.8255,4.9618,4.9827,4.9211,4.9072,4.8168,4.696,4.7434,4.7126,4.6628,4.7911,4.8334,4.8377,4.8984,4.8302,4.7295,4.7909,4.7043,4.579,4.5722,4.5003,4.4196,4.4023,4.324,4.2352,4.1993,4.114,4.0245,3.9882,3.9037,3.8243,3.7919,3.7126,3.646,3.646,3.66,3.6693,3.6693,3.6983,3.7148,3.6952,3.7025,3.7086,3.6906,3.6906,3.6982,3.7164,3.7478,3.773,3.7905,3.8307,3.8604,3.8588,3.8849,3.9067,3.9272,3.9422,3.9616,3.9875,3.9901,3.9977,4.0096,4.0362,4.0485,4.0485,4.0624,4.114,4.2002,4.2712,4.3864,4.5294,4.5363,4.5397,4.5397,4.5397,4.5476,4.5607,4.5761,4.5871,4.5998,4.9854,4.9942,5.0046,5.0114,5.0114,5.0114,5.0114,5.0114,5.0086,5.0028,4.9779,4.9602,4.9602,4.9573,4.956,4.956,4.956,4.95,4.9411,4.95,4.95,4.9411,4.921,4.8863,4.8343,4.8036,4.7494,4.6646,4.631,4.6295,4.6632,4.6685,4.7125,4.7876,4.8958,4.9282,4.9135,5.0028,5.0279,5.0031,4.953,4.8918,4.8344,4.8116,4.8097,4.8251,4.882,4.9256,4.9631,4.9942,4.9401,4.8595,4.8458,4.7614,4.6584,4.6169,4.5337,4.4609,4.4525,4.4103,4.3523,4.282,4.2315,4.1778,4.0958,4.0014,3.925,3.891,3.7967,3.718,3.7074,3.718,3.73,3.73,3.7478,3.7596,3.7553,3.7583,3.7537,3.727,3.724,3.7254,3.7298,3.7537,3.7817,3.8049,3.8391,3.8644,3.8711,3.9013,3.9245,3.9405,3.9616,3.9798,3.9901,3.9986,4.0087,4.0213,4.0412,4.0534,4.0624,4.1233,4.1933,4.2741,4.3001,4.3742,4.4734,4.4734,4.501,4.5397,4.5397,4.5476,4.5632,4.5744,4.5871,4.6023,5.0313,5.0425,5.0499,5.0582,5.061,5.061,5.061,5.061,5.061,5.0665,5.0453,5.0239,5.0086,5.0057,5.0057,5.0057,5.0057,4.9999,4.9913,4.9982,4.9982,4.9913,4.9999,4.9769,4.9148,4.9131,4.8712,4.7887,4.7403,4.7437,4.7885,4.7787,4.8138,4.8933,4.9679,4.9943,4.9846,5.0424,5.0729,5.0741,5.0124,4.9747,4.9502,4.917,4.9204,4.9455,4.9664,5.0056,5.0453,5.0453,5.0183,4.978,4.9194,4.8461,4.7659,4.6914,4.6076,4.5323,4.5101,4.4879,4.4523,4.3765,4.3564,4.3272,4.2337,4.1264,4.0247,3.9381,3.8556,3.7918,3.7727,3.7801,3.7905,3.7905,3.7992,3.8049,3.8049,3.8049,3.7947,3.7653,3.7623,3.7594,3.7551,3.7714,3.7963,3.8237,3.8504,3.8711,3.886,3.9191,3.9348,3.9289,3.968,3.9825,3.9708,4.0011,4.0238,4.0362,4.0485,4.0727,4.104,4.1702,4.2447,4.3189,4.2948,4.3396,4.4311,4.4311,4.4734,4.5397,4.545,4.5554,4.5684,4.5795,4.5947,4.6073,5.0766,5.0963,5.1079,5.1079,5.1079,5.1079,5.1079,5.1079,5.1132,5.1272,5.1298,5.1043,5.0471,5.0369,5.0369,5.0369,5.0369,5.0369,5.0387,5.0369,5.0369,5.0387,5.0369,5.0369,5.0369,5.0369,5.0032,4.9284,4.9266,4.8947,4.8417,4.9398,4.9939,5.012,5.0909,5.0838,5.0156,5.0944,5.1298,5.1298,5.1281,5.0803,5.0191,5.0962,5.0611,4.9785,5.0522,5.0694,5.0585,5.0585,5.0667,5.0739,5.0464,4.9875,4.9127,4.8309,4.7455,4.6585,4.5806,4.5389,4.515,4.5015,4.4869,4.4676,4.4333,4.3021,4.1299,3.9238,3.8694,3.8556,3.842,3.8391,3.8391,3.8391,3.8391,3.8391,3.8391,3.8391,3.8319,3.8116,3.8071,3.803,3.7905,3.8094,3.825,3.8408,3.8655,3.886,3.8996,3.9325,3.9298,3.8832,3.9531,3.9691,3.9193,3.9931,4.0362,4.051,4.0648,4.1074,4.1778,4.1926,4.2447,4.3155,4.2361,4.2896,4.4311,4.4311,4.4734,4.5423,4.5554,4.5667,4.5821,4.5947,4.6073,4.6196,5.1211,5.1176,5.1246,5.1246,5.1246,5.1246,5.1246,5.1246,5.1246,5.1281,5.1298,5.1246,5.1043,5.1017,5.1017,5.1017,5.1017,5.1017,5.1017,5.1017,5.1017,5.1017,5.1017,5.0963,5.0873,5.0873,5.0696,5.0334,4.9916,4.9679,4.9588,5.0537,5.1012,5.1081,5.1304,5.1286,5.1055,5.1244,5.1298,5.1298,5.1298,5.1139,5.0952,5.1192,5.1087,5.0814,5.1061,5.1105,5.1079,5.1079,5.1123,5.1123,5.1043,5.0338,4.9406,4.8619,4.7822,4.7001,4.6139,4.5811,4.5684,4.5468,4.5389,4.5283,4.4988,4.3994,4.2544,4.0565,4.013,3.9856,3.9106,3.8952,3.8952,3.8952,3.8952,3.8952,3.8952,3.8952,3.8843,3.8595,3.8567,3.8511,3.8387,3.8444,3.8544,3.8655,3.8958,3.9148,3.9202,3.9002,3.8857,3.8799,3.9217,3.934,3.9217,4.0029,4.051,4.0648,4.0673,4.1415,4.2752,4.2802,4.2965,4.3155,4.2361,4.2603,4.3552,4.3552,4.4319,4.5554,4.5563,4.5744,4.5947,4.5972,4.6073,4.6196,5.151,5.1428,5.1436,5.1436,5.1436,5.1436,5.1436,5.1436,5.1436,5.1436,5.1436,5.1436,5.1436,5.1436,5.141,5.1324,5.1298,5.1298,5.1298,5.1298,5.1298,5.1298,5.1298,5.1272,5.1185,5.1185,5.1097,5.0999,5.0655,5.0537,5.0657,5.1282,5.1582,5.1582,5.1582,5.1582,5.1582,5.1505,5.1436,5.1436,5.1436,5.1436,5.1436,5.1436,5.1428,5.1376,5.1376,5.1376,5.1376,5.1376,5.1454,5.1531,5.1531,5.1099,5.0333,4.9025,4.8322,4.7724,4.6534,4.6186,4.6112,4.5887,4.5786,4.5614,4.5053,4.443,4.3482,4.1873,4.1504,4.1221,4.0441,4.0288,4.0177,3.9831,3.9851,3.9777,3.9494,3.9513,3.9435,3.9185,3.9131,3.9077,3.8843,3.8843,3.8898,3.9067,3.9272,3.9432,3.9599,3.9268,3.9043,3.8948,3.9374,3.9538,3.9344,4.0158,4.0631,4.0769,4.1353,4.2314,4.3603,4.3603,4.3603,4.3569,4.2792,4.2896,4.3621,4.3671,4.443,4.5607,4.5693,4.5871,4.6073,4.6073,4.6172,4.627,5.1736,5.1668,5.169,5.169,5.169,5.169,5.169,5.169,5.169,5.169,5.169,5.169,5.169,5.169,5.1589,5.135,5.1324,5.1324,5.1324,5.1324,5.1324,5.1324,5.1324,5.1324,5.1324,5.1324,5.1324,5.1324,5.1454,5.1505,5.1505,5.164,5.169,5.169,5.169,5.169,5.169,5.169,5.169,5.169,5.1715,5.1715,5.1715,5.1715,5.1658,5.1531,5.1531,5.1531,5.1531,5.1531,5.1708,5.1907,5.1907,5.2005,5.1682,4.9568,4.8958,4.8604,4.7062,4.6542,4.6398,4.6259,4.6112,4.577,4.4823,4.4508,4.4122,4.3109,4.2817,4.26,4.2223,4.2153,4.1846,4.1006,4.0968,4.0778,4.0053,4.0062,4.002,3.9781,3.9755,3.9609,3.9286,3.9259,3.9329,3.9511,3.9554,3.972,4.007,3.9986,3.9716,3.9234,3.9887,4.0051,3.9611,4.0343,4.0786,4.0998,4.2482,4.3586,4.4311,4.4363,4.4363,4.4259,4.3569,4.3672,4.4311,4.4446,4.4948,4.5641,4.5922,4.6105,4.6235,4.6246,4.6301,4.6381,5.2709,5.2118,5.169,5.169,5.169,5.169,5.169,5.169,5.169,5.169,5.169,5.169,5.169,5.169,5.1665,5.1615,5.1615,5.1615,5.1615,5.1615,5.1615,5.1615,5.1615,5.1615,5.1615,5.1615,5.1615,5.1615,5.164,5.164,5.164,5.1708,5.169,5.169,5.169,5.169,5.169,5.169,5.169,5.1715,5.1808,5.1858,5.1858,5.198,5.2005,5.1956,5.1956,5.1956,5.1956,5.1956,5.2005,5.2054,5.2054,5.206,5.1754,5.002,4.9442,4.9008,4.7362,4.6819,4.6661,4.6542,4.6332,4.6084,4.586,4.5542,4.5044,4.4139,4.3847,4.3519,4.2773,4.2627,4.2372,4.1537,4.1427,4.1197,4.0464,4.0387,4.032,4.0163,4.018,4.0087,3.9918,3.9893,3.9918,3.9944,4.0037,4.0155,4.0238,4.0313,4.0046,3.9361,3.9617,3.9712,3.9611,4.0421,4.114,4.1757,4.2723,4.3586,4.4328,4.4889,4.4837,4.4294,4.4121,4.4138,4.4311,4.4446,4.5074,4.5912,4.6105,4.6301,4.6518,4.6495,4.6471,4.6398,5.3279,5.2699,5.2244,5.1936,5.1889,5.1889,5.1889,5.1815,5.1808,5.1808,5.174,5.169,5.169,5.169,5.169,5.169,5.169,5.169,5.169,5.169,5.169,5.169,5.169,5.1665,5.1607,5.1665,5.169,5.169,5.169,5.1715,5.1808,5.1808,5.1815,5.1864,5.1833,5.1833,5.1864,5.1833,5.1833,5.1889,5.1956,5.2005,5.2005,5.2078,5.2102,5.2102,5.2102,5.2102,5.2102,5.2102,5.215,5.2174,5.2174,5.2222,5.2035,5.0813,5.0027,4.9218,4.7572,4.7075,4.6985,4.6824,4.659,4.6374,4.6308,4.608,4.5724,4.5104,4.488,4.4604,4.4026,4.3888,4.3485,4.2304,4.2209,4.1915,4.0834,4.0758,4.0782,4.0673,4.0673,4.0624,4.0485,4.0485,4.0485,4.0485,4.0534,4.06,4.0673,4.0745,4.0532,4.0001,4.0055,4.0126,4.0197,4.0657,4.1447,4.2551,4.2982,4.3759,4.482,4.5207,4.5173,4.4803,4.488,4.4906,4.4906,4.5111,4.5546,4.6112,4.6235,4.6471,4.6684,4.6613,4.659,4.6566,5.3875,5.3351,5.2967,5.2414,5.2222,5.2132,5.2132,5.2054,5.1956,5.1956,5.1833,5.1715,5.1715,5.1715,5.169,5.169,5.169,5.169,5.169,5.169,5.169,5.169,5.169,5.1658,5.1505,5.1607,5.1665,5.1665,5.169,5.1783,5.1907,5.1907,5.198,5.2102,5.198,5.2005,5.2084,5.1855,5.1879,5.2084,5.1982,5.2018,5.2126,5.215,5.2174,5.2174,5.2174,5.2174,5.2174,5.2174,5.2222,5.2335,5.2335,5.2405,5.2335,5.1538,5.057,4.9433,4.7917,4.7409,4.7232,4.707,4.6842,4.659,4.6471,4.6308,4.6112,4.5846,4.5693,4.5537,4.5283,4.5257,4.474,4.3246,4.3098,4.2696,4.1322,4.1157,4.118,4.1123,4.114,4.1117,4.1006,4.0982,4.0982,4.0982,4.0942,4.0989,4.1117,4.1117,4.1006,4.0776,4.0769,4.0793,4.0912,4.0912,4.1671,4.3189,4.3189,4.3958,4.5397,4.5397,4.5397,4.5423,4.5554,4.5607,4.5641,4.5922,4.6105,4.6235,4.6405,4.6613,4.6819,4.6684,4.6708,4.6772,5.5302,5.4187,5.3277,5.3297,5.2726,5.2298,5.2356,5.228,5.2228,5.2228,5.2011,5.1858,5.1858,5.1783,5.169,5.169,5.169,5.169,5.169,5.169,5.169,5.169,5.169,5.1658,5.1505,5.1505,5.1531,5.1531,5.164,5.1783,5.1907,5.1907,5.198,5.2102,5.2078,5.2078,5.2048,5.1341,5.1449,5.2054,5.1483,5.1651,5.2287,5.2387,5.2452,5.2452,5.2452,5.2452,5.2452,5.2452,5.2452,5.2475,5.2475,5.2475,5.2335,5.1538,5.0701,4.9806,4.8774,4.7859,4.7201,4.7196,4.6975,4.6731,4.659,4.6381,4.6112,4.5846,4.5693,4.5607,4.5554,4.5537,4.5286,4.4495,4.3843,4.3138,4.2293,4.1603,4.1209,4.1203,4.1272,4.1335,4.1335,4.1312,4.1312,4.1312,4.1226,4.1163,4.1186,4.1186,4.118,4.1117,4.1076,4.1,4.0912,4.0912,4.1671,4.3189,4.3189,4.3958,4.5397,4.5397,4.545,4.5581,4.5607,4.5667,4.5795,4.6055,4.6235,4.6381,4.6637,4.6842,4.6975,4.6952,4.6888,4.6778,5.5884,5.5241,5.4532,5.3784,5.3425,5.3071,5.2681,5.2518,5.2444,5.241,5.2174,5.198,5.1907,5.1783,5.169,5.169,5.169,5.169,5.169,5.169,5.169,5.169,5.169,5.1665,5.1607,5.1531,5.1531,5.1607,5.1665,5.1808,5.2005,5.2005,5.2126,5.2317,5.2246,5.2011,5.1685,5.1645,5.1669,5.1685,5.1785,5.208,5.2405,5.2475,5.2498,5.2498,5.2498,5.2498,5.2498,5.2498,5.2498,5.2498,5.2498,5.2498,5.2426,5.2045,5.076,4.9253,4.8413,4.7713,4.7249,4.7249,4.7025,4.6754,4.6637,4.6471,4.6228,4.5972,4.5846,4.5795,4.5718,4.5693,4.5526,4.4918,4.4132,4.3382,4.2707,4.1988,4.152,4.152,4.1626,4.171,4.171,4.171,4.1688,4.1626,4.1542,4.1498,4.1431,4.1431,4.1386,4.1318,4.1169,4.1047,4.0912,4.0912,4.1464,4.2568,4.3074,4.386,4.4923,4.5416,4.5641,4.5693,4.577,4.5897,4.603,4.6228,4.6429,4.6637,4.6731,4.6888,4.6998,4.6998,4.6957,4.6888,5.6367,5.6145,5.5638,5.4358,5.4073,5.378,5.2999,5.2783,5.2676,5.2618,5.2364,5.215,5.2054,5.1889,5.1765,5.174,5.1758,5.1758,5.1758,5.1758,5.174,5.169,5.1665,5.164,5.164,5.1556,5.1556,5.164,5.169,5.184,5.2102,5.2102,5.2246,5.2498,5.2382,5.2062,5.1593,5.1912,5.1881,5.1611,5.2045,5.2317,5.2498,5.2498,5.2498,5.2498,5.2498,5.2498,5.2498,5.2498,5.2498,5.2498,5.2498,5.2498,5.2462,5.224,5.0566,4.8645,4.7853,4.749,4.7302,4.7302,4.7053,4.6754,4.6637,4.6495,4.6308,4.6048,4.5998,4.5972,4.5922,4.5897,4.5711,4.5095,4.4348,4.3617,4.2914,4.2251,4.1841,4.1801,4.1927,4.203,4.203,4.203,4.1966,4.1862,4.1819,4.1736,4.1604,4.1604,4.152,4.1363,4.1192,4.1047,4.0959,4.0912,4.1274,4.2016,4.2908,4.3761,4.4532,4.5371,4.5795,4.5846,4.5947,4.608,4.6259,4.6381,4.659,4.6801,4.6842,4.6911,4.6998,4.6998,4.6998,4.6998,5.7116,5.6599,5.594,5.5202,5.4588,5.3972,5.3274,5.306,5.2977,5.2955,5.2686,5.2475,5.2452,5.2222,5.2029,5.1907,5.1882,5.1882,5.1882,5.1882,5.1833,5.169,5.1582,5.1505,5.1505,5.1523,5.1505,5.1505,5.164,5.184,5.2102,5.2102,5.2246,5.2498,5.2498,5.2462,5.2371,5.1665,5.1774,5.2353,5.1647,5.1828,5.2498,5.2498,5.2498,5.2498,5.2498,5.2498,5.2498,5.2498,5.2498,5.2498,5.2498,5.2498,5.233,5.146,4.9938,4.8371,4.7706,4.7407,4.7302,4.7302,4.7053,4.6754,4.6637,4.6495,4.6308,4.6048,4.5998,4.6048,4.6137,4.6161,4.5971,4.5452,4.4739,4.3933,4.3009,4.2379,4.1945,4.1801,4.1956,4.2082,4.2082,4.2082,4.2058,4.2005,4.1862,4.1736,4.1604,4.1604,4.1475,4.1232,4.1146,4.1111,4.1087,4.0959,4.1274,4.2016,4.2827,4.3662,4.4532,4.5269,4.5744,4.5972,4.5998,4.6147,4.6398,4.6542,4.6661,4.6819,4.6952,4.6998,4.6998,4.6998,4.6998,4.6998,5.7188,5.7053,5.6582,5.5408,5.5049,5.4561,5.3387,5.3164,5.3103,5.302,5.2824,5.264,5.2521,5.234,5.215,5.1907,5.1907,5.1907,5.1907,5.1907,5.1882,5.1833,5.1708,5.1615,5.1615,5.1615,5.1615,5.1615,5.1665,5.184,5.2102,5.2102,5.2246,5.2498,5.2498,5.2208,5.1756,5.1955,5.1919,5.1756,5.1973,5.2226,5.2498,5.2498,5.2498,5.2498,5.2498,5.2498,5.2498,5.2498,5.2498,5.2498,5.2498,5.2498,5.218,5.0677,4.9415,4.8344,4.7527,4.729,4.7245,4.7245,4.7025,4.6795,4.6749,4.6613,4.6495,4.6398,4.6374,4.6398,4.6447,4.6471,4.6253,4.5615,4.4847,4.4041,4.327,4.2534,4.2037,4.1995,4.2142,4.2207,4.2207,4.2207,4.2184,4.2058,4.1987,4.188,4.1736,4.1648,4.1515,4.134,4.1226,4.1105,4.0982,4.0935,4.105,4.1343,4.2684,4.3526,4.4004,4.5264,4.5947,4.6122,4.6122,4.6295,4.6542,4.659,4.6731,4.6934,4.698,4.6998,4.6998,4.6998,4.6998,4.6998,5.7188,5.7307,5.7019,5.5791,5.5469,5.5001,5.3772,5.3371,5.3164,5.3063,5.2955,5.2824,5.2663,5.2508,5.2304,5.2102,5.2054,5.2047,5.2047,5.2047,5.2005,5.1956,5.1864,5.1815,5.1815,5.1765,5.1765,5.1765,5.1715,5.1833,5.2054,5.2078,5.2222,5.2452,5.2475,5.219,5.1701,5.2263,5.2172,5.1719,5.2281,5.2498,5.2498,5.2498,5.2498,5.2498,5.2498,5.2498,5.2498,5.2498,5.2498,5.2498,5.2498,5.2294,5.1777,5.0204,4.9158,4.8304,4.7465,4.7227,4.7223,4.7219,4.6998,4.6795,4.6795,4.6684,4.659,4.659,4.6637,4.6684,4.6708,4.6749,4.6506,4.5837,4.4983,4.4134,4.3401,4.2643,4.2163,4.2103,4.2225,4.2308,4.2308,4.2308,4.2246,4.2103,4.2051,4.1923,4.1736,4.1604,4.1493,4.134,4.1226,4.1065,4.0912,4.0912,4.0912,4.0929,4.2562,4.3412,4.3586,4.52,4.5998,4.6147,4.6221,4.6374,4.6613,4.6637,4.6795,4.6998,4.6998,4.6998,4.6998,4.6998,4.6998,4.6998,5.7188,5.7307,5.72,5.6514,5.5834,5.5166,5.4506,5.372,5.3185,5.3185,5.3082,5.2999,5.2999,5.2765,5.2581,5.2521,5.2382,5.2287,5.2287,5.2287,5.2222,5.2126,5.2102,5.2102,5.2102,5.1956,5.1907,5.1907,5.1783,5.1783,5.1907,5.2029,5.2174,5.2311,5.2452,5.2498,5.2498,5.2498,5.2498,5.2498,5.2498,5.2498,5.2498,5.2498,5.2498,5.2498,5.2498,5.2498,5.2498,5.2498,5.2498,5.2498,5.2498,5.1868,5.0945,5.0132,4.9248,4.8326,4.7535,4.7302,4.7298,4.7223,4.6998,4.6801,4.6801,4.6684,4.6613,4.6613,4.6708,4.6842,4.698,4.6998,4.6775,4.61,4.5225,4.4314,4.3422,4.2724,4.2246,4.2142,4.2225,4.2308,4.2308,4.2308,4.2246,4.2103,4.2051,4.188,4.1604,4.1471,4.134,4.1192,4.1146,4.1047,4.0912,4.0912,4.0912,4.0929,4.2465,4.3264,4.3464,4.5066,4.5871,4.6023,4.6277,4.6495,4.6613,4.6731,4.6888,4.6998,4.6998,4.6998,4.6998,4.6998,4.6998,4.6998,5.7188,5.7213,5.7053,5.6394,5.5694,5.503,5.4356,5.3656,5.3185,5.3185,5.3164,5.3103,5.302,5.2915,5.2806,5.2604,5.2503,5.2405,5.2311,5.2439,5.2467,5.2387,5.2198,5.2102,5.2102,5.2054,5.2005,5.1907,5.1858,5.1858,5.1907,5.2029,5.2174,5.2311,5.2452,5.2498,5.2498,5.2498,5.2498,5.2498,5.2498,5.2498,5.2498,5.2498,5.2498,5.2498,5.2498,5.2498,5.2498,5.2498,5.2498,5.2498,5.2498,5.1868,5.0945,5.0132,4.9248,4.8326,4.7535,4.7302,4.7298,4.7276,4.7209,4.7165,4.7165,4.7102,4.708,4.708,4.7125,4.7147,4.7209,4.716,4.6883,4.6122,4.569,4.5138,4.4331,4.3604,4.3123,4.308,4.2623,4.2308,4.2308,4.2308,4.2287,4.2246,4.2094,4.188,4.1604,4.1471,4.134,4.1192,4.1146,4.1047,4.0912,4.0912,4.117,4.1688,4.2706,4.3541,4.4202,4.5292,4.5871,4.6023,4.6277,4.6495,4.6613,4.6731,4.6888,4.6998,4.6998,4.6998,4.6998,4.6998,4.6998,4.6998,5.7188,5.7188,5.7094,5.6745,5.5866,5.5094,5.4733,5.3836,5.3185,5.3185,5.3185,5.3164,5.3082,5.302,5.2937,5.2765,5.2667,5.2595,5.2503,5.2604,5.2672,5.2618,5.2415,5.2298,5.2269,5.215,5.2054,5.198,5.1882,5.1833,5.1833,5.1956,5.2102,5.224,5.2358,5.2452,5.2498,5.2498,5.2498,5.2498,5.2498,5.2498,5.2498,5.2498,5.2498,5.2498,5.2498,5.2498,5.2498,5.2498,5.2526,5.2531,5.2531,5.2164,5.1479,5.0375,4.9617,4.8874,4.7757,4.7468,4.7468,4.7468,4.7385,4.7302,4.7302,4.7302,4.7302,4.7302,4.7341,4.7385,4.7385,4.7316,4.7084,4.6582,4.6109,4.5641,4.5138,4.4407,4.3818,4.3515,4.3072,4.2644,4.2323,4.2308,4.2284,4.2181,4.2072,4.2021,4.2061,4.1898,4.1888,4.2114,4.2001,4.1899,4.1809,4.1809,4.1878,4.1992,4.312,4.3913,4.4456,4.532,4.5795,4.5947,4.6186,4.6447,4.6613,4.6731,4.6888,4.6998,4.6998,4.6998,4.6998,4.6998,4.6998,4.6998,5.7188,5.7134,5.713,5.7254,5.6066,5.5126,5.5263,5.4092,5.3185,5.3185,5.3185,5.3185,5.3185,5.3082,5.302,5.302,5.2912,5.2846,5.2806,5.2806,5.2806,5.2806,5.2676,5.2563,5.2503,5.2246,5.2126,5.2102,5.184,5.1715,5.169,5.1858,5.198,5.2102,5.2264,5.2382,5.2498,5.2498,5.2498,5.2498,5.2498,5.2498,5.2498,5.2498,5.2498,5.2498,5.2498,5.2498,5.2498,5.2498,5.2554,5.259,5.259,5.2613,5.234,5.0828,5.0272,4.9785,4.8224,4.7753,4.7717,4.7717,4.7511,4.7341,4.7341,4.7341,4.7341,4.7341,4.7428,4.7511,4.7511,4.7407,4.7302,4.7302,4.6529,4.5909,4.5909,4.5191,4.446,4.3782,4.3622,4.3322,4.2593,4.2501,4.2418,4.2218,4.2218,4.241,4.2868,4.2655,4.281,4.3464,4.3296,4.3189,4.3189,4.3276,4.293,4.2216,4.3638,4.4328,4.4432,4.5226,4.5667,4.5821,4.6062,4.6357,4.6613,4.6731,4.6888,4.6998,4.6998,4.6998,4.6998,4.6998,4.6998,4.6998,5.708,5.6681,5.6271,5.6296,5.5069,5.415,5.4282,5.3595,5.3082,5.3185,5.3185,5.3185,5.3185,5.3185,5.3164,5.3164,5.3143,5.3017,5.2806,5.2893,5.2912,5.2806,5.2761,5.2717,5.2586,5.2387,5.2216,5.2102,5.1932,5.179,5.169,5.1938,5.2078,5.2126,5.2358,5.2475,5.2498,5.2498,5.2498,5.2498,5.2498,5.2498,5.2498,5.2498,5.2498,5.2498,5.2498,5.2498,5.2498,5.2498,5.2554,5.259,5.259,5.2676,5.2557,5.154,5.0769,5.0039,4.8934,4.8167,4.7717,4.7717,4.7657,4.7615,4.7615,4.7615,4.7615,4.7615,4.7636,4.7657,4.7657,4.7468,4.7302,4.7302,4.6977,4.673,4.673,4.6052,4.5481,4.532,4.4767,4.4282,4.4125,4.4107,4.4017,4.3811,4.3788,4.3769,4.3681,4.3423,4.3325,4.3482,4.3296,4.3189,4.3189,4.3776,4.3983,4.381,4.4138,4.4596,4.5182,4.5485,4.5667,4.5821,4.6062,4.6357,4.6613,4.6731,4.6888,4.6998,4.6998,4.6998,4.6998,4.6998,4.6998,4.702,5.6029,5.5758,5.5486,5.5486,5.4549,5.3854,5.3982,5.3423,5.3042,5.3185,5.3185,5.3185,5.3185,5.3185,5.3185,5.3185,5.3185,5.3143,5.2995,5.306,5.306,5.2977,5.2934,5.285,5.2787,5.2531,5.2311,5.2102,5.1956,5.1833,5.169,5.1907,5.2054,5.2126,5.2293,5.2457,5.2554,5.2554,5.2554,5.2554,5.2554,5.2526,5.2498,5.2498,5.2498,5.2498,5.2531,5.2554,5.2554,5.2503,5.2577,5.2698,5.2698,5.2743,5.2638,5.1788,5.1173,5.0504,4.9238,4.8583,4.8167,4.7808,4.7717,4.7717,4.7717,4.7717,4.7717,4.7717,4.7717,4.7717,4.7717,4.749,4.7302,4.7302,4.712,4.6998,4.6998,4.6641,4.623,4.5856,4.5445,4.5013,4.4638,4.4603,4.4515,4.4324,4.4301,4.4352,4.4472,4.4226,4.4212,4.4578,4.4361,4.4251,4.4251,4.463,4.482,4.482,4.482,4.5044,4.5397,4.5476,4.5615,4.5795,4.5947,4.6228,4.6613,4.6684,4.6819,4.6998,4.6998,4.6998,4.6998,4.6998,4.7043,4.7111,5.487,5.4798,5.4689,5.4689,5.4205,5.3849,5.3964,5.3529,5.324,5.3387,5.3277,5.3185,5.3185,5.3185,5.3185,5.3185,5.3185,5.3185,5.3185,5.3185,5.3185,5.3185,5.3103,5.302,5.2999,5.2731,5.2457,5.2174,5.2005,5.1882,5.1765,5.1907,5.2029,5.215,5.2269,5.2439,5.259,5.259,5.2613,5.2635,5.2635,5.2581,5.2526,5.2549,5.2544,5.2521,5.2563,5.259,5.2563,5.2526,5.2618,5.2761,5.2761,5.2783,5.2656,5.1963,5.1554,5.1036,4.9691,4.922,4.8949,4.8279,4.8025,4.7895,4.7895,4.7808,4.7717,4.7717,4.7717,4.7717,4.7717,4.7511,4.7341,4.7302,4.716,4.702,4.7002,4.6998,4.6748,4.6088,4.6016,4.5749,4.5066,4.4995,4.4903,4.4696,4.4673,4.4841,4.5256,4.5047,4.5177,4.5778,4.5554,4.5423,4.5397,4.5397,4.5397,4.5397,4.5397,4.5397,4.5397,4.5397,4.5554,4.5795,4.5795,4.6105,4.659,4.659,4.6754,4.6998,4.6998,4.6998,4.6998,4.6998,4.7088,4.7219,5.4762,5.4345,5.3856,5.3856,5.3789,5.3793,5.3986,5.3918,5.3953,5.4191,5.3628,5.3185,5.3185,5.3185,5.3185,5.3185,5.3185,5.3185,5.3185,5.3185,5.3185,5.3185,5.3185,5.3124,5.2999,5.2955,5.2757,5.2452,5.2198,5.2078,5.2054,5.2174,5.2264,5.2287,5.2405,5.2508,5.259,5.259,5.2676,5.2783,5.2783,5.2717,5.2608,5.2717,5.2645,5.2521,5.2563,5.2559,5.2503,5.2498,5.2554,5.2631,5.2631,5.2698,5.2765,5.253,5.1991,5.1401,5.1054,5.047,4.9908,4.9782,4.9257,4.8728,4.8728,4.8185,4.7717,4.7717,4.7717,4.7717,4.7717,4.7593,4.7428,4.7302,4.7227,4.7133,4.702,4.6998,4.6944,4.6837,4.6837,4.6783,4.6676,4.6567,4.6452,4.6312,4.6177,4.6086,4.6039,4.5908,4.5817,4.5795,4.5641,4.5528,4.5397,4.5397,4.5397,4.5397,4.5397,4.5397,4.5397,4.5397,4.5554,4.5795,4.5795,4.6105,4.659,4.659,4.6754,4.6998,4.6998,4.6998,4.6998,4.6998,4.7088,4.7219,5.3494,5.3277,5.3023,5.3023,5.3474,5.3694,5.3385,5.3762,5.4019,5.3772,5.3427,5.3185,5.3185,5.3185,5.3185,5.3185,5.3185,5.3185,5.3185,5.3185,5.3387,5.3849,5.3803,5.3939,5.4334,5.3744,5.3367,5.3248,5.2627,5.2246,5.2084,5.224,5.2287,5.2311,5.2452,5.2595,5.2698,5.2698,5.2783,5.2893,5.2893,5.2828,5.2721,5.2783,5.2694,5.2559,5.2586,5.2694,5.2775,5.269,5.269,5.2698,5.2698,5.2698,5.2676,5.2631,5.2345,5.1951,5.1434,5.1031,5.0673,5.022,4.9818,4.9456,4.8981,4.8619,4.8239,4.7787,4.7717,4.7717,4.7717,4.7593,4.749,4.7407,4.732,4.7249,4.7183,4.7165,4.716,4.7111,4.7043,4.6998,4.6998,4.6952,4.6819,4.6613,4.6542,4.6423,4.6196,4.6073,4.5972,4.5922,4.577,4.5667,4.5615,4.5554,4.5502,4.5502,4.5423,4.5397,4.5397,4.5397,4.5554,4.5795,4.5795,4.6055,4.6477,4.6566,4.6708,4.6888,4.6957,4.6998,4.6998,4.6998,4.7088,4.7201]}]]